[[{"header":{"parameterUnit":"m.s-1","parameterCategory":1,"la1":30.6,"la2":29.2853,"lo1":-89.7004,"lo2":-87.6739,"dy":0.0162,"dx":0.0183,"nx":112,"ny":82,"refTime":"2024-07-13T18:00:00:Z","depth":0,"parameterNumber":2,"parameterNumberName":"U-component_of_WINDS"},"data":[0.0,0.0,0.0,0.0,0.0,0.0,0.0,0.0,0.0,0.0,0.0,0.0,0.0,0.0,0.0,0.0,0.0,0.0,0.0,0.0,0.0,0.0,0.0,0.0,0.0,0.0,0.0,0.0,0.0,0.0,0.0,0.0,0.0,0.0,0.0,0.0,0.0,0.0,0.0,0.0,0.0,0.0,0.0,0.0,0.0,0.0,0.0,0.0,0.0,0.0,0.0,0.0,0.0,0.0,0.0,0.0,0.0,0.0,0.0,0.0,0.0,0.0,0.0,0.0,0.0,0.0,0.0,0.0,0.0,0.0,0.0,0.0,0.0,0.0,0.0,0.0,0.0,0.0,0.0,0.0,0.0,0.0,0.0,0.0,0.0,0.0,0.0,0.0,0.0,0.0,0.0,-3.3709,-3.3787,-3.3777,-3.3683,-3.3359,-3.2783,-3.2001,0.0,0.0,0.0,0.0,0.0,0.0,0.0,0.0,0.0,0.0,0.0,0.0,0.0,0.0,0.0,0.0,0.0,0.0,0.0,0.0,0.0,0.0,0.0,0.0,0.0,0.0,0.0,0.0,0.0,0.0,0.0,0.0,0.0,0.0,0.0,0.0,0.0,0.0,0.0,0.0,0.0,0.0,0.0,0.0,0.0,0.0,0.0,0.0,0.0,0.0,0.0,0.0,0.0,0.0,0.0,0.0,0.0,0.0,0.0,0.0,0.0,0.0,0.0,0.0,0.0,0.0,0.0,0.0,0.0,0.0,0.0,0.0,0.0,0.0,0.0,0.0,0.0,0.0,0.0,0.0,0.0,0.0,0.0,0.0,0.0,0.0,0.0,0.0,0.0,0.0,0.0,0.0,0.0,0.0,0.0,0.0,0.0,0.0,0.0,0.0,0.0,0.0,0.0,0.0,-3.1547,-3.3574,-3.3788,-3.3621,-3.3155,-3.3479,-3.2491,-2.9689,0.0,0.0,0.0,0.0,0.0,0.0,0.0,0.0,0.0,0.0,0.0,0.0,0.0,0.0,0.0,0.0,0.0,0.0,0.0,0.0,0.0,0.0,0.0,0.0,0.0,0.0,0.0,0.0,0.0,0.0,0.0,0.0,0.0,0.0,0.0,0.0,0.0,0.0,0.0,0.0,0.0,0.0,0.0,0.0,0.0,0.0,0.0,0.0,0.0,0.0,0.0,0.0,0.0,0.0,0.0,0.0,0.0,0.0,0.0,0.0,0.0,0.0,0.0,0.0,0.0,0.0,0.0,0.0,0.0,0.0,0.0,0.0,0.0,0.0,0.0,0.0,0.0,0.0,0.0,0.0,0.0,0.0,0.0,0.0,0.0,0.0,0.0,0.0,0.0,0.0,0.0,0.0,0.0,0.0,0.0,0.0,0.0,0.0,0.0,0.0,0.0,0.0,0.0,-3.1066,-3.2637,-3.3705,-3.3817,-3.3701,-3.3461,-3.365,-3.2074,-2.8015,-2.6333,0.0,0.0,0.0,0.0,0.0,0.0,0.0,0.0,0.0,0.0,0.0,0.0,0.0,0.0,0.0,0.0,0.0,0.0,0.0,0.0,0.0,0.0,0.0,0.0,0.0,0.0,0.0,0.0,0.0,0.0,0.0,0.0,0.0,0.0,0.0,0.0,0.0,0.0,0.0,0.0,0.0,0.0,0.0,0.0,0.0,0.0,0.0,0.0,0.0,0.0,0.0,0.0,0.0,0.0,0.0,0.0,0.0,0.0,0.0,0.0,0.0,0.0,0.0,0.0,0.0,0.0,0.0,0.0,0.0,0.0,0.0,0.0,0.0,0.0,0.0,0.0,0.0,0.0,0.0,0.0,0.0,0.0,0.0,0.0,0.0,0.0,0.0,0.0,0.0,0.0,0.0,0.0,0.0,0.0,0.0,0.0,0.0,0.0,0.0,0.0,0.0,0.0,-3.379,-3.3798,-3.379,-3.3637,-3.3597,-3.3786,-3.3407,-3.1616,-2.8015,-2.6031,0.0,0.0,0.0,0.0,0.0,0.0,0.0,0.0,0.0,0.0,0.0,0.0,0.0,0.0,0.0,0.0,0.0,0.0,0.0,0.0,0.0,0.0,0.0,0.0,0.0,0.0,0.0,0.0,0.0,0.0,0.0,0.0,0.0,0.0,0.0,0.0,0.0,0.0,0.0,0.0,0.0,0.0,0.0,0.0,0.0,0.0,0.0,0.0,0.0,0.0,0.0,0.0,0.0,0.0,0.0,0.0,0.0,0.0,0.0,0.0,0.0,0.0,0.0,0.0,0.0,0.0,0.0,0.0,0.0,0.0,0.0,0.0,0.0,0.0,0.0,0.0,0.0,0.0,0.0,0.0,0.0,0.0,0.0,0.0,0.0,0.0,0.0,0.0,0.0,0.0,0.0,0.0,0.0,0.0,0.0,0.0,0.0,0.0,0.0,0.0,0.0,0.0,-3.3793,-3.3803,-3.3803,-3.3057,-3.2912,-3.3723,-3.2301,-3.1237,-3.0898,-2.8152,0.0,0.0,0.0,0.0,0.0,0.0,0.0,0.0,0.0,0.0,0.0,0.0,0.0,0.0,0.0,0.0,0.0,0.0,0.0,0.0,0.0,0.0,0.0,0.0,0.0,0.0,0.0,0.0,0.0,0.0,0.0,0.0,0.0,0.0,0.0,0.0,0.0,0.0,0.0,0.0,0.0,0.0,0.0,0.0,0.0,0.0,0.0,0.0,0.0,0.0,0.0,0.0,0.0,0.0,0.0,0.0,0.0,0.0,0.0,0.0,0.0,0.0,0.0,0.0,0.0,0.0,0.0,0.0,0.0,0.0,0.0,0.0,0.0,0.0,0.0,0.0,0.0,0.0,0.0,0.0,0.0,0.0,0.0,0.0,0.0,0.0,0.0,0.0,0.0,0.0,0.0,0.0,0.0,0.0,0.0,0.0,0.0,0.0,0.0,0.0,0.0,0.0,-3.3146,-3.3796,0.0,-3.2192,-3.0653,-2.9488,-2.9639,-2.9414,-2.8452,0.0,0.0,0.0,0.0,0.0,0.0,0.0,0.0,0.0,0.0,0.0,0.0,0.0,0.0,0.0,0.0,0.0,0.0,0.0,0.0,0.0,0.0,0.0,0.0,0.0,0.0,0.0,0.0,0.0,0.0,0.0,0.0,0.0,0.0,0.0,0.0,0.0,0.0,0.0,0.0,0.0,0.0,0.0,0.0,0.0,0.0,0.0,0.0,0.0,0.0,0.0,0.0,0.0,0.0,0.0,0.0,0.0,0.0,0.0,0.0,0.0,0.0,0.0,0.0,0.0,0.0,0.0,0.0,0.0,0.0,0.0,0.0,0.0,0.0,0.0,0.0,0.0,0.0,0.0,0.0,0.0,0.0,0.0,0.0,0.0,0.0,0.0,0.0,0.0,0.0,0.0,0.0,0.0,0.0,0.0,0.0,0.0,0.0,0.0,0.0,0.0,0.0,-3.0674,-3.1395,-3.1852,0.0,-3.1314,-2.9375,-2.6905,-2.7955,-2.7973,-2.6114,0.0,0.0,0.0,0.0,0.0,0.0,0.0,0.0,0.0,0.0,0.0,0.0,0.0,0.0,0.0,0.0,0.0,0.0,0.0,0.0,0.0,0.0,0.0,0.0,0.0,0.0,0.0,0.0,0.0,0.0,0.0,0.0,0.0,0.0,0.0,0.0,0.0,0.0,0.0,0.0,0.0,0.0,0.0,0.0,0.0,0.0,0.0,0.0,0.0,0.0,0.0,0.0,0.0,0.0,0.0,0.0,0.0,0.0,0.0,0.0,0.0,0.0,0.0,0.0,0.0,0.0,0.0,0.0,0.0,0.0,0.0,0.0,0.0,0.0,0.0,0.0,0.0,0.0,0.0,0.0,0.0,0.0,0.0,0.0,0.0,0.0,0.0,0.0,0.0,0.0,0.0,0.0,0.0,0.0,0.0,0.0,0.0,0.0,0.0,0.0,0.0,0.0,-3.0545,-2.8556,-2.7605,-3.0002,-3.045,-2.9506,-2.6942,-2.7597,-2.7129,0.0,0.0,0.0,0.0,0.0,0.0,0.0,0.0,0.0,0.0,0.0,0.0,0.0,0.0,0.0,0.0,0.0,0.0,0.0,0.0,0.0,0.0,0.0,0.0,0.0,0.0,0.0,0.0,0.0,0.0,0.0,0.0,0.0,0.0,0.0,0.0,0.0,0.0,0.0,0.0,0.0,0.0,0.0,0.0,0.0,0.0,0.0,0.0,0.0,0.0,0.0,0.0,0.0,0.0,0.0,0.0,0.0,0.0,0.0,0.0,0.0,0.0,0.0,0.0,0.0,0.0,0.0,0.0,0.0,0.0,0.0,0.0,0.0,0.0,0.0,0.0,0.0,0.0,0.0,0.0,0.0,0.0,0.0,0.0,0.0,0.0,0.0,0.0,0.0,0.0,0.0,0.0,0.0,0.0,0.0,0.0,0.0,0.0,0.0,0.0,0.0,0.0,0.0,-2.7513,-2.7244,-2.6961,-2.7674,-2.7822,-2.7533,-2.6785,-2.696,-2.6539,-2.5078,0.0,0.0,0.0,0.0,0.0,0.0,0.0,0.0,0.0,0.0,0.0,0.0,0.0,0.0,0.0,0.0,0.0,0.0,0.0,0.0,0.0,0.0,0.0,0.0,0.0,0.0,0.0,0.0,0.0,0.0,0.0,0.0,0.0,0.0,0.0,0.0,0.0,0.0,0.0,0.0,0.0,0.0,0.0,0.0,0.0,0.0,0.0,0.0,0.0,0.0,0.0,0.0,0.0,0.0,0.0,0.0,0.0,0.0,0.0,0.0,0.0,0.0,0.0,0.0,0.0,0.0,0.0,0.0,0.0,0.0,0.0,0.0,0.0,0.0,0.0,0.0,0.0,0.0,0.0,0.0,0.0,0.0,0.0,0.0,0.0,0.0,0.0,0.0,0.0,0.0,0.0,0.0,0.0,0.0,0.0,0.0,0.0,0.0,0.0,0.0,0.0,0.0,-2.6333,-2.6704,-2.6707,-2.6689,-2.6723,-2.672,-2.6707,-2.6691,-2.6201,-2.4987,0.0,0.0,0.0,0.0,0.0,0.0,0.0,0.0,0.0,0.0,0.0,0.0,0.0,0.0,0.0,0.0,0.0,0.0,0.0,0.0,0.0,0.0,0.0,0.0,0.0,0.0,0.0,0.0,0.0,0.0,0.0,0.0,0.0,0.0,0.0,0.0,0.0,0.0,0.0,0.0,0.0,0.0,0.0,0.0,0.0,0.0,0.0,0.0,0.0,0.0,0.0,0.0,0.0,0.0,0.0,0.0,0.0,0.0,0.0,0.0,0.0,0.0,0.0,0.0,0.0,0.0,0.0,0.0,0.0,0.0,0.0,0.0,0.0,0.0,0.0,0.0,0.0,0.0,0.0,0.0,0.0,0.0,0.0,0.0,0.0,0.0,0.0,0.0,0.0,0.0,0.0,0.0,0.0,0.0,0.0,0.0,0.0,0.0,0.0,0.0,0.0,0.0,-2.6384,-2.6639,-2.6691,-2.6691,-2.6691,-2.6691,-2.6691,-2.6691,-2.6065,-2.4608,0.0,0.0,0.0,0.0,0.0,0.0,0.0,0.0,0.0,0.0,0.0,0.0,0.0,0.0,0.0,0.0,0.0,0.0,0.0,0.0,0.0,0.0,0.0,0.0,0.0,0.0,0.0,0.0,0.0,0.0,0.0,0.0,0.0,0.0,0.0,0.0,0.0,0.0,0.0,0.0,0.0,0.0,0.0,0.0,0.0,0.0,0.0,0.0,0.0,0.0,0.0,0.0,0.0,0.0,0.0,0.0,0.0,0.0,0.0,0.0,-2.723,0.0,0.0,0.0,0.0,0.0,0.0,0.0,0.0,0.0,0.0,0.0,0.0,0.0,0.0,0.0,0.0,0.0,0.0,0.0,0.0,0.0,0.0,0.0,0.0,0.0,0.0,0.0,0.0,0.0,0.0,0.0,0.0,0.0,0.0,0.0,0.0,0.0,0.0,0.0,0.0,0.0,-2.5314,-2.6199,-2.6691,-2.6691,-2.6691,-2.6691,-2.6691,-2.6691,-2.6065,-2.4608,-2.4408,0.0,0.0,0.0,0.0,0.0,0.0,0.0,0.0,0.0,0.0,0.0,0.0,0.0,0.0,0.0,0.0,0.0,0.0,0.0,0.0,0.0,0.0,0.0,0.0,0.0,0.0,0.0,0.0,0.0,0.0,0.0,0.0,0.0,0.0,0.0,0.0,0.0,0.0,0.0,0.0,0.0,0.0,0.0,0.0,0.0,0.0,0.0,0.0,0.0,0.0,0.0,0.0,0.0,0.0,0.0,0.0,0.0,0.0,0.0,0.0,-2.7491,0.0,0.0,0.0,0.0,0.0,0.0,0.0,0.0,0.0,0.0,0.0,0.0,0.0,0.0,0.0,0.0,0.0,0.0,0.0,0.0,0.0,0.0,0.0,0.0,0.0,0.0,0.0,0.0,0.0,0.0,0.0,0.0,0.0,0.0,0.0,0.0,0.0,0.0,0.0,0.0,-2.5067,-2.6081,-2.6691,-2.6691,-2.6691,-2.6691,-2.6691,-2.6691,-2.6065,-2.4608,-2.4506,0.0,0.0,0.0,0.0,0.0,0.0,0.0,0.0,0.0,0.0,0.0,0.0,0.0,0.0,0.0,0.0,0.0,0.0,0.0,0.0,0.0,0.0,0.0,0.0,0.0,0.0,0.0,0.0,0.0,0.0,0.0,0.0,0.0,0.0,0.0,0.0,0.0,0.0,0.0,0.0,0.0,0.0,0.0,0.0,0.0,0.0,0.0,0.0,0.0,0.0,0.0,0.0,0.0,-3.1421,-3.1806,-3.1806,-3.1806,-3.1806,-3.1733,-3.0411,-2.9605,-2.9193,0.0,0.0,0.0,0.0,0.0,0.0,0.0,0.0,0.0,0.0,0.0,0.0,0.0,0.0,0.0,0.0,0.0,0.0,0.0,0.0,0.0,0.0,0.0,0.0,0.0,-3.2496,-3.3078,0.0,0.0,0.0,0.0,0.0,0.0,0.0,0.0,0.0,0.0,0.0,0.0,-2.4938,-2.5762,-2.6353,-2.6488,-2.6505,-2.6556,-2.6674,-2.6573,-2.5913,-2.4608,-2.4388,-2.3697,0.0,0.0,0.0,0.0,0.0,0.0,0.0,0.0,0.0,0.0,0.0,0.0,0.0,0.0,0.0,0.0,0.0,0.0,0.0,0.0,0.0,0.0,0.0,0.0,0.0,0.0,0.0,0.0,0.0,0.0,0.0,0.0,-2.4728,-2.4606,0.0,0.0,0.0,0.0,0.0,0.0,0.0,0.0,0.0,0.0,0.0,0.0,0.0,0.0,-3.0956,-3.1825,-3.2284,-3.2302,-3.3109,-3.3476,-3.3476,-3.3476,-3.3476,-3.3476,-3.3256,0.0,-3.0304,-2.923,0.0,0.0,0.0,0.0,0.0,0.0,0.0,0.0,0.0,0.0,0.0,0.0,0.0,0.0,0.0,0.0,0.0,0.0,0.0,0.0,0.0,0.0,-3.0173,-3.035,-3.1164,-3.1552,0.0,-3.1647,-3.2582,-3.0657,0.0,0.0,0.0,0.0,0.0,0.0,0.0,0.0,-2.4048,-2.4447,-2.5033,-2.5693,-2.5761,-2.5998,-2.664,-2.6116,-2.5389,-2.4557,-2.3883,-2.3173,-2.2344,-2.231,0.0,0.0,0.0,0.0,0.0,0.0,0.0,0.0,0.0,0.0,0.0,0.0,0.0,0.0,0.0,0.0,0.0,0.0,0.0,0.0,0.0,0.0,0.0,0.0,0.0,0.0,0.0,0.0,0.0,-2.4657,-2.5921,-2.5587,-2.6643,-2.714,0.0,0.0,0.0,0.0,0.0,0.0,0.0,0.0,0.0,-2.9659,-3.0907,-3.1733,-3.2063,-3.2871,-3.3275,-3.3293,-3.3623,-3.3568,-3.3128,-3.3128,-3.2889,-3.2449,-3.2449,-3.1916,-3.1005,-3.0549,-2.9715,-2.8746,0.0,0.0,0.0,0.0,-2.8895,-2.945,-2.954,-2.9257,0.0,0.0,0.0,0.0,0.0,0.0,0.0,0.0,0.0,0.0,0.0,0.0,0.0,-2.9603,-3.0231,-3.0663,-3.0033,-2.9863,-3.0224,0.0,-2.9085,-2.671,-2.6688,0.0,0.0,0.0,0.0,0.0,-2.3106,-2.3625,-2.4329,-2.4915,-2.5355,-2.5744,-2.6048,-2.5795,-2.5287,-2.4557,-2.3799,-2.3071,-2.2344,-2.231,-2.231,0.0,0.0,0.0,0.0,0.0,0.0,0.0,0.0,0.0,0.0,0.0,0.0,0.0,0.0,0.0,0.0,0.0,0.0,0.0,0.0,0.0,0.0,0.0,0.0,0.0,0.0,0.0,0.0,-2.5951,-2.7019,-2.6721,-2.8091,-2.8614,0.0,0.0,0.0,0.0,0.0,0.0,-2.8705,-3.0044,-3.0815,-3.0815,-3.2192,-3.2926,-3.2926,-3.3495,-3.3807,-3.3807,-3.3807,-3.3385,-3.2596,-3.225,-3.1939,-3.1696,-3.1476,-3.1513,-3.1678,-3.1256,-3.0646,-2.9864,-2.9455,-2.9506,-2.9776,-2.9427,-2.9477,-2.9823,-3.0521,-3.0571,-3.021,-2.9762,0.0,-2.7707,-2.7332,0.0,0.0,0.0,0.0,-2.8449,-2.7926,-2.8223,-2.8611,-2.8521,-2.893,-2.9257,-2.8951,-2.7708,-2.7656,0.0,-2.8939,-2.6705,-2.669,0.0,0.0,0.0,0.0,-2.4397,-2.2538,-2.295,-2.3557,-2.3907,-2.443,-2.497,-2.5558,-2.5439,-2.5067,-2.454,-2.3799,-2.3071,-2.2344,-2.2496,-2.2581,-2.2581,0.0,0.0,0.0,0.0,0.0,0.0,0.0,0.0,0.0,0.0,0.0,0.0,0.0,0.0,0.0,0.0,0.0,0.0,0.0,0.0,0.0,0.0,0.0,0.0,0.0,0.0,0.0,0.0,0.0,-2.8054,-2.9487,0.0,0.0,0.0,0.0,-3.0026,-3.076,-3.1201,-3.1201,-3.2027,-3.2485,-3.2485,-3.3311,-3.3733,-3.3733,-3.377,-3.3807,-3.3807,-3.3807,-3.3385,-3.2551,-3.1279,-3.1378,-3.2504,-3.1733,-3.1825,-3.243,-3.0889,-3.0668,-3.1152,-2.9627,-2.9499,-3.0092,-2.9315,-2.9646,-3.0386,-2.9457,-3.0428,-3.1985,-3.1455,-2.9531,-2.761,-2.859,-2.7851,0.0,0.0,-2.8452,-2.7886,-2.7592,-2.7469,-2.7293,-2.6892,-2.6843,-2.686,-2.686,-2.6775,-2.7199,0.0,-2.7853,-2.6684,-2.6703,0.0,-2.6657,-2.6607,-2.6578,-2.5552,-2.269,-2.235,-2.2377,-2.2417,-2.2438,-2.3331,-2.5407,-2.4949,-2.4557,-2.4506,-2.3799,-2.3071,-2.2344,-2.297,-2.3342,-2.3342,-2.3342,0.0,0.0,0.0,0.0,0.0,0.0,0.0,0.0,0.0,0.0,0.0,0.0,0.0,0.0,0.0,0.0,0.0,0.0,0.0,0.0,0.0,0.0,0.0,0.0,0.0,0.0,0.0,0.0,-2.969,-3.1123,0.0,-3.0638,-3.0797,-3.0962,-3.0962,-3.1715,-3.2173,-3.2173,-3.344,-3.4128,-3.4128,-3.4981,-3.5147,-3.4596,-3.4578,-3.4321,-3.3807,-3.3807,-3.365,-3.3335,-3.2324,-3.1302,-3.0314,-3.1066,-3.1549,-3.1733,-3.065,-3.0668,-3.1274,-3.021,-2.9953,-3.0099,-2.931,-2.9237,-2.9531,-2.913,-2.9496,-3.0289,-3.1144,-3.0057,-2.8494,-2.8876,-2.8601,-2.8174,-2.8251,-2.7976,-2.7544,-2.7087,-2.6956,-2.6873,-2.6725,-2.6691,-2.6691,-2.6691,-2.6691,-2.686,-2.7402,-2.7097,-2.6708,-2.6708,-2.6708,-2.6691,-2.6691,-2.6713,-2.5624,-2.2684,-2.2305,-2.2559,-2.3184,-2.3262,-2.3909,-2.5458,-2.5372,-2.5,-2.454,-2.3799,-2.3071,-2.2344,-2.2564,-2.2699,-2.2699,-2.2699,-2.2699,0.0,0.0,0.0,0.0,0.0,0.0,0.0,0.0,0.0,0.0,0.0,0.0,0.0,0.0,0.0,0.0,0.0,0.0,0.0,0.0,0.0,0.0,0.0,0.0,0.0,0.0,-3.1082,-3.082,-3.2247,-3.2884,-3.1905,-3.2045,-3.221,-3.221,-3.2706,-3.2999,-3.2999,-3.4027,-3.4614,-3.4614,-3.5165,-3.5376,-3.5165,-3.478,-3.4339,-3.3807,-3.3807,-3.3805,-3.3773,-3.2878,-3.1591,-3.0106,-3.0736,-3.1292,-3.1715,-3.065,-3.0668,-3.1274,-3.0228,-2.9971,-3.0099,-2.931,-2.8994,-2.8994,-2.9002,-2.9015,-2.9185,-3.0239,-2.9862,-2.8887,-2.8376,-2.8209,-2.8176,-2.7971,-2.7566,-2.7137,-2.6808,-2.6691,-2.6691,-2.6691,-2.6691,-2.6691,-2.6691,-2.6691,-2.6708,-2.6723,-2.6691,-2.6691,-2.6691,-2.6691,-2.6691,-2.6691,-2.67,-2.5632,-2.2687,-2.3179,-2.4032,-2.472,-2.4782,-2.4989,-2.5542,-2.5609,-2.5389,-2.4898,-2.4408,-2.3697,-2.2716,-2.2919,-2.2936,-2.2682,-2.2919,-2.3038,-2.3038,0.0,0.0,0.0,0.0,0.0,0.0,0.0,0.0,0.0,0.0,0.0,0.0,0.0,0.0,0.0,0.0,0.0,0.0,0.0,0.0,0.0,0.0,0.0,-2.9368,-3.0739,-3.1668,-3.1483,-3.2834,-3.3476,-3.2724,-3.333,-3.377,-3.3807,-3.3807,-3.3807,-3.3807,-3.3825,-3.3844,-3.3844,-3.3862,-3.4393,-3.5486,-3.4393,-3.3844,-3.3807,-3.3807,-3.3805,-3.3773,-3.2724,-3.2232,-3.2104,-3.0827,-3.1127,-3.2412,-3.0852,-3.065,-3.1201,-2.9659,-2.9512,-3.0099,-2.931,-2.8994,-2.8994,-2.8994,-2.8994,-2.9012,-2.9012,-2.8968,-2.8655,-2.7146,-2.6711,-2.6882,-2.7643,-2.7291,-2.6691,-2.6691,-2.6691,-2.6691,-2.6691,-2.6657,-2.664,-2.664,-2.664,-2.6639,-2.6684,-2.6672,-2.664,-2.6674,-2.6691,-2.6691,-2.6691,-2.6704,0.0,-2.2801,-2.4932,-2.6709,-2.6709,-2.6709,-2.6399,-2.5709,-2.5642,-2.5625,-2.5609,-2.5592,-2.4932,-2.3477,-2.4086,-2.415,-2.3444,-2.415,-2.4506,-2.4506,0.0,0.0,0.0,0.0,0.0,0.0,0.0,0.0,0.0,0.0,0.0,0.0,0.0,0.0,0.0,0.0,0.0,0.0,0.0,0.0,0.0,0.0,-3.0371,-3.0962,-3.1782,-3.2562,-3.3073,-3.3018,-3.3073,-3.344,-3.3146,-3.3183,-3.3752,-3.3807,-3.3807,-3.3807,-3.4587,-3.5028,-3.5028,-3.5404,-3.5579,-3.5506,-3.5202,-3.4623,-3.3807,-3.3807,-3.3815,-3.3778,-3.3495,-3.2698,-3.1641,-3.1861,-3.1531,-3.0834,-3.0393,-3.0338,-3.0485,-3.0044,-3.0008,-3.0099,-2.931,-2.8994,-2.8994,-2.8994,-2.9004,-2.8996,-2.8996,-2.8228,-2.7262,-2.6842,-2.6699,-2.6756,-2.6959,-2.6876,-2.6691,-2.6691,-2.6691,-2.6691,-2.6691,-2.5882,-2.5178,-2.5528,-2.534,-2.5399,-2.6499,-2.6099,-2.5853,-2.6584,-2.6707,-2.6691,-2.6687,-2.6702,0.0,-2.5609,-2.6209,-2.6698,-2.6687,-2.6704,-2.6638,-2.6404,-2.6404,-2.6167,-2.5642,-2.5101,-2.4611,-2.4218,-2.3866,-2.3849,-2.4201,-2.4404,-2.4506,0.0,0.0,0.0,0.0,0.0,0.0,0.0,0.0,0.0,0.0,0.0,0.0,0.0,0.0,0.0,0.0,0.0,0.0,0.0,0.0,0.0,0.0,-2.9683,-3.0771,-3.1911,-3.2378,-3.2651,-3.2779,-3.2375,-3.2284,-3.2742,-3.2375,-3.2284,-3.2761,-3.3109,-3.3311,-3.3311,-3.4256,-3.4789,-3.4789,-3.5073,-3.5092,-3.4789,-3.4789,-3.4229,-3.3138,-3.3605,-3.3815,-3.3805,-3.3815,-3.2918,0.0,-3.1891,-3.1384,-3.0173,-2.9843,-2.9714,0.0,0.0,0.0,0.0,0.0,-2.8803,-2.9012,-2.9004,-2.859,-2.8036,-2.8036,-2.7444,-2.6695,-2.6695,-2.6715,-2.6691,-2.6691,-2.6691,-2.6691,-2.6691,-2.6691,-2.659,-2.6168,-2.5278,-2.456,-2.4837,-2.4712,-2.4703,-2.5343,0.0,0.0,-2.5709,-2.629,-2.67,-2.6693,-2.617,-2.5552,-2.492,-2.5402,-2.5841,-2.6049,-2.6083,-2.6235,-2.6657,-2.6691,0.0,0.0,0.0,-2.527,-2.4966,-2.4239,0.0,0.0,0.0,0.0,0.0,0.0,0.0,0.0,-2.5974,-2.5924,0.0,0.0,0.0,0.0,0.0,0.0,0.0,0.0,0.0,0.0,0.0,0.0,0.0,0.0,0.0,0.0,-3.016,-3.0705,-3.2162,-3.2339,-3.21,-3.1458,-3.1311,-3.1292,-3.1384,-3.1311,-3.1317,-3.1434,-3.2089,-3.2522,-3.2621,0.0,0.0,0.0,0.0,-3.3807,-3.3807,-3.3807,-3.3248,-3.2214,-3.3293,-3.3695,-3.3526,-3.3603,-3.2708,-3.1141,-3.1268,-3.0834,-3.0008,-2.9287,-2.8994,-2.8994,-2.8994,-2.8994,-2.8952,-2.8413,-2.8481,0.0,0.0,0.0,0.0,-2.6685,-2.6707,-2.6702,-2.6702,-2.6717,-2.6691,-2.6691,-2.6691,-2.6691,-2.6691,-2.6708,-2.642,-2.5376,-2.4659,-2.429,-2.436,-2.432,-2.4133,-2.3718,-2.4292,-2.4743,-2.4325,-2.5472,-2.6454,-2.6437,-2.5285,-2.393,-2.2654,-2.365,-2.4661,-2.5073,0.0,0.0,-2.637,-2.6437,-2.6437,-2.6437,-2.6522,-2.6285,-2.5642,-2.5033,-2.505,-2.571,-2.5727,-2.6048,-2.6691,-2.6691,-2.6691,-2.6657,-2.5338,-2.5084,0.0,0.0,0.0,0.0,0.0,0.0,0.0,0.0,0.0,0.0,0.0,0.0,0.0,0.0,0.0,-2.9344,-2.9931,-3.0373,-3.0921,-3.0793,-3.0852,-3.1329,-3.0834,-3.0687,-3.1329,-3.0797,-3.0783,-3.1667,-3.1679,-3.1998,-3.2887,-3.3474,0.0,-3.3788,-3.3807,-3.3807,-3.3807,-3.3807,-3.3248,-3.2214,0.0,0.0,-3.1868,-3.2323,-3.1403,-2.9515,-3.0369,-3.0178,-2.9237,-2.9049,-2.8994,-2.8994,-2.8994,-2.8994,-2.8952,-2.8413,-2.8167,-2.8204,-2.8783,-2.7982,-2.6688,-2.6688,-2.6688,-2.669,-2.669,-2.6707,0.0,-2.6691,-2.6691,-2.6691,-2.6691,-2.669,-2.6349,-2.4943,-2.3641,-2.2886,-2.3482,-2.3139,-2.2699,-2.2598,-2.2745,-2.2829,-2.2728,-2.3956,-2.4948,-2.4915,-2.435,-2.3843,-2.3549,-2.4086,-2.4509,-2.4628,-2.4644,-2.4712,-2.4929,-2.4946,-2.4946,-2.4946,-2.5473,-2.5761,-2.5609,-2.6031,-2.6336,-2.6471,-2.6488,-2.6556,-2.6691,-2.6691,-2.6691,-2.6691,-2.6404,-2.6336,0.0,0.0,0.0,0.0,0.0,0.0,0.0,0.0,0.0,0.0,0.0,-2.5335,-2.6826,0.0,-2.8437,-2.9906,-3.0053,-3.0099,-3.0528,-2.9752,-2.9396,-3.0123,-2.9494,-2.931,-3.0118,-2.9558,-2.9564,-3.0528,-3.0993,-3.1402,-3.1771,-3.3078,-3.3808,-3.3813,-3.3797,-3.3807,-3.3807,-3.3805,-3.3254,-3.2199,-3.2463,-3.1758,-3.0229,-3.1029,-3.0509,-2.9059,-3.0136,-2.9995,-2.8994,-2.8994,-2.8994,-2.8994,-2.8773,-2.8682,-2.8615,-2.7986,-2.7804,-2.7932,-2.8176,-2.7557,-2.6764,-2.7168,-2.7019,-2.6691,-2.6691,-2.6691,-2.6691,-2.6691,-2.6691,-2.6691,-2.6691,-2.6706,-2.6143,-2.3927,-2.2862,-2.2383,-2.2789,-2.2564,-2.231,-2.231,-2.231,-2.231,-2.231,-2.2919,-2.3388,-2.3391,-2.319,-2.3047,-2.305,-2.3253,-2.3528,-2.39,-2.3934,-2.4086,-2.4472,-2.4506,-2.4506,-2.4506,-2.4831,-2.505,-2.505,-2.5389,-2.5592,-2.5592,-2.5964,-2.615,-2.615,-2.6522,-2.6691,-2.6691,-2.6691,-2.6691,0.0,0.0,0.0,0.0,0.0,0.0,0.0,0.0,-2.3755,-2.4313,-2.4635,-2.5403,-2.7331,-2.7937,-2.8708,-3.043,-3.0162,-2.9828,-3.0188,-2.9006,-2.8216,-2.8555,-2.8018,-2.7948,-2.8736,-2.842,-2.854,-2.9438,-3.0321,-3.0772,-3.0767,-3.212,-3.3157,-3.3783,-3.381,-3.3805,-3.3805,-3.36,-3.2937,-3.1888,-3.1452,-3.0461,-2.9028,-2.9893,-2.982,-2.9046,-2.9916,-2.9811,-2.8994,-2.8994,-2.8994,-2.8952,-2.8327,-2.8172,-2.8219,-2.7542,-2.7535,-2.7842,-2.7469,-2.7043,-2.6822,-2.7448,-2.7242,-2.6691,-2.6691,-2.6691,-2.6691,-2.6691,-2.6691,-2.6657,-2.6471,-2.6434,-2.572,-2.2965,-2.2298,-2.2308,-2.2316,-2.231,-2.231,-2.231,-2.231,-2.231,-2.231,-2.231,-2.231,-2.231,-2.231,-2.231,-2.231,-2.231,-2.253,-2.3122,-2.319,-2.3427,-2.4002,-2.4052,-2.412,-2.4286,-2.4303,-2.4371,-2.4506,-2.4506,-2.4506,-2.4506,-2.5067,-2.5456,-2.5609,-2.6201,-2.6556,-2.6691,-2.6691,-2.6691,-1.9061,-2.1663,-2.3674,-2.4094,-2.419,-2.4113,0.0,0.0,-2.3578,-2.4613,-2.4635,-2.5183,-2.7598,-2.8183,-2.8688,-2.9901,-2.9931,-2.9607,-2.9083,-2.8477,-2.7866,-2.7213,-2.7064,-2.7325,-2.8107,-2.8296,-2.8804,-2.9848,-2.978,-3.0181,-3.135,-3.0206,-3.0857,-3.3713,-3.3802,-3.3808,-3.3808,-3.2859,-3.1826,-3.0772,-3.0717,-3.0105,-2.9012,-2.9122,-2.9104,-2.9012,-2.9122,-2.9127,-2.8994,-2.8994,-2.8994,-2.8874,-2.7502,-2.7378,-2.7908,-2.747,-2.7552,-2.7792,-2.7041,-2.6741,-2.6707,-2.6808,-2.6775,-2.6691,-2.6691,-2.6691,-2.6691,-2.6691,-2.6691,-2.6505,-2.5611,-2.5385,-2.4853,-2.2768,-2.2291,-2.2299,-2.2282,-2.231,-2.231,-2.231,-2.231,-2.231,-2.231,-2.231,-2.231,-2.231,-2.231,-2.231,-2.231,-2.231,-2.2344,-2.2412,-2.2429,-2.2462,-2.2547,-2.2547,-2.2835,-2.3477,-2.3511,-2.3816,-2.4489,-2.4506,-2.4506,-2.4506,-2.4591,-2.4932,-2.5609,-2.5693,-2.6065,-2.6691,-2.6691,-2.6691,-2.082,-2.284,0.0,0.0,-2.4284,-2.4074,-2.3522,-2.33,-2.3347,-2.3903,-2.4241,-2.5094,-2.7343,-2.814,-2.8869,0.0,-3.0232,-2.9902,-2.9001,-2.8241,-2.7447,-2.6493,-2.6478,-2.6951,-2.7998,-2.8016,-2.8517,-2.9904,-3.0009,-3.018,-3.0552,-3.0093,-3.0183,-3.0974,-3.1015,-3.1029,-3.1029,-3.0546,-3.0106,-2.9661,-2.9654,-2.942,-2.8994,-2.8994,-2.8994,-2.8994,-2.8994,-2.8994,-2.8994,-2.8994,-2.87,-2.8196,-2.7207,-2.6685,-2.6488,-2.635,-2.6681,-2.7142,-2.6825,-2.6691,-2.6691,-2.6691,-2.6691,-2.6691,-2.6691,-2.6286,-2.5831,-2.5831,-2.5627,-2.5404,-2.5249,-2.4771,-2.4011,-2.2631,-2.2303,-2.231,-2.231,-2.231,-2.231,-2.231,-2.231,-2.231,-2.231,-2.231,-2.231,-2.231,-2.231,-2.231,-2.231,-2.231,-2.231,-2.231,-2.231,-2.231,-2.231,-2.231,-2.2446,-2.275,-2.2767,-2.2902,-2.3207,-2.3224,-2.3224,-2.3224,-2.363,-2.4002,-2.4323,-2.4746,-2.5118,-2.5423,-2.5862,-2.6065,-2.2091,0.0,0.0,-2.4442,-2.4266,-2.3917,-2.3346,-2.3117,-2.3098,-2.3175,-2.365,-2.4664,-2.6628,-2.7497,-2.8422,-2.9926,-3.0001,-2.959,-2.8762,-2.7854,-2.6975,-2.6181,-2.6217,-2.683,-2.8159,-2.7913,-2.8358,-2.9989,-3.0292,-3.0285,-3.0046,-3.0284,-2.9964,-2.902,-2.9003,-2.8986,-2.8986,-2.9004,-2.8991,-2.8991,-2.8989,-2.8994,-2.8994,-2.8994,-2.8994,-2.9017,-2.9003,-2.9003,-2.8994,-2.8855,-2.8278,-2.7442,-2.6623,-2.5949,-2.5366,-2.5176,-2.5759,-2.669,-2.669,-2.6691,-2.6691,-2.6691,-2.6691,-2.6691,-2.6707,-2.5914,-2.4925,-2.4508,-2.4467,-2.4523,-2.4666,-2.4207,-2.3456,-2.2538,-2.2281,-2.231,-2.231,-2.231,-2.231,-2.231,-2.231,-2.231,-2.231,-2.231,-2.231,-2.231,-2.231,-2.231,-2.231,-2.231,-2.231,-2.231,-2.231,-2.231,-2.231,-2.231,-2.231,-2.231,-2.231,-2.231,-2.231,-2.231,-2.231,-2.231,-2.2835,-2.319,-2.3393,-2.3934,-2.432,-2.4523,-2.505,-2.5304,0.0,0.0,-2.4495,-2.4495,-2.4098,-2.361,-2.3277,-2.2947,-2.2738,-2.273,-2.3007,-2.3736,-2.5351,-2.5989,-2.6957,-2.8994,-2.8743,-2.8217,-2.8051,-2.7103,-2.6403,-2.6289,-2.6295,-2.6956,0.0,-2.8241,-2.8591,-3.0263,-3.0394,-3.0394,-3.0398,-3.0396,-2.9978,-2.9022,-2.9005,-2.8994,-2.8994,-2.8994,-2.8994,-2.8994,-2.8994,-2.8994,-2.8994,-2.8994,-2.8994,-2.9017,-2.8997,-2.9016,-2.8975,-2.8452,-2.7671,-2.6711,-2.5587,-2.5136,-2.4993,-2.4154,-2.5053,-2.6717,-2.6717,-2.6689,-2.6691,-2.6691,-2.6691,-2.6691,-2.6686,-2.5676,-2.4228,-2.2791,-2.3391,-2.4354,-2.363,-2.3427,-2.3224,-2.2496,-2.2282,-2.231,-2.231,-2.231,-2.231,-2.231,-2.231,-2.231,-2.231,-2.231,-2.231,-2.231,-2.231,-2.231,-2.231,-2.231,-2.231,-2.231,-2.231,-2.231,-2.231,-2.231,-2.231,-2.231,-2.231,-2.231,-2.231,-2.231,-2.231,-2.231,-2.2327,-2.2699,-2.3393,-2.341,-2.3799,-2.4506,-2.4523,-2.454,0.0,0.0,-2.3051,-2.3051,-2.2605,-2.2129,-2.2043,-2.178,-2.1569,-2.1582,-2.2331,-2.3392,-2.4653,-2.5716,-2.705,-2.9093,-2.875,-2.8184,-2.8139,-2.775,-2.7247,-2.6641,-2.7514,0.0,0.0,0.0,0.0,-3.0302,-3.039,-3.039,-3.0398,-3.0411,-2.9959,-2.9039,-2.9005,-2.8994,-2.8994,-2.8994,-2.8994,-2.8994,-2.8994,-2.8723,-2.8209,-2.8209,-2.8121,-2.7981,-2.8698,-2.8404,-2.745,-2.7846,-2.7326,-2.6193,-2.5409,-2.4448,-2.3448,-2.2988,-2.3211,-2.4073,-2.6011,-2.6705,-2.6693,-2.6693,-2.6715,-2.6686,-2.6691,-2.498,-2.2938,-2.2435,-2.2677,-2.2987,-2.2733,-2.2682,-2.2615,-2.2361,-2.231,-2.231,-2.231,-2.231,-2.231,-2.231,-2.231,-2.231,-2.231,-2.231,-2.231,-2.231,-2.231,-2.231,-2.231,-2.231,-2.231,-2.231,-2.231,-2.231,-2.231,-2.231,-2.231,-2.231,-2.231,-2.231,-2.231,-2.231,-2.231,-2.231,-2.231,-2.2429,-2.2682,-2.2682,-2.2801,-2.3054,-2.3528,-2.3765,-2.1934,-2.2261,-2.2286,-2.2182,-2.1688,-2.1159,-2.0956,-2.0906,-2.0915,-2.0882,-2.189,-2.3095,-2.4094,-2.5243,-2.6688,-2.8671,-2.828,-2.7945,-2.8548,-2.8296,-2.7935,-2.7633,-2.8492,-2.9217,0.0,0.0,0.0,-3.0359,-3.0121,-3.0063,-3.0383,-3.039,-3.0059,-2.9262,-2.9074,-2.9001,-2.8994,-2.8994,-2.8847,-2.8576,-2.8576,-2.8154,-2.7365,-2.7365,-2.7276,-2.7153,-2.783,-2.7233,-2.5744,-2.587,-2.5933,-2.5903,-2.4875,-2.3708,-2.2537,-2.236,-2.2293,-2.2555,-2.4458,-2.5115,-2.5135,-2.5135,-2.5128,-2.5317,-2.6385,-2.4645,-2.2305,-2.23,-2.231,-2.231,-2.231,-2.231,-2.231,-2.231,-2.231,-2.231,-2.231,-2.231,-2.231,-2.231,-2.231,-2.231,-2.231,-2.231,-2.231,-2.231,-2.231,-2.231,-2.231,-2.231,-2.231,-2.231,-2.231,-2.231,-2.231,-2.231,-2.231,-2.231,-2.231,-2.231,-2.231,-2.231,-2.231,-2.231,-2.231,-2.231,-2.231,-2.231,-2.231,-2.2327,-2.2801,-2.3004,-2.1344,-2.1738,-2.2053,-2.1722,-2.117,-2.0543,-1.9962,-2.0274,-2.0624,-2.0582,-2.1652,-2.2856,-2.3721,0.0,-2.5897,-2.7785,-2.7464,-2.7544,-2.9178,-2.8681,-2.8423,0.0,0.0,0.0,0.0,0.0,0.0,-3.0398,0.0,-2.9517,-3.0348,-3.0222,-2.9912,-2.9425,-2.9064,-2.8862,-2.8828,-2.8847,-2.8521,-2.7769,-2.775,-2.731,-2.6539,-2.6539,-2.6521,-2.6484,-2.6477,-2.5604,-2.4105,-2.2842,-2.3702,-2.5639,-2.4024,-2.2953,-2.231,-2.231,-2.231,-2.2299,-2.2295,-2.2302,-2.2283,-2.2283,-2.2283,-2.2815,-2.5639,-2.4538,-2.2316,-2.2304,-2.231,-2.231,-2.231,-2.231,-2.231,-2.231,-2.231,-2.231,-2.231,-2.231,-2.231,-2.231,-2.231,-2.231,-2.231,-2.231,-2.231,-2.231,-2.231,-2.231,-2.231,-2.231,-2.231,-2.231,-2.231,-2.231,-2.231,-2.231,-2.231,-2.231,-2.231,-2.231,-2.231,-2.231,-2.231,-2.231,-2.231,-2.231,-2.231,-2.231,-2.231,-2.231,-2.231,-2.231,-1.973,-1.9554,-1.9322,-1.839,-1.805,-1.792,-1.7915,-1.8234,-1.8858,-1.994,-2.137,-2.2662,-2.3384,0.0,0.0,-2.7712,-2.7868,0.0,-2.9318,-2.9273,0.0,-2.9253,0.0,-3.0259,-3.039,-3.0398,0.0,0.0,-3.0198,-3.0179,-3.0402,-2.7987,-2.6291,-2.5616,-2.6656,-2.7021,-2.6618,-2.7013,-2.7313,-2.7503,-2.7093,-2.6484,-2.5695,-2.5695,-2.5383,-2.4814,-2.4797,-2.4572,-2.41,-2.2818,-2.2669,-2.3243,-2.3362,-2.2953,-2.231,-2.231,-2.231,-2.2282,-2.2304,-2.2298,-2.2303,-2.2303,-2.23,-2.2454,-2.3175,-2.289,-2.2316,-2.2304,-2.231,-2.231,-2.231,-2.231,-2.231,-2.231,-2.231,-2.231,-2.231,-2.231,-2.231,-2.231,-2.231,-2.231,-2.231,-2.231,-2.231,-2.231,-2.231,-2.231,-2.231,-2.231,-2.231,-2.231,-2.231,-2.231,-2.231,-2.231,-2.231,-2.231,-2.231,-2.231,-2.231,-2.231,-2.231,-2.231,-2.231,-2.231,-2.231,-2.231,-2.231,-2.231,-2.231,-2.231,-1.909,-1.8504,-1.7907,-1.7414,-1.7094,-1.6872,-1.6781,-1.7345,-1.8222,-1.9399,-2.119,0.0,-2.3628,-2.4954,0.0,0.0,0.0,0.0,-2.9834,-2.9978,-2.9955,0.0,-3.0292,0.0,-3.0421,-3.0398,-3.0398,0.0,-3.0398,-3.039,-3.0402,-2.7975,-2.637,-2.5834,-2.6096,-2.6225,-2.6146,-2.6444,-2.6578,-2.6528,-2.6229,-2.564,-2.4869,-2.4869,-2.463,-2.419,0.0,-2.4006,-2.4094,-2.2845,-2.2314,-2.2344,-2.2767,-2.2665,-2.231,-2.231,-2.231,-2.231,-2.231,-2.231,-2.231,-2.231,-2.2293,-2.2303,-2.2316,-2.2293,-2.2303,-2.2316,-2.231,-2.231,-2.231,-2.231,-2.231,-2.231,-2.231,-2.231,-2.231,-2.231,-2.231,-2.231,-2.231,-2.231,-2.231,-2.231,-2.231,-2.231,-2.231,-2.231,-2.231,-2.231,-2.231,-2.231,-2.231,-2.231,-2.231,-2.231,-2.231,-2.231,-2.231,-2.231,-2.231,-2.231,-2.231,-2.231,-2.231,-2.231,-2.231,-2.231,-2.231,-2.231,-2.231,-2.231,-1.8731,-1.7941,-1.7246,-1.7353,-1.6976,-1.6471,-1.6093,-1.7,-1.8146,-1.9105,0.0,-2.316,-2.4177,-2.4665,-2.5659,-2.8032,0.0,-2.9197,-3.0426,-3.0618,-3.0602,-3.0619,-3.0605,-3.0558,-3.0436,-3.0267,-3.0179,-3.0179,-3.0121,-3.0113,-3.0175,-2.902,-2.8074,-2.7481,-2.624,-2.5801,-2.6282,-2.6282,-2.5933,-2.5256,-2.5256,-2.4869,-2.419,-2.419,-2.419,-2.417,0.0,0.0,-2.3946,-2.277,-2.2295,-2.231,-2.231,-2.231,-2.231,-2.231,-2.231,-2.231,-2.231,-2.231,-2.231,-2.231,-2.231,-2.231,-2.231,-2.231,-2.231,-2.231,-2.231,-2.231,-2.231,-2.231,-2.231,-2.231,-2.231,-2.231,-2.231,-2.231,-2.231,-2.231,-2.231,-2.231,-2.231,-2.231,-2.231,-2.231,-2.231,-2.231,-2.231,-2.231,-2.231,-2.231,-2.231,-2.231,-2.231,-2.231,-2.231,-2.231,-2.231,-2.231,-2.231,-2.231,-2.231,-2.231,-2.231,-2.231,-2.231,-2.231,-2.231,-2.231,-2.231,-2.231,-1.7125,-1.6785,-1.654,-1.5501,-1.5081,-1.4927,-1.4949,-1.6151,0.0,0.0,-2.1814,-2.384,-2.459,-2.4826,-2.5349,-2.674,0.0,0.0,0.0,0.0,-3.0681,0.0,0.0,0.0,0.0,0.0,0.0,0.0,0.0,-2.8525,-2.8967,-2.8756,-2.7567,-2.5254,-2.4725,-2.4504,-2.4612,-2.4612,-2.4538,-2.441,-2.441,-2.4337,-2.419,-2.419,-2.419,-2.417,0.0,0.0,-2.3094,-2.2528,-2.2295,-2.231,-2.231,-2.231,-2.231,-2.231,-2.231,-2.231,-2.231,-2.231,-2.231,-2.231,-2.231,-2.231,-2.231,-2.231,-2.231,-2.231,-2.231,-2.231,-2.231,-2.231,-2.231,-2.231,-2.231,-2.231,-2.231,-2.231,-2.231,-2.231,-2.231,-2.231,-2.231,-2.231,-2.231,-2.231,-2.231,-2.231,-2.231,-2.231,-2.231,-2.231,-2.231,-2.231,-2.231,-2.231,-2.231,-2.231,-2.231,-2.231,-2.231,-2.231,-2.231,-2.231,-2.231,-2.231,-2.231,-2.231,-2.231,-2.231,-2.231,-2.231,-1.676,-1.6077,-1.5504,-1.5074,-1.4649,-1.4428,-1.4776,0.0,0.0,0.0,-2.1704,-2.356,-2.4649,0.0,0.0,0.0,0.0,0.0,0.0,0.0,0.0,0.0,0.0,0.0,0.0,0.0,0.0,0.0,0.0,-2.7804,-2.8651,-2.8006,-2.6678,-2.4607,-2.4321,-2.419,-2.419,-2.419,-2.419,-2.419,-2.419,-2.419,-2.419,-2.419,-2.4094,-2.3917,-2.3512,0.0,-2.2863,-2.247,-2.2313,-2.231,-2.231,-2.231,-2.231,-2.231,-2.231,-2.231,-2.231,-2.231,-2.231,-2.231,-2.231,-2.231,-2.231,-2.231,-2.231,-2.231,-2.231,-2.231,-2.231,-2.231,-2.231,-2.231,-2.231,-2.231,-2.231,-2.231,-2.231,-2.231,-2.231,-2.231,-2.231,-2.231,-2.231,-2.231,-2.231,-2.231,-2.231,-2.231,-2.231,-2.231,-2.231,-2.231,-2.231,-2.231,-2.231,-2.231,-2.231,-2.231,-2.231,-2.231,-2.231,-2.231,-2.231,-2.231,-2.231,-2.231,-2.231,-2.231,-2.231,-2.231,-1.6453,-1.5459,-1.4546,-1.4985,-1.4602,-1.4218,-1.4775,-1.6275,0.0,0.0,-2.1639,-2.3475,-2.4797,0.0,0.0,0.0,0.0,0.0,0.0,0.0,0.0,0.0,0.0,0.0,0.0,0.0,0.0,0.0,0.0,0.0,-2.783,-2.6814,-2.569,-2.4549,-2.4303,-2.419,-2.419,-2.419,-2.419,-2.419,-2.419,-2.419,-2.419,-2.419,-2.4016,-2.3692,-2.3346,0.0,0.0,-2.246,-2.231,-2.231,-2.231,-2.231,-2.231,-2.231,-2.231,-2.231,-2.231,-2.231,-2.231,-2.231,-2.231,-2.231,-2.231,-2.231,-2.231,-2.231,-2.231,-2.231,-2.231,-2.231,-2.231,-2.231,-2.231,-2.231,-2.231,-2.231,-2.231,-2.231,-2.231,-2.231,-2.231,-2.231,-2.231,-2.231,-2.231,-2.231,-2.231,-2.231,-2.231,-2.231,-2.231,-2.231,-2.231,-2.231,-2.231,-2.231,-2.231,-2.231,-2.231,-2.231,-2.231,-2.231,-2.231,-2.231,-2.231,-2.231,-2.231,-2.231,-2.231,-2.231,-1.5505,-1.4752,-1.4097,-1.4693,-1.424,-1.3814,-1.4415,0.0,0.0,-1.9668,-2.2317,-2.4488,-2.5294,-2.5378,0.0,0.0,0.0,0.0,0.0,0.0,0.0,0.0,0.0,0.0,0.0,0.0,0.0,0.0,0.0,0.0,-2.5263,-2.5067,-2.4828,-2.4512,-2.4303,-2.419,-2.419,-2.419,-2.419,-2.419,-2.419,-2.419,-2.419,-2.419,-2.4016,-2.3692,0.0,0.0,0.0,-2.2415,-2.231,-2.231,-2.231,-2.231,-2.231,-2.231,-2.231,-2.231,-2.231,-2.231,-2.231,-2.231,-2.231,-2.231,-2.231,-2.231,-2.231,-2.231,-2.231,-2.231,-2.231,-2.231,-2.231,-2.231,-2.231,-2.231,-2.231,-2.231,-2.231,-2.231,-2.231,-2.231,-2.231,-2.231,-2.231,-2.231,-2.231,-2.231,-2.231,-2.231,-2.231,-2.231,-2.231,-2.231,-2.231,-2.231,-2.231,-2.231,-2.231,-2.231,-2.231,-2.231,-2.231,-2.231,-2.231,-2.231,-2.231,-2.231,-2.231,-2.231,-2.231,-2.231,-1.5974,-1.4963,-1.4026,-1.4254,-1.3867,-1.3718,-1.483,0.0,-1.8477,-2.0556,-2.2711,-2.4469,-2.5284,-2.5216,-2.5115,0.0,-2.5687,-2.6571,-2.8226,0.0,0.0,0.0,0.0,0.0,0.0,0.0,0.0,0.0,0.0,0.0,-2.5156,-2.468,-2.446,-2.4512,-2.4303,-2.419,-2.419,-2.419,-2.419,-2.419,-2.419,-2.419,-2.4208,-2.4198,-2.3973,-2.3575,0.0,0.0,0.0,-2.2349,-2.231,-2.231,-2.231,-2.231,-2.231,-2.231,-2.231,-2.231,-2.231,-2.231,-2.231,-2.231,-2.231,-2.231,-2.231,-2.231,-2.231,-2.231,-2.231,-2.231,-2.231,-2.231,-2.231,-2.231,-2.231,-2.231,-2.231,-2.231,-2.231,-2.231,-2.231,-2.231,-2.231,-2.231,-2.231,-2.231,-2.2061,-2.1899,-2.1899,-2.1675,-2.1524,-2.1524,-2.1991,-2.231,-2.231,-2.231,-2.231,-2.231,-2.231,-2.231,-2.231,-2.231,-2.231,-2.231,-2.231,-2.231,-2.231,-2.231,-2.231,-2.231,-2.231,-2.2388,-1.6887,-1.5757,-1.4736,-1.4691,-1.4065,-1.3909,0.0,-1.7178,-1.896,-2.1317,-2.2933,-2.4217,-2.5143,-2.51,-2.4977,0.0,-2.5253,-2.5887,-2.759,0.0,0.0,0.0,0.0,0.0,0.0,0.0,0.0,0.0,0.0,0.0,0.0,-2.4709,-2.4385,-2.4402,-2.4266,-2.419,-2.419,-2.419,-2.419,-2.419,-2.419,-2.419,-2.4208,-2.4196,-2.3941,-2.3484,0.0,0.0,0.0,-2.231,-2.231,-2.231,-2.231,-2.231,-2.231,-2.231,-2.231,-2.231,-2.231,-2.231,-2.231,-2.231,-2.231,-2.231,-2.231,-2.231,-2.231,-2.231,-2.231,-2.231,-2.231,-2.231,-2.231,-2.231,-2.231,-2.231,-2.231,-2.231,-2.231,-2.231,-2.231,-2.231,-2.231,-2.218,-2.2106,-2.2106,-2.1705,-2.143,-2.143,-2.1181,-2.0991,-2.0991,-2.1554,-2.1945,-2.2077,-2.2106,-2.2135,-2.2282,-2.231,-2.231,-2.231,-2.231,-2.231,-2.231,-2.231,-2.231,-2.231,-2.231,-2.231,-2.231,-2.231,-2.2398,-1.8112,-1.7135,-1.6444,-1.6309,-1.5093,-1.4456,0.0,-1.7418,-1.8672,-2.1661,-2.295,-2.3837,-2.4913,-2.5056,-2.501,-2.501,-2.516,-2.5744,-2.704,0.0,0.0,0.0,0.0,0.0,0.0,0.0,0.0,0.0,0.0,0.0,0.0,-2.4988,-2.4606,-2.4217,-2.4211,-2.419,-2.419,-2.419,-2.419,-2.419,-2.419,-2.419,-2.419,-2.4208,-2.3928,0.0,0.0,0.0,0.0,-2.231,-2.231,-2.231,-2.231,-2.231,-2.231,-2.231,-2.231,-2.231,-2.231,-2.231,-2.231,-2.231,-2.231,-2.231,-2.231,-2.231,-2.231,-2.231,-2.231,-2.231,-2.231,-2.231,-2.231,-2.231,-2.231,-2.231,-2.231,-2.231,-2.231,-2.231,-2.231,-2.231,-2.231,-2.1899,-2.1628,-2.1628,-2.1275,-2.1007,-2.1007,-2.0991,-2.0991,-2.0991,-2.1007,-2.1181,-2.1582,-2.1628,-2.1794,-2.2282,-2.231,-2.231,-2.231,-2.231,-2.231,-2.231,-2.231,-2.231,-2.231,-2.231,-2.231,-2.231,-2.231,-2.231,-1.926,-1.8832,-1.8263,-1.7897,-1.7122,-1.6781,-1.8175,-1.9287,-2.0585,-2.2742,-2.3932,-2.4725,-2.5157,-2.5102,-2.5053,-2.519,0.0,0.0,0.0,0.0,0.0,0.0,0.0,0.0,0.0,0.0,0.0,0.0,0.0,0.0,0.0,-2.4596,-2.4342,-2.4211,-2.4191,-2.419,-2.419,-2.419,-2.419,-2.419,-2.419,-2.419,-2.419,-2.3862,0.0,0.0,0.0,0.0,0.0,-2.231,-2.231,-2.231,-2.231,-2.231,-2.231,-2.231,-2.231,-2.231,-2.231,-2.231,-2.231,-2.231,-2.231,-2.231,-2.231,-2.231,-2.231,-2.231,-2.231,-2.231,-2.231,-2.231,-2.231,-2.231,-2.231,-2.231,-2.231,-2.231,-2.231,-2.231,-2.231,-2.2209,-2.1899,-2.1688,-2.1491,-2.1244,-2.0813,-2.0516,-2.0516,-2.0261,-2.012,-2.012,-2.012,-2.0532,-2.1521,-2.1582,-2.1794,-2.2282,-2.231,-2.231,-2.231,-2.231,-2.231,-2.231,-2.231,-2.231,-2.231,-2.231,-2.2371,-2.259,-2.2807,-2.3032,0.0,-2.0925,-2.0725,-1.9874,-1.8724,-1.8238,-1.9911,-2.0662,-2.1537,-2.3465,-2.4528,-2.5143,-2.5274,-2.5145,-2.5027,-2.5128,0.0,0.0,0.0,0.0,0.0,0.0,0.0,0.0,0.0,0.0,0.0,0.0,0.0,0.0,0.0,-2.4585,-2.4342,-2.4358,-2.4247,-2.419,-2.419,-2.419,-2.419,-2.419,-2.419,-2.419,-2.419,-2.3904,0.0,0.0,0.0,0.0,0.0,-2.231,-2.231,-2.231,-2.231,-2.231,-2.231,-2.231,-2.231,-2.231,-2.231,-2.231,-2.231,-2.231,-2.231,-2.231,-2.231,-2.231,-2.231,-2.231,-2.231,-2.231,-2.231,-2.231,-2.231,-2.231,-2.231,-2.231,-2.231,-2.231,-2.2254,-2.2077,-2.2032,-2.1899,-2.1446,-2.1228,-2.1039,-2.0781,-2.0364,-2.0054,-2.0054,-1.9839,-1.969,-1.969,-1.969,-2.007,-2.1023,-2.1259,-2.1568,-2.2003,-2.2209,-2.231,-2.231,-2.231,-2.231,-2.231,-2.231,-2.231,-2.231,-2.2023,-2.2099,-2.2546,-2.2297,-2.2383,0.0,-2.3215,-2.3532,-2.2111,-2.0155,-1.9207,-2.1625,-2.1688,0.0,-2.3914,-2.4764,-2.5189,-2.5362,-2.5244,-2.5088,-2.5072,0.0,0.0,0.0,0.0,0.0,0.0,0.0,0.0,0.0,0.0,0.0,0.0,0.0,0.0,0.0,-2.4845,-2.4606,-2.4586,-2.434,-2.419,-2.419,-2.419,-2.419,-2.419,-2.419,-2.419,-2.419,-2.417,0.0,0.0,0.0,0.0,0.0,-2.231,-2.231,-2.231,-2.231,-2.231,-2.231,-2.231,-2.231,-2.231,-2.231,-2.231,-2.231,-2.231,-2.231,-2.231,-2.231,-2.231,-2.231,-2.231,-2.231,-2.231,-2.231,-2.231,-2.231,-2.231,-2.231,-2.231,-2.231,-2.231,-2.2163,-2.1688,-2.1582,-2.146,-2.1023,-2.0583,-2.028,-2.0246,-1.9929,-1.969,-1.969,-1.969,-1.969,-1.969,-1.969,-1.9839,-2.0212,-2.0682,-2.115,-2.1582,-2.2003,-2.2282,-2.231,-2.231,-2.231,-2.231,-2.231,-2.231,-2.231,-2.1549,-2.1559,-2.2203,-2.1066,-2.0756,-2.4053,0.0,-2.4372,-2.3631,-2.3296,-2.3089,0.0,-2.3178,-2.3724,-2.4703,0.0,-2.5595,-2.6188,-2.6271,-2.6322,0.0,0.0,0.0,0.0,0.0,0.0,0.0,0.0,0.0,0.0,0.0,0.0,0.0,0.0,0.0,0.0,-2.4845,-2.4588,-2.453,-2.4303,-2.419,-2.419,-2.419,-2.419,-2.419,-2.419,-2.419,-2.419,-2.3937,0.0,0.0,0.0,0.0,-2.231,-2.231,-2.231,-2.231,-2.231,-2.231,-2.231,-2.231,-2.231,-2.231,-2.231,-2.231,-2.231,-2.231,-2.231,-2.231,-2.231,-2.231,-2.231,-2.231,-2.231,-2.231,-2.231,-2.231,-2.231,-2.231,-2.231,-2.231,-2.231,-2.231,-2.2163,-2.1688,-2.1582,-2.1368,-2.0616,-2.0382,-2.0193,-1.9874,-1.9747,-1.969,-1.969,-1.969,-1.969,-1.969,-1.969,-1.9747,-1.9839,-2.0227,-2.0797,-2.1552,-2.1688,-2.1928,-2.2282,-2.231,-2.231,-2.231,-2.231,-2.231,-2.231,-2.1549,-2.1386,-2.1746,-2.0887,-2.0702,-2.4224,-2.4558,-2.4948,-2.4595,-2.4798,-2.4889,-2.4217,0.0,0.0,0.0,0.0,-2.5788,-2.6704,0.0,0.0,0.0,0.0,0.0,0.0,0.0,0.0,0.0,0.0,0.0,0.0,0.0,0.0,0.0,0.0,0.0,0.0,-2.4328,-2.4086,-2.4042,-2.3803,-2.3823,-2.419,-2.419,-2.419,-2.419,-2.419,-2.419,-2.419,-2.3837,0.0,0.0,0.0,0.0,-2.231,-2.231,-2.231,-2.231,-2.231,-2.231,-2.231,-2.231,-2.231,-2.231,-2.231,-2.231,-2.231,-2.231,-2.231,-2.231,-2.231,-2.231,-2.231,-2.231,-2.231,-2.231,-2.231,-2.231,-2.231,-2.231,-2.231,-2.2237,-2.2032,-2.1974,-2.1794,-2.1134,-2.0991,-2.0813,-2.0124,-2.0019,-1.9929,-1.9711,-1.969,-1.969,-1.969,-1.969,-1.969,-1.969,-1.969,-1.969,-1.969,-1.9909,-2.0398,-2.1275,-2.1705,-2.2032,-2.2282,-2.231,-2.231,-2.231,-2.231,-2.231,-2.231,-2.1194,-2.0909,-2.1361,-1.9945,-1.9544,-2.3449,-2.4114,-2.5048,-2.5088,-2.5288,-2.5469,-2.5296,0.0,0.0,0.0,0.0,0.0,0.0,0.0,0.0,0.0,0.0,0.0,0.0,0.0,0.0,0.0,0.0,0.0,0.0,0.0,0.0,0.0,0.0,0.0,0.0,-2.3579,-2.3318,-2.3309,-2.3114,-2.3327,-2.4006,-2.4135,-2.419,-2.419,-2.419,-2.419,-2.419,-2.3837,-2.3522,0.0,0.0,0.0,-2.231,-2.231,-2.231,-2.231,-2.231,-2.231,-2.231,-2.231,-2.231,-2.231,-2.231,-2.231,-2.231,-2.231,-2.231,-2.231,-2.231,-2.231,-2.231,-2.231,-2.231,-2.231,-2.231,-2.231,-2.231,-2.231,-2.231,-2.218,-2.1688,-2.1582,-2.1321,-2.0483,-2.0314,-2.0193,-1.9782,-1.969,-1.969,-1.969,-1.969,-1.969,-1.969,-1.969,-1.969,-1.969,-1.969,-1.969,-1.969,-1.9747,-2.012,-2.0862,-2.1645,-2.2152,-2.2282,-2.231,-2.231,-2.231,-2.2192,-2.2141,-2.2141,-2.0576,-2.0196,-2.0814,-1.8758,-1.8132,-2.2546,-2.3348,-2.4041,-2.4812,-2.526,-2.55,-2.5526,0.0,0.0,0.0,0.0,0.0,0.0,0.0,0.0,0.0,0.0,0.0,0.0,0.0,0.0,0.0,0.0,0.0,0.0,0.0,0.0,0.0,0.0,0.0,0.0,0.0,-2.2488,-2.2475,-2.2817,-2.307,-2.318,-2.3859,-2.419,-2.419,-2.419,-2.419,-2.419,-2.3837,-2.3522,0.0,0.0,-2.2537,-2.231,-2.231,-2.231,-2.231,-2.231,-2.231,-2.231,-2.231,-2.231,-2.231,-2.231,-2.231,-2.231,-2.231,-2.231,-2.231,-2.231,-2.231,-2.231,-2.231,-2.231,-2.231,-2.231,-2.231,-2.231,-2.231,-2.231,-2.218,-2.1688,-2.1582,-2.1321,-2.0483,-2.0314,-2.0193,-1.9782,-1.969,-1.969,-1.969,-1.969,-1.969,-1.969,-1.969,-1.969,-1.969,-1.969,-1.969,-1.969,-2.0,-2.0246,-2.0416,-2.0926,-2.1524,-2.2282,-2.231,-2.231,-2.231,-2.1684,-2.1363,-2.1363,-1.9807,-1.913,-1.9232,-1.8251,-1.7862,-2.1243,-2.2508,-2.3726,-2.4226,-2.4896,-2.5468,-2.5588,0.0,0.0,0.0,0.0,0.0,0.0,0.0,0.0,0.0,0.0,0.0,0.0,0.0,0.0,0.0,0.0,0.0,0.0,0.0,0.0,0.0,0.0,0.0,0.0,0.0,-2.1706,-2.1589,-2.217,-2.2422,-2.2354,-2.3584,-2.419,-2.419,-2.419,-2.419,-2.417,-2.3671,-2.3422,-2.333,0.0,-2.2398,-2.231,-2.231,-2.231,-2.231,-2.231,-2.231,-2.231,-2.231,-2.231,-2.231,-2.231,-2.231,-2.231,-2.231,-2.231,-2.231,-2.231,-2.231,-2.231,-2.231,-2.231,-2.2237,-2.2003,-2.1928,-2.1869,-2.1661,-2.1584,-2.1477,-2.1007,-2.0894,-2.0699,-2.0104,-1.9965,-1.9909,-1.9711,-1.969,-1.969,-1.969,-1.969,-1.969,-1.969,-1.969,-1.969,-1.969,-1.969,-1.969,-1.969,-1.9874,-2.0261,-2.0959,-2.1197,-2.1615,-2.2282,-2.231,-2.2124,-2.1701,-2.1363,-2.0974,-2.0551,-1.9435,-1.8894,-1.8877,-1.8149,-1.7811,-2.0306,-2.1809,-2.3457,-2.3703,0.0,-2.5413,-2.5531,0.0,0.0,0.0,0.0,0.0,0.0,0.0,0.0,0.0,0.0,0.0,0.0,0.0,0.0,0.0,0.0,0.0,0.0,0.0,0.0,0.0,0.0,0.0,0.0,0.0,-2.0912,-2.0721,-2.1382,-2.1652,-2.1492,-2.2923,-2.3731,-2.3914,-2.3914,-2.3914,-2.3895,-2.3056,-2.284,-2.3082,-2.2365,-2.2141,-2.231,-2.231,-2.231,-2.231,-2.231,-2.231,-2.231,-2.231,-2.231,-2.231,-2.231,-2.231,-2.231,-2.231,-2.231,-2.231,-2.231,-2.2304,-2.2281,-2.2281,-2.2207,-2.2041,-2.1811,-2.1764,-2.1705,-2.1385,-2.1229,-2.1023,-2.055,-2.0382,-2.0193,-1.9782,-1.969,-1.969,-1.969,-1.969,-1.969,-1.969,-1.969,-1.969,-1.969,-1.969,-1.969,-1.969,-1.969,-1.969,-1.969,-1.969,-2.0208,-2.1368,-2.146,-2.1658,-2.2106,-2.2237,-2.1955,-2.1221,-2.1008,-2.0534,-1.9731,-1.9012,-1.864,-1.8623,-1.8065,-1.7811,-2.0308,-2.154,-2.2985,-2.3486,-2.4476,0.0,-2.5398,0.0,0.0,0.0,0.0,0.0,0.0,0.0,0.0,0.0,0.0,0.0,0.0,0.0,0.0,0.0,0.0,0.0,0.0,0.0,0.0,0.0,0.0,0.0,0.0,0.0,0.0,-1.9884,-2.0535,-2.0797,-2.0611,-2.151,-2.2354,-2.3107,-2.3107,-2.3107,-2.3052,-2.1675,-2.1397,-2.2,-2.1481,-2.1667,-2.231,-2.231,-2.231,-2.231,-2.231,-2.231,-2.231,-2.231,-2.231,-2.231,-2.231,-2.231,-2.231,-2.231,-2.231,-2.231,-2.231,-2.2308,-2.2302,-2.2302,-2.1899,-2.1596,-2.2111,-2.2237,-2.2237,-2.2209,-2.1869,-2.143,-2.1023,-2.0616,-2.0193,-1.9782,-1.969,-1.969,-1.969,-1.969,-1.969,-1.969,-1.969,-1.969,-1.969,-1.969,-1.969,-1.969,-1.969,-1.969,-1.969,-1.969,-2.0085,-2.0991,-2.1023,-2.1213,-2.1628,-2.2077,-2.1955,-2.1221,-2.0467,-1.9722,-1.8978,-1.8251,-1.7896,-1.7896,-1.7828,-1.7811,-1.8682,-2.0543,-2.2563,-2.2899,0.0,0.0,0.0,0.0,0.0,0.0,0.0,0.0,0.0,0.0,0.0,0.0,0.0,0.0,0.0,0.0,0.0,0.0,0.0,0.0,0.0,0.0,0.0,0.0,0.0,0.0,0.0,0.0,0.0,-1.9821,-2.0527,-2.0541,-1.9748,-2.1106,-2.1675,-2.1438,-2.1987,-2.2154,-2.1989,-2.1238,-2.115,-2.1586,-2.1319,-2.1617,-2.231,-2.231,-2.231,-2.231,-2.231,-2.231,-2.231,-2.231,-2.231,-2.231,-2.231,-2.231,-2.231,-2.231,-2.2106,-2.1928,-2.2209,-2.1923,-2.1484,-2.1505,-2.1323,-2.1247,-2.1649,-2.1407,-2.0975,-2.0731,-2.0565,-2.0364,-2.0208,-2.0035,-1.9874,-1.9726,-1.969,-1.969,-1.969,-1.969,-1.969,-1.969,-1.969,-1.969,-1.969,-1.969,-1.969,-1.969,-1.969,-1.969,-1.969,-1.969,-1.9945,-2.0516,-2.0829,-2.1323,-2.2003,-2.1754,-2.1324,-2.0702,-1.9956,-1.9275,-1.8708,-1.8262,-1.8057,-1.804,-1.7883,-1.7811,-1.8202,-2.0375,-2.2722,0.0,0.0,0.0,0.0,0.0,0.0,0.0,0.0,0.0,0.0,0.0,0.0,0.0,0.0,0.0,0.0,0.0,0.0,0.0,0.0,0.0,0.0,0.0,0.0,0.0,0.0,0.0,0.0,0.0,0.0,0.0,-2.027,-2.0159,-1.9323,-2.0443,-2.0703,-2.0134,-2.0721,-2.1057,-2.1098,-2.0546,-2.0347,-2.0443,-2.0788,-2.1291,-2.186,-2.2164,-2.231,-2.2293,-2.204,-2.209,-2.231,-2.231,-2.231,-2.231,-2.231,-2.231,-2.2282,-2.2135,-2.1853,-2.1628,-2.184,-2.153,-2.1086,-2.091,-2.075,-2.0644,-2.0836,-2.0699,-2.0449,-2.0174,-2.0015,-1.9874,-1.9874,-1.9782,-1.969,-1.969,-1.969,-1.969,-1.969,-1.969,-1.969,-1.969,-1.969,-1.969,-1.969,-1.969,-1.969,-1.969,-1.969,-1.969,-1.969,-1.969,-1.9945,-2.0483,-2.0829,-2.1323,-2.2049,-2.1824,-2.1267,-2.0424,-2.0008,-1.9367,-1.8469,-1.829,-1.8146,-1.8078,-1.79,-1.7726,-1.9246,-2.1291,-2.3465,0.0,0.0,0.0,0.0,0.0,0.0,0.0,0.0,0.0,0.0,0.0,0.0,0.0,0.0,0.0,0.0,0.0,0.0,0.0,0.0,0.0,0.0,0.0,0.0,0.0,0.0,0.0,0.0,0.0,0.0,0.0,-1.9596,0.0,-1.9305,-1.9305,-1.9305,-1.9305,-1.9305,-1.9711,-2.0448,-1.9465,-1.8752,-1.8394,-1.9779,-2.0541,-2.0877,-2.1877,-2.2293,-2.2226,-2.1465,-2.1634,-2.2293,-2.2293,-2.2293,-2.2293,-2.2265,-2.231,-2.2209,-2.1764,-2.1582,-2.1538,-2.1118,-2.118,-2.1279,-2.0764,-2.0161,-1.9711,-1.969,-2.0345,-2.1007,-2.1007,-2.0616,-2.028,-2.028,-1.9965,-1.969,-1.969,-1.969,-1.969,-1.969,-1.969,-1.969,-1.969,-1.969,-1.969,-1.969,-1.969,-1.969,-1.969,-1.969,-1.969,-1.969,-1.969,-2.0085,-2.0926,-2.0991,-2.1181,-2.1582,-2.2307,-2.196,-2.0424,-2.0736,-1.9984,-1.8208,-1.8208,-1.8078,-1.7811,-1.7811,-1.7618,-1.857,-2.0061,0.0,0.0,0.0,0.0,0.0,0.0,0.0,0.0,0.0,0.0,0.0,0.0,0.0,0.0,0.0,0.0,0.0,0.0,0.0,0.0,0.0,0.0,0.0,0.0,0.0,0.0,0.0,0.0,0.0,0.0,0.0,0.0,-1.9662,0.0,-1.9305,-1.9305,-1.9305,-1.9305,-1.9305,-1.934,-1.943,-1.9126,-1.9,-1.9044,-1.945,-1.9846,-2.0246,-2.0559,-2.0677,-2.066,-2.045,-2.0475,-2.0677,-2.0677,-2.1042,-2.1488,-2.1144,-2.1363,-2.1781,-2.1531,-2.1199,-2.0892,-2.0991,-2.0922,-2.0827,-2.0876,-2.05,-2.0054,-1.9782,-1.9874,-2.0085,-2.0085,-1.998,-1.9874,-1.9874,-1.9782,-1.969,-1.969,-1.969,-1.969,-1.969,-1.969,-1.969,-1.969,-1.969,-1.969,-1.969,-1.969,-1.969,-1.969,-1.969,-1.969,-1.969,-1.969,-2.0085,-2.0926,-2.0991,-2.1323,-2.2061,-2.1807,-2.1351,-2.0688,-2.0273,-1.9635,-1.877,-1.8566,-1.8351,-1.8078,-1.7883,-1.7618,-1.9245,0.0,0.0,0.0,0.0,0.0,0.0,0.0,0.0,0.0,0.0,0.0,0.0,0.0,0.0,0.0,0.0,0.0,0.0,0.0,0.0,0.0,0.0,0.0,0.0,0.0,0.0,0.0,0.0,0.0,0.0,0.0,0.0,0.0,-1.9649,0.0,-1.9305,-1.9305,-1.9305,-1.9305,-1.9305,-1.9246,-1.9135,-1.9035,-1.9075,-1.9193,-1.926,-1.9561,-1.9985,-1.9664,-1.9731,-1.9968,-1.9688,-1.9731,-2.0002,-2.0002,-2.022,-2.0508,-2.0527,-2.0688,-2.0996,-2.1054,-2.087,-2.0587,-2.0512,-2.0357,-2.0266,-2.0277,-2.0193,-1.9939,-1.9416,-1.9495,-1.969,-1.969,-1.969,-1.969,-1.969,-1.969,-1.969,-1.969,-1.969,-1.969,-1.969,-1.953,-1.9369,-1.9369,-1.9207,-1.9043,-1.9043,-1.9244,-1.9369,-1.9369,-1.9566,-1.969,-1.969,-1.969,-1.9873,-2.0352,-2.0496,-2.074,-2.1161,-2.1291,-2.1135,-2.0643,-2.0061,-1.9385,-1.8697,-1.8508,-1.831,-1.8035,-1.7878,-1.7566,0.0,0.0,0.0,0.0,0.0,0.0,0.0,0.0,0.0,0.0,0.0,0.0,0.0,0.0,0.0,0.0,0.0,0.0,0.0,0.0,0.0,0.0,0.0,0.0,0.0,0.0,0.0,0.0,0.0,0.0,0.0,0.0,0.0,0.0,0.0,0.0,-1.9305,-1.9305,-1.9305,0.0,-1.9305,-1.9305,-1.9289,-1.9101,-1.9001,-1.8967,-1.9125,-1.9401,-1.9748,-1.908,-1.9198,-1.9731,-1.9063,-1.9215,-1.9799,-1.9799,-1.9663,-1.9518,-2.0096,-2.015,-2.0048,-2.0409,-2.0522,-2.04,-1.9884,-1.9681,-1.9581,-1.9325,-1.9411,-1.9461,-1.8912,-1.9196,-1.9615,-1.9675,-1.969,-1.969,-1.969,-1.969,-1.969,-1.969,-1.9639,-1.9639,-1.9639,-1.9169,-1.8817,-1.8817,-1.8419,-1.8106,-1.8106,-1.8535,-1.8855,-1.8893,-1.9332,-1.9639,-1.969,-1.969,-1.9602,-1.94,-1.9704,-1.972,-1.947,-2.0756,-2.1088,-2.0304,-1.9942,-1.9245,-1.8187,-1.8187,-1.8061,-1.7811,-1.7811,-1.7432,0.0,-2.0518,0.0,0.0,0.0,0.0,0.0,0.0,0.0,0.0,0.0,0.0,0.0,0.0,0.0,0.0,0.0,0.0,0.0,0.0,0.0,0.0,0.0,0.0,0.0,0.0,0.0,0.0,0.0,0.0,0.0,0.0,0.0,-1.9614,0.0,-1.9335,-1.9305,-1.9305,-1.9305,0.0,-1.9305,-1.9305,-1.9289,-1.9261,-1.9033,-1.8659,-1.8276,-1.8178,-1.8245,-1.8115,-1.8132,-1.8245,-1.8115,-1.8132,-1.8262,-1.8262,-1.8593,-1.9001,-1.8831,-1.9281,-1.9908,-1.9889,-1.9878,-1.9884,-1.9726,-1.9515,-1.9354,-1.9547,-1.9159,-1.8789,-1.9346,-1.9196,-1.9046,-1.9555,-1.969,-1.969,-1.969,-1.969,-1.969,-1.969,-1.9369,-1.908,-1.908,-1.8612,-1.8263,-1.8263,-1.8185,-1.8106,-1.8106,-1.8224,-1.8419,-1.8855,-1.9006,-1.9244,-1.9639,-1.969,-1.9602,-1.94,-1.945,-1.9404,-1.9123,-1.9896,-2.0089,-1.9549,-1.9447,-1.9017,-1.8187,-1.8187,-1.8061,-1.7811,-1.7811,-1.7432,0.0,0.0,0.0,0.0,0.0,0.0,0.0,0.0,0.0,0.0,0.0,0.0,0.0,0.0,0.0,0.0,0.0,0.0,0.0,0.0,0.0,0.0,0.0,0.0,0.0,0.0,0.0,0.0,0.0,0.0,0.0,-1.9687,-1.9332,-1.9138,-1.8933,-1.8618,-1.817,-1.8151,-1.8151,-1.8151,-1.7903,-1.8104,-1.8739,-1.9016,-1.8807,-1.8208,-1.8057,-1.7927,-1.7811,-1.7811,-1.7811,-1.7811,-1.7811,-1.7811,-1.7811,-1.7811,-1.7846,-1.7906,-1.802,-1.8194,-1.8439,-1.8915,-1.9086,-1.9159,-1.9588,-1.9007,-1.8163,-1.7881,-1.793,-1.8094,-1.8245,-1.8493,-1.8792,-1.9136,-1.945,-1.9639,-1.9369,-1.953,-1.9566,-1.9043,-1.893,-1.8817,-1.8574,-1.8066,-1.7626,-1.7394,-1.7353,-1.7353,-1.7353,-1.7344,-1.7554,-1.8064,-1.8342,-1.8724,-1.9266,-1.9284,-1.903,-1.8631,-1.847,-1.8172,-1.7725,-1.8365,-1.8766,-1.886,-1.8683,-1.8391,-1.8014,-1.8014,-1.7927,-1.7811,-1.7811,-1.7432,0.0,0.0,0.0,0.0,0.0,0.0,0.0,0.0,0.0,0.0,0.0,0.0,0.0,0.0,0.0,0.0,0.0,0.0,0.0,0.0,0.0,0.0,0.0,0.0,0.0,0.0,0.0,0.0,0.0,0.0,-2.0011,-1.9327,-1.872,-1.8273,-1.8161,-1.7588,-1.6492,-1.6665,-1.6775,-1.6766,-1.6401,-1.6785,-1.7841,-1.8312,-1.8319,-1.7949,-1.8125,-1.8057,-1.7811,-1.7811,-1.7811,-1.7811,-1.7811,-1.7811,-1.7789,-1.7743,-1.7361,-1.6946,-1.746,-1.7317,-1.703,-1.7911,-1.8199,-1.8318,-1.9132,-1.8258,-1.6846,-1.6012,-1.6568,-1.7279,-1.6965,-1.7697,-1.8568,-1.8672,-1.9125,-1.9442,-1.9006,-1.9169,-1.9169,-1.8263,-1.838,-1.8458,-1.7907,-1.7463,-1.6993,-1.6552,-1.6522,-1.6522,-1.6522,-1.6509,-1.6665,-1.7114,-1.7612,-1.8158,-1.8714,-1.8617,-1.8298,-1.7727,-1.7395,-1.6899,-1.625,-1.6783,-1.7453,-1.8109,-1.7913,-1.7833,-1.7861,-1.7833,-1.7833,-1.7861,-1.7833,-1.7432,0.0,0.0,0.0,0.0,0.0,0.0,0.0,0.0,0.0,0.0,0.0,0.0,0.0,0.0,0.0,0.0,0.0,0.0,0.0,0.0,0.0,0.0,0.0,0.0,0.0,0.0,0.0,0.0,0.0,0.0,-1.8877,-1.8722,-1.8089,-1.6905,-1.7238,-1.6593,-1.4843,-1.5741,-1.6207,-1.6224,-1.6611,-1.6761,-1.6712,-1.6683,-1.733,-1.8489,-1.829,-1.8057,-1.7811,-1.7811,-1.7811,-1.7811,-1.7811,-1.7811,-1.7749,-1.7479,-1.732,-1.7199,-1.6988,-1.7243,-1.763,-1.7496,-1.7379,-1.7359,-1.7837,-1.7386,-1.6601,-1.5966,-1.5914,-1.6278,-1.7294,-1.7697,-1.7999,-1.8568,-1.8861,-1.9006,-1.893,-1.8574,-1.8263,-1.8145,-1.7787,-1.7353,-1.6795,-1.6637,-1.6595,-1.6522,-1.6522,-1.6522,-1.6522,-1.6489,-1.6526,-1.6613,-1.6984,-1.7497,-1.8144,-1.7973,-1.7787,-1.7697,-1.7133,-1.6503,-1.5871,-1.6246,-1.6628,-1.7011,-1.7529,-1.7905,-1.8146,-1.7905,-1.7927,-1.8146,-1.7905,-1.7432,0.0,0.0,0.0,0.0,0.0,0.0,0.0,0.0,0.0,0.0,0.0,0.0,0.0,0.0,0.0,0.0,0.0,0.0,0.0,0.0,0.0,0.0,0.0,0.0,0.0,0.0,0.0,0.0,0.0,-1.9249,-1.6812,-1.7298,-1.7278,-1.6459,-1.6241,-1.5677,-1.4734,-1.5222,-1.5442,-1.5316,-1.5937,-1.6172,-1.606,-1.634,-1.669,-1.7076,-1.6846,-1.6683,-1.6576,-1.6576,-1.6813,-1.7168,-1.7168,-1.7311,-1.7502,-1.7368,-1.706,-1.6722,-1.6581,-1.6576,-1.6661,-1.6512,-1.6427,-1.6397,-1.6562,-1.6428,-1.6129,-1.5875,-1.5788,-1.5875,-1.6184,-1.6749,-1.7263,-1.7332,-1.7679,-1.7987,-1.7987,-1.8066,-1.8027,-1.7706,-1.7229,-1.6795,-1.6552,-1.6258,-1.6158,-1.6471,-1.6258,-1.617,-1.6471,-1.6245,-1.6039,-1.6057,-1.6752,-1.7306,-1.7616,-1.7671,-1.7697,-1.7697,-1.6757,-1.6069,-1.5814,-1.6108,-1.6448,-1.6789,-1.7422,-1.7876,-1.8187,-1.8229,-1.8229,-1.8187,-1.8078,-1.7367,0.0,0.0,0.0,0.0,0.0,0.0,0.0,0.0,0.0,0.0,0.0,0.0,0.0,0.0,0.0,0.0,0.0,0.0,0.0,0.0,0.0,0.0,0.0,0.0,0.0,0.0,0.0,0.0,0.0,-1.7889,-1.5344,-1.6003,-1.6324,-1.6036,-1.5489,-1.5121,-1.4928,-1.4914,-1.4823,-1.4664,-1.5164,-1.5398,-1.5417,-1.5773,-1.5711,-1.5419,-1.5757,-1.5848,-1.5753,-1.5525,-1.5741,-1.6285,-1.6576,-1.6869,-1.7166,-1.7182,-1.685,-1.6394,-1.6219,-1.6011,-1.5799,-1.5799,-1.5799,-1.5799,-1.5799,-1.5799,-1.577,-1.5609,-1.558,-1.5463,-1.5074,-1.5829,-1.6662,-1.6368,-1.6804,-1.7271,-1.7105,-1.7435,-1.7585,-1.7146,-1.6752,-1.6522,-1.6522,-1.6183,-1.5994,-1.6271,-1.5944,-1.5827,-1.6228,-1.5819,-1.548,-1.5505,-1.6275,-1.6811,-1.6848,-1.7073,-1.7296,-1.7428,-1.6398,-1.5799,-1.5799,-1.6039,-1.6367,-1.6789,-1.7302,-1.7776,-1.8208,-1.841,-1.8391,-1.8187,-1.8107,-1.7334,0.0,0.0,0.0,0.0,0.0,0.0,0.0,0.0,0.0,0.0,0.0,0.0,0.0,0.0,0.0,0.0,0.0,0.0,0.0,0.0,0.0,0.0,0.0,0.0,0.0,0.0,0.0,0.0,0.0,-1.5389,-1.521,-1.5254,-1.5285,-1.526,-1.5222,-1.5127,-1.5007,-1.4822,-1.4645,-1.4499,-1.4554,-1.4561,-1.4561,-1.4199,-1.4037,-1.4114,-1.594,-1.6565,-1.6174,-1.5297,-1.4947,-1.5101,-1.6251,-1.6695,-1.6728,-1.6808,-1.6815,-1.6686,-1.6067,-1.5799,-1.5799,-1.5799,-1.5799,-1.5799,-1.5799,-1.5799,-1.5682,-1.5122,-1.4943,-1.4897,-1.4613,-1.5432,-1.6332,-1.6297,-1.6804,-1.7146,-1.6637,-1.6552,-1.6552,-1.6552,-1.6522,-1.6522,-1.6522,-1.6497,-1.6308,-1.5806,-1.5654,-1.5647,-1.5711,-1.521,-1.4868,-1.4926,-1.5207,-1.5462,-1.5597,-1.5781,-1.6129,-1.6726,-1.6144,-1.5799,-1.5799,-1.5827,-1.6136,-1.6789,-1.7069,-1.7563,-1.8187,-1.8208,-1.8208,-1.8187,-1.7864,-1.7356,0.0,0.0,0.0,0.0,0.0,0.0,0.0,0.0,0.0,0.0,0.0,0.0,0.0,0.0,0.0,0.0,0.0,0.0,0.0,0.0,0.0,0.0,0.0,0.0,0.0,0.0,0.0,0.0,0.0,0.0,-1.5334,-1.5323,-1.5306,-1.5265,-1.5265,-1.521,-1.5133,-1.4936,-1.4794,-1.4747,-1.4589,-1.4488,-1.4488,-1.4078,-1.3913,-1.392,-1.4413,-1.4555,-1.4415,-1.4072,-1.3947,-1.402,-1.4927,-1.5587,-1.6059,-1.6096,-1.6109,-1.6108,-1.587,-1.5799,-1.5799,-1.5799,-1.5799,-1.5799,-1.5799,-1.5787,-1.5743,-1.5533,-1.4656,-1.388,-1.4154,-1.5017,-1.5894,-1.6336,-1.6625,-1.671,-1.6552,-1.6522,-1.6522,-1.6522,-1.6522,-1.6522,-1.6522,-1.5868,-1.5362,-1.5252,-1.457,-1.4227,-1.4623,-1.4478,-1.4365,-1.44,-1.5318,-1.5813,-1.5541,-1.6026,-1.6458,-1.6697,-1.6129,-1.5799,-1.5799,-1.5799,-1.6011,-1.6474,-1.6575,-1.7134,-1.8208,-1.8371,-1.8371,-1.8187,-1.7859,-1.7014,0.0,0.0,0.0,0.0,0.0,0.0,0.0,0.0,0.0,0.0,0.0,0.0,0.0,0.0,0.0,0.0,0.0,0.0,0.0,0.0,0.0,0.0,0.0,0.0,0.0,0.0,0.0,0.0,0.0,0.0,-1.4943,-1.4923,-1.4772,-1.4446,-1.443,-1.4372,-1.4299,-1.4159,-1.4055,-1.3987,-1.3809,-1.3713,-1.3699,-1.3564,-1.3496,-1.35,-1.3424,-1.3396,-1.3396,-1.3396,-1.3396,-1.3475,-1.4222,-1.4778,-1.5218,-1.5583,-1.5686,-1.5652,-1.5752,-1.5799,-1.5799,-1.5799,-1.5653,-1.5536,-1.5728,-1.5802,-1.575,-1.5432,-1.431,-1.3272,-1.3696,-1.4553,-1.5518,-1.63,-1.6522,-1.6522,-1.6522,-1.6522,-1.6522,-1.6522,-1.6337,-1.6194,-1.6194,-1.5281,-1.4526,-1.4422,-1.3599,-1.3122,-1.3544,-1.3572,-1.3599,-1.3816,-1.4813,-1.5401,-1.5202,-1.5881,-1.6398,-1.6547,-1.6197,-1.5955,-1.5955,-1.5856,-1.5955,-1.6301,-1.6301,-1.6783,-1.7721,-1.8115,-1.8094,-1.7721,-1.7603,-1.6466,0.0,0.0,0.0,0.0,0.0,0.0,0.0,0.0,0.0,0.0,0.0,0.0,0.0,0.0,0.0,0.0,0.0,0.0,0.0,0.0,0.0,0.0,0.0,0.0,0.0,0.0,0.0,0.0,0.0,-1.4887,-1.4009,-1.3967,-1.3573,-1.2729,-1.2691,-1.264,-1.2511,-1.2502,-1.239,-1.2223,-1.2195,-1.217,-1.2104,-1.249,-1.2679,-1.2688,-1.3201,-1.3396,-1.3396,-1.3396,-1.3396,-1.3481,-1.4191,-1.4314,-1.4212,-1.5252,-1.5467,-1.5304,-1.5641,-1.5769,-1.5769,-1.5755,-1.5374,-1.5016,-1.5591,-1.5777,-1.5595,-1.473,-1.3855,-1.319,-1.3229,-1.4061,-1.518,-1.6233,-1.6509,-1.6466,-1.6454,-1.6454,-1.6454,-1.6454,-1.5971,-1.554,-1.554,-1.4702,-1.3833,-1.3234,-1.2751,-1.2465,-1.2547,-1.243,-1.2623,-1.3219,-1.3649,-1.4052,-1.447,-1.5168,-1.5805,-1.6258,-1.6301,-1.6301,-1.6301,-1.5983,-1.5955,-1.6274,-1.6258,-1.6421,-1.6763,-1.7389,-1.7365,-1.6815,-1.7012,-1.574,-1.8898,0.0,0.0,0.0,0.0,0.0,0.0,0.0,0.0,0.0,0.0,0.0,0.0,0.0,0.0,0.0,0.0,0.0,0.0,0.0,0.0,0.0,0.0,0.0,0.0,0.0,0.0,0.0,-1.4366,-1.4001,-1.3181,-1.3123,-1.3017,-1.2783,-1.2723,-1.2676,-1.264,-1.255,-1.2451,-1.2343,-1.2246,-1.217,-1.2104,-1.1953,-1.1901,-1.1959,-1.2961,-1.3388,-1.3405,-1.3395,-1.3396,-1.343,-1.3633,-1.3717,-1.3762,-1.4079,-1.4194,-1.4283,-1.471,-1.4964,-1.5071,-1.514,-1.5107,-1.5074,-1.5136,-1.4998,-1.4823,-1.4558,-1.3873,-1.3314,-1.3745,-1.4374,-1.5053,-1.5756,-1.6233,-1.6311,-1.5562,-1.5393,-1.5393,-1.5393,-1.494,-1.4417,-1.4055,-1.3395,-1.2774,-1.234,-1.1737,-1.1369,-1.1425,-1.174,-1.2161,-1.2686,-1.3408,-1.4052,-1.447,-1.5168,-1.5805,-1.6258,-1.6528,-1.6554,-1.6301,-1.6219,-1.608,-1.5926,-1.5609,-1.5623,-1.6095,-1.6732,-1.696,-1.6773,-1.5827,-1.4626,0.0,0.0,0.0,0.0,0.0,0.0,0.0,-1.8351,0.0,0.0,0.0,0.0,0.0,0.0,0.0,0.0,0.0,0.0,0.0,0.0,0.0,0.0,0.0,0.0,0.0,0.0,0.0,-1.4496,-1.412,-1.3428,-1.228,-1.1907,-1.1719,-1.1719,-1.1674,-1.1668,-1.1651,-1.1573,-1.1482,-1.1409,-1.1295,-1.1217,-1.1137,-1.1116,-1.1094,-1.1153,-1.2048,-1.262,-1.293,-1.2823,-1.3025,-1.3379,-1.3277,-1.3207,-1.3191,-1.3368,-1.3329,-1.3252,-1.38,-1.4372,-1.4787,-1.4513,-1.4351,-1.4328,-1.4502,-1.4278,-1.3973,-1.3973,-1.3604,-1.3323,-1.3946,-1.4324,-1.4702,-1.5255,-1.5417,-1.5335,-1.4771,-1.4286,-1.4081,-1.4293,-1.3836,-1.3342,-1.3065,-1.2362,-1.1737,-1.1521,-1.1005,-1.0676,-1.0679,-1.1132,-1.1653,-1.2138,-1.2871,-1.3643,-1.4438,-1.5168,-1.5831,-1.6474,-1.6825,-1.685,-1.6528,-1.6367,-1.6136,-1.5799,-1.5551,-1.5418,-1.5507,-1.5864,-1.6126,-1.6262,-1.5031,-1.4109,0.0,0.0,0.0,0.0,0.0,0.0,-1.8392,-1.8039,0.0,0.0,0.0,0.0,0.0,0.0,0.0,0.0,0.0,0.0,0.0,0.0,0.0,0.0,0.0,0.0,0.0,-1.5133,-1.5024,-1.4898,-1.4015,-1.2862,-1.1447,-1.0631,-1.0203,-1.0204,-1.0195,-1.0201,-1.0195,-1.0207,-1.0128,-0.9997,-0.9933,-0.9875,-0.9803,-1.0148,-1.0288,-1.0309,-1.0784,-1.1398,-1.2028,-1.1891,-1.2423,-1.3329,-1.3067,-1.2797,-1.2593,-1.2919,-1.2689,-1.2264,-1.2805,-1.3694,-1.4443,-1.375,-1.3369,-1.3278,-1.3822,-1.3633,-1.3198,-1.3198,-1.3198,-1.3311,-1.3871,-1.4035,-1.4211,-1.4625,-1.444,-1.4125,-1.3895,-1.3189,-1.2704,-1.3006,-1.2663,-1.233,-1.2247,-1.1459,-1.084,-1.084,-1.0518,-1.0283,-1.0283,-1.0725,-1.1169,-1.1664,-1.2174,-1.2998,-1.4328,-1.5095,-1.5854,-1.6747,-1.7101,-1.715,-1.6815,-1.6474,-1.6136,-1.5799,-1.5741,-1.5477,-1.4968,-1.4941,-1.5153,-1.5504,-1.4485,-1.3903,-2.0474,-2.0108,-1.9598,0.0,0.0,0.0,0.0,-1.6159,0.0,0.0,0.0,0.0,0.0,0.0,0.0,0.0,0.0,0.0,0.0,0.0,0.0,0.0,0.0,0.0,0.0,-1.4924,-1.4538,-1.357,-1.2241,-1.1396,-1.1261,-1.0582,-1.0202,-1.0203,-1.0193,-1.0209,-1.0195,-1.0207,-1.0128,-0.9997,-0.9933,-0.9875,-0.9791,-0.9712,-0.9618,-0.9549,-1.0117,-1.0403,-1.0491,-1.1037,-1.1988,-1.3049,-1.2778,-1.2514,-1.2251,-1.2058,-1.1793,-1.1456,-1.1228,-1.1731,-1.2482,-1.243,-1.2703,-1.3087,-1.3318,-1.3301,-1.3198,-1.3198,-1.3198,-1.3223,-1.3336,-1.3722,-1.4037,-1.3677,-1.4183,-1.4289,-1.2625,-1.2441,-1.2257,-1.112,-1.1098,-1.1175,-1.0805,-1.0577,-1.04,-1.04,-1.0332,-1.0283,-1.0283,-1.0725,-1.1046,-1.1132,-1.1945,-1.2894,-1.3854,-1.4903,-1.5854,-1.6747,-1.7101,-1.715,-1.6815,-1.6474,-1.6136,-1.5799,-1.5418,-1.4876,-1.4117,-1.4456,-1.4786,-1.5167,-1.3954,-1.3375,0.0,0.0,-1.9663,-1.9503,0.0,0.0,0.0,0.0,-1.5415,0.0,0.0,0.0,0.0,0.0,0.0,0.0,0.0,0.0,0.0,0.0,0.0,0.0,0.0,0.0,0.0,-1.4897,-1.4121,-1.2801,-1.2255,-1.1704,-1.1037,-1.0837,-1.058,-1.0213,-1.0205,-1.0194,-1.0195,-1.0202,-1.0157,-1.0057,-0.9949,-0.9875,-0.985,-0.9605,-0.9421,-0.932,-0.9547,-0.9789,-1.0005,-1.0184,-1.1025,-1.2241,-1.2098,-1.2003,-1.1915,-1.1791,-1.1376,-1.0821,-1.0666,-1.0899,-1.1308,-1.1372,-1.1928,-1.259,-1.2751,-1.2985,-1.3198,-1.3198,-1.3198,-1.3163,-1.2908,-1.3069,-1.3192,-1.2668,-1.2779,-1.2655,-1.164,-1.1443,-1.1225,-1.0439,-1.0505,-1.0572,-1.0361,-1.0283,-1.0283,-1.0283,-1.0283,-1.0283,-1.0283,-1.0505,-1.0829,-1.1356,-1.1847,-1.2707,-1.403,-1.484,-1.5619,-1.6501,-1.6866,-1.6901,-1.6554,-1.6382,-1.6037,-1.5448,-1.4814,-1.431,-1.3901,-1.361,-1.3641,-1.4035,-1.3035,-1.2594,0.0,0.0,0.0,0.0,0.0,-1.7812,0.0,0.0,0.0,-1.4908,0.0,0.0,0.0,0.0,0.0,0.0,0.0,0.0,0.0,0.0,0.0,0.0,0.0,0.0,0.0,-1.4135,-1.3413,-1.267,-1.2794,-1.2463,-1.1507,-1.1339,-1.1002,-1.0423,-1.0268,-1.0195,-1.0203,-1.0197,-1.0163,-1.0094,-0.9965,-0.9893,-0.9887,-0.9628,-0.9421,-0.9303,-0.9119,-0.9321,-0.9719,-0.9318,-0.9876,-1.101,-1.1205,-1.1438,-1.1622,-1.1568,-1.1075,-1.0409,-1.0462,-1.0509,-1.0556,-1.0709,-1.1343,-1.207,-1.2119,-1.2467,-1.2836,-1.2896,-1.2943,-1.2826,-1.2473,-1.2365,-1.2246,-1.1774,-1.1394,-1.1094,-1.0905,-1.0649,-1.039,-1.0322,-1.0283,-1.0283,-1.0283,-1.0283,-1.0283,-1.0283,-1.0283,-1.0283,-1.0283,-1.039,-1.0736,-1.1542,-1.1811,-1.2602,-1.4219,-1.4744,-1.5374,-1.6231,-1.6554,-1.6581,-1.6313,-1.6148,-1.5767,-1.5104,-1.4124,-1.3618,-1.3618,-1.2556,-1.2361,-1.2962,-1.22,-1.1802,0.0,0.0,0.0,0.0,-1.8335,0.0,0.0,0.0,-1.3373,-1.1987,0.0,0.0,0.0,0.0,0.0,0.0,0.0,0.0,0.0,0.0,0.0,0.0,0.0,0.0,0.0,0.0,-1.1998,-1.3684,-1.2757,-1.2626,-1.3739,-1.2157,-1.1198,-1.1177,-1.0549,-1.0206,-1.0205,-1.0206,-1.0163,-1.0094,-0.9965,-0.9893,-0.9887,-0.9628,-0.9421,-0.9275,-0.897,-0.884,-0.8821,-0.8417,-0.8589,-0.9207,-1.0142,-1.085,-1.1296,-1.089,-1.0586,-1.0347,-1.0072,-0.9969,-1.0107,-1.0756,-1.1369,-1.1781,-1.1376,-1.1385,-1.1578,-1.1898,-1.1957,-1.1957,-1.1884,-1.1884,-1.1737,-1.1207,-1.1394,-1.1479,-1.0582,-1.0649,-1.0791,-1.039,-1.0283,-1.0283,-1.0283,-1.0283,-1.0283,-1.0283,-1.0283,-1.0283,-1.0283,-1.0649,-1.0943,-1.1094,-1.1872,-1.2824,-1.3808,-1.4561,-1.5374,-1.6231,-1.6355,-1.634,-1.6301,-1.5623,-1.518,-1.5104,-1.349,-1.266,-1.266,-1.1355,-1.149,-1.2962,-1.1808,-1.116,0.0,0.0,0.0,0.0,0.0,0.0,0.0,0.0,-1.3903,0.0,0.0,0.0,0.0,0.0,0.0,0.0,0.0,0.0,0.0,0.0,0.0,0.0,0.0,0.0,0.0,0.0,0.0,0.0,0.0,-1.2587,-1.3676,-1.2902,-1.2074,-1.1326,-1.1079,-1.0708,-1.0207,-1.0208,-1.0153,-1.0048,-0.9949,-0.9844,-0.9727,-0.9573,-0.9385,-0.9169,-0.8917,-0.8676,-0.844,-0.8075,-0.8199,-0.866,-0.894,-0.9557,-1.029,-1.05,-1.0228,-0.9676,-0.9532,-0.9487,-0.9527,-0.9666,-1.0082,-1.0527,-1.0654,-1.093,-1.1277,-1.1684,-1.1811,-1.1737,-1.1431,-1.1356,-1.1207,-1.0725,-1.0764,-1.0878,-1.0725,-1.0649,-1.0611,-1.0687,-1.0505,-1.0283,-1.0283,-1.0283,-1.0283,-1.0283,-1.0283,-1.0283,-1.0283,-1.0725,-1.1132,-1.1431,-1.2307,-1.3234,-1.4141,-1.4741,-1.5345,-1.5983,-1.6011,-1.5883,-1.5623,-1.5059,-1.4477,-1.3888,-1.2698,-1.1846,-1.1284,-1.0185,-0.9872,-1.0325,-1.0273,-1.0036,-1.9069,0.0,0.0,0.0,0.0,0.0,0.0,0.0,0.0,0.0,0.0,0.0,0.0,0.0,0.0,0.0,0.0,0.0,0.0,0.0,0.0,0.0,0.0,0.0,0.0,0.0,0.0,0.0,0.0,0.0,-1.3952,-1.3653,-1.2881,-1.1607,-1.1527,-1.1074,-1.0172,-1.0191,-1.0127,-0.9997,-0.9897,-0.9767,-0.9591,-0.9447,-0.9293,-0.9078,-0.8807,-0.8518,-0.8201,-0.7809,-0.7806,-0.8025,-0.7789,-0.8116,-0.883,-0.9976,-0.9906,-0.9155,-0.8881,-0.8916,-0.9049,-0.8789,-0.8988,-0.9404,-0.9765,-1.0259,-1.0753,-1.1101,-1.1296,-1.1292,-1.0905,-1.0802,-1.0764,-1.0544,-1.0505,-1.0582,-1.0943,-1.084,-1.0725,-1.0802,-1.0649,-1.039,-1.0118,-1.0205,-1.0283,-1.0283,-1.0283,-1.0361,-1.0467,-1.0905,-1.1431,-1.1957,-1.2787,-1.3637,-1.4424,-1.4876,-1.5212,-1.5515,-1.5265,-1.4961,-1.4602,-1.4279,-1.3641,-1.2659,-1.1753,-1.0814,-0.987,-0.8695,-0.7965,-0.7691,-0.863,-0.8775,0.0,0.0,0.0,-1.6464,0.0,0.0,0.0,0.0,-1.2662,0.0,0.0,0.0,0.0,0.0,0.0,0.0,0.0,0.0,0.0,0.0,0.0,0.0,0.0,0.0,0.0,0.0,0.0,0.0,0.0,0.0,-1.5427,-1.4473,-1.3384,-1.2305,-1.1778,-1.1049,-1.0117,-1.0178,-1.0127,-0.9992,-0.98,-0.9668,-0.9583,-0.9258,-0.9099,-0.9068,-0.8607,-0.8293,-0.8061,-0.7472,-0.7125,-0.6934,-0.6727,-0.6669,-0.6963,-0.9116,-0.9613,-0.9047,-0.8081,-0.8206,-0.8783,-0.8579,-0.8558,-0.8623,-0.8505,-0.9018,-0.9665,-0.9648,-0.9989,-1.0361,-1.0322,-1.0322,-1.0428,-1.0867,-1.0981,-1.0981,-1.1019,-1.1394,-1.1479,-1.0505,-1.0687,-1.0667,-0.9677,-0.9961,-1.0283,-1.0283,-1.0283,-1.0467,-1.0905,-1.1431,-1.1957,-1.2437,-1.3319,-1.4052,-1.447,-1.4876,-1.5023,-1.483,-1.3933,-1.3382,-1.3356,-1.3156,-1.2646,-1.1763,-1.0576,-0.9489,-0.854,-0.6774,-0.5906,-0.5906,-0.7102,-0.7453,0.0,0.0,-1.6906,-1.6131,0.0,0.0,0.0,0.0,0.0,0.0,0.0,0.0,0.0,0.0,0.0,0.0,0.0,0.0,0.0,0.0,0.0,0.0,0.0,0.0,0.0,0.0,0.0,0.0,0.0,0.0,0.0,-1.4521,-1.3982,-1.2984,-1.2479,-1.1824,-1.0966,-1.046,-1.0108,-0.9935,-0.9782,-0.9603,-0.9403,-0.9199,-0.9011,-0.8801,-0.838,-0.8007,-0.7665,-0.7191,-0.6878,-0.6689,-0.6633,-0.6604,-0.6687,-0.7454,-0.718,-0.6676,-0.798,-0.8508,-0.8592,-0.8527,-0.8094,-0.7719,-0.824,-0.8412,-0.8511,-0.9062,-0.9521,-0.9928,-1.0287,-1.0576,-1.0905,-1.1394,-1.1542,-1.1616,-1.1909,-1.1616,-1.1282,-1.1292,-1.0878,-1.0428,-1.0079,-1.0166,-1.0166,-0.9843,-1.0079,-1.0467,-1.0943,-1.1468,-1.2079,-1.2822,-1.3729,-1.447,-1.4845,-1.4907,-1.4691,-1.4184,-1.3612,-1.3178,-1.2898,-1.2616,-1.1893,-1.0726,-0.9777,-0.8593,-0.7106,-0.5975,-0.5136,-0.461,-0.5035,-0.5583,-1.6621,-1.6199,0.0,-1.521,-1.4384,0.0,-1.3383,0.0,0.0,0.0,0.0,0.0,0.0,0.0,0.0,0.0,0.0,0.0,0.0,0.0,0.0,0.0,0.0,0.0,0.0,0.0,-0.8021,-1.1429,0.0,0.0,0.0,0.0,-1.4263,-1.3545,-1.2844,-1.2142,-1.1404,-1.0599,-1.0108,-0.9892,-0.9713,-0.9516,-0.9303,-0.9057,-0.8807,-0.8547,-0.8156,-0.7767,-0.7365,-0.7029,-0.6774,-0.6582,-0.647,-0.6483,-0.6592,-0.6411,-0.6372,-0.6616,-0.794,-0.8325,-0.8191,-0.7974,-0.754,-0.7193,-0.7753,-0.7856,-0.7946,-0.8602,-0.9082,-0.955,-1.0235,-1.0593,-1.1004,-1.1839,-1.2066,-1.2138,-1.2437,-1.1982,-1.1542,-1.1505,-1.0992,-1.0428,-1.0079,-1.0157,-1.0166,-0.9843,-1.0225,-1.0725,-1.1207,-1.1726,-1.2342,-1.3042,-1.3828,-1.4405,-1.47,-1.4233,-1.3782,-1.3466,-1.2812,-1.2328,-1.2057,-1.1801,-1.1042,-0.9739,-0.9104,-0.8027,-0.6422,-0.5318,-0.4494,-0.3993,-0.3826,-0.4199]},{"header":{"parameterUnit":"m.s-1","parameterCategory":1,"la1":30.6,"la2":29.2853,"lo1":-89.7004,"lo2":-87.6739,"dy":0.0162,"dx":0.0183,"nx":112,"ny":82,"refTime":"2024-07-13T18:00:00:Z","depth":0,"parameterNumber":3,"parameterNumberName":"V-component_of_WINDS"},"data":[0.0,0.0,0.0,0.0,0.0,0.0,0.0,0.0,0.0,0.0,0.0,0.0,0.0,0.0,0.0,0.0,0.0,0.0,0.0,0.0,0.0,0.0,0.0,0.0,0.0,0.0,0.0,0.0,0.0,0.0,0.0,0.0,0.0,0.0,0.0,0.0,0.0,0.0,0.0,0.0,0.0,0.0,0.0,0.0,0.0,0.0,0.0,0.0,0.0,0.0,0.0,0.0,0.0,0.0,0.0,0.0,0.0,0.0,0.0,0.0,0.0,0.0,0.0,0.0,0.0,0.0,0.0,0.0,0.0,0.0,0.0,0.0,0.0,0.0,0.0,0.0,0.0,0.0,0.0,0.0,0.0,0.0,0.0,0.0,0.0,0.0,0.0,0.0,0.0,0.0,0.0,-1.1034,-1.2131,-1.3051,-1.3866,-1.4678,-1.5287,-1.5521,0.0,0.0,0.0,0.0,0.0,0.0,0.0,0.0,0.0,0.0,0.0,0.0,0.0,0.0,0.0,0.0,0.0,0.0,0.0,0.0,0.0,0.0,0.0,0.0,0.0,0.0,0.0,0.0,0.0,0.0,0.0,0.0,0.0,0.0,0.0,0.0,0.0,0.0,0.0,0.0,0.0,0.0,0.0,0.0,0.0,0.0,0.0,0.0,0.0,0.0,0.0,0.0,0.0,0.0,0.0,0.0,0.0,0.0,0.0,0.0,0.0,0.0,0.0,0.0,0.0,0.0,0.0,0.0,0.0,0.0,0.0,0.0,0.0,0.0,0.0,0.0,0.0,0.0,0.0,0.0,0.0,0.0,0.0,0.0,0.0,0.0,0.0,0.0,0.0,0.0,0.0,0.0,0.0,0.0,0.0,0.0,0.0,0.0,0.0,0.0,0.0,0.0,0.0,0.0,-1.0479,-1.1972,-1.2298,-1.3075,-1.4848,-1.5081,-1.5584,-1.6457,0.0,0.0,0.0,0.0,0.0,0.0,0.0,0.0,0.0,0.0,0.0,0.0,0.0,0.0,0.0,0.0,0.0,0.0,0.0,0.0,0.0,0.0,0.0,0.0,0.0,0.0,0.0,0.0,0.0,0.0,0.0,0.0,0.0,0.0,0.0,0.0,0.0,0.0,0.0,0.0,0.0,0.0,0.0,0.0,0.0,0.0,0.0,0.0,0.0,0.0,0.0,0.0,0.0,0.0,0.0,0.0,0.0,0.0,0.0,0.0,0.0,0.0,0.0,0.0,0.0,0.0,0.0,0.0,0.0,0.0,0.0,0.0,0.0,0.0,0.0,0.0,0.0,0.0,0.0,0.0,0.0,0.0,0.0,0.0,0.0,0.0,0.0,0.0,0.0,0.0,0.0,0.0,0.0,0.0,0.0,0.0,0.0,0.0,0.0,0.0,0.0,0.0,0.0,-1.1154,-1.1397,-1.2184,-1.2728,-1.3616,-1.5073,-1.5691,-1.6167,-1.6667,-1.5901,0.0,0.0,0.0,0.0,0.0,0.0,0.0,0.0,0.0,0.0,0.0,0.0,0.0,0.0,0.0,0.0,0.0,0.0,0.0,0.0,0.0,0.0,0.0,0.0,0.0,0.0,0.0,0.0,0.0,0.0,0.0,0.0,0.0,0.0,0.0,0.0,0.0,0.0,0.0,0.0,0.0,0.0,0.0,0.0,0.0,0.0,0.0,0.0,0.0,0.0,0.0,0.0,0.0,0.0,0.0,0.0,0.0,0.0,0.0,0.0,0.0,0.0,0.0,0.0,0.0,0.0,0.0,0.0,0.0,0.0,0.0,0.0,0.0,0.0,0.0,0.0,0.0,0.0,0.0,0.0,0.0,0.0,0.0,0.0,0.0,0.0,0.0,0.0,0.0,0.0,0.0,0.0,0.0,0.0,0.0,0.0,0.0,0.0,0.0,0.0,0.0,0.0,-1.2633,-1.2385,-1.2633,-1.325,-1.4175,-1.5397,-1.6113,-1.6546,-1.6667,-1.5796,0.0,0.0,0.0,0.0,0.0,0.0,0.0,0.0,0.0,0.0,0.0,0.0,0.0,0.0,0.0,0.0,0.0,0.0,0.0,0.0,0.0,0.0,0.0,0.0,0.0,0.0,0.0,0.0,0.0,0.0,0.0,0.0,0.0,0.0,0.0,0.0,0.0,0.0,0.0,0.0,0.0,0.0,0.0,0.0,0.0,0.0,0.0,0.0,0.0,0.0,0.0,0.0,0.0,0.0,0.0,0.0,0.0,0.0,0.0,0.0,0.0,0.0,0.0,0.0,0.0,0.0,0.0,0.0,0.0,0.0,0.0,0.0,0.0,0.0,0.0,0.0,0.0,0.0,0.0,0.0,0.0,0.0,0.0,0.0,0.0,0.0,0.0,0.0,0.0,0.0,0.0,0.0,0.0,0.0,0.0,0.0,0.0,0.0,0.0,0.0,0.0,0.0,-1.3226,-1.3572,-1.3572,-1.3693,-1.4482,-1.6357,-1.6193,-1.6174,-1.6689,-1.5524,0.0,0.0,0.0,0.0,0.0,0.0,0.0,0.0,0.0,0.0,0.0,0.0,0.0,0.0,0.0,0.0,0.0,0.0,0.0,0.0,0.0,0.0,0.0,0.0,0.0,0.0,0.0,0.0,0.0,0.0,0.0,0.0,0.0,0.0,0.0,0.0,0.0,0.0,0.0,0.0,0.0,0.0,0.0,0.0,0.0,0.0,0.0,0.0,0.0,0.0,0.0,0.0,0.0,0.0,0.0,0.0,0.0,0.0,0.0,0.0,0.0,0.0,0.0,0.0,0.0,0.0,0.0,0.0,0.0,0.0,0.0,0.0,0.0,0.0,0.0,0.0,0.0,0.0,0.0,0.0,0.0,0.0,0.0,0.0,0.0,0.0,0.0,0.0,0.0,0.0,0.0,0.0,0.0,0.0,0.0,0.0,0.0,0.0,0.0,0.0,0.0,0.0,-1.3476,-1.3483,0.0,-1.4081,-1.4539,-1.6011,-1.6345,-1.6389,-1.6344,0.0,0.0,0.0,0.0,0.0,0.0,0.0,0.0,0.0,0.0,0.0,0.0,0.0,0.0,0.0,0.0,0.0,0.0,0.0,0.0,0.0,0.0,0.0,0.0,0.0,0.0,0.0,0.0,0.0,0.0,0.0,0.0,0.0,0.0,0.0,0.0,0.0,0.0,0.0,0.0,0.0,0.0,0.0,0.0,0.0,0.0,0.0,0.0,0.0,0.0,0.0,0.0,0.0,0.0,0.0,0.0,0.0,0.0,0.0,0.0,0.0,0.0,0.0,0.0,0.0,0.0,0.0,0.0,0.0,0.0,0.0,0.0,0.0,0.0,0.0,0.0,0.0,0.0,0.0,0.0,0.0,0.0,0.0,0.0,0.0,0.0,0.0,0.0,0.0,0.0,0.0,0.0,0.0,0.0,0.0,0.0,0.0,0.0,0.0,0.0,0.0,0.0,-1.4631,-1.4142,-1.3932,0.0,-1.4602,-1.4967,-1.6087,-1.6384,-1.6314,-1.5924,0.0,0.0,0.0,0.0,0.0,0.0,0.0,0.0,0.0,0.0,0.0,0.0,0.0,0.0,0.0,0.0,0.0,0.0,0.0,0.0,0.0,0.0,0.0,0.0,0.0,0.0,0.0,0.0,0.0,0.0,0.0,0.0,0.0,0.0,0.0,0.0,0.0,0.0,0.0,0.0,0.0,0.0,0.0,0.0,0.0,0.0,0.0,0.0,0.0,0.0,0.0,0.0,0.0,0.0,0.0,0.0,0.0,0.0,0.0,0.0,0.0,0.0,0.0,0.0,0.0,0.0,0.0,0.0,0.0,0.0,0.0,0.0,0.0,0.0,0.0,0.0,0.0,0.0,0.0,0.0,0.0,0.0,0.0,0.0,0.0,0.0,0.0,0.0,0.0,0.0,0.0,0.0,0.0,0.0,0.0,0.0,0.0,0.0,0.0,0.0,0.0,0.0,-1.4898,-1.5104,-1.5302,-1.5287,-1.5265,-1.5689,-1.6591,-1.6337,-1.5901,0.0,0.0,0.0,0.0,0.0,0.0,0.0,0.0,0.0,0.0,0.0,0.0,0.0,0.0,0.0,0.0,0.0,0.0,0.0,0.0,0.0,0.0,0.0,0.0,0.0,0.0,0.0,0.0,0.0,0.0,0.0,0.0,0.0,0.0,0.0,0.0,0.0,0.0,0.0,0.0,0.0,0.0,0.0,0.0,0.0,0.0,0.0,0.0,0.0,0.0,0.0,0.0,0.0,0.0,0.0,0.0,0.0,0.0,0.0,0.0,0.0,0.0,0.0,0.0,0.0,0.0,0.0,0.0,0.0,0.0,0.0,0.0,0.0,0.0,0.0,0.0,0.0,0.0,0.0,0.0,0.0,0.0,0.0,0.0,0.0,0.0,0.0,0.0,0.0,0.0,0.0,0.0,0.0,0.0,0.0,0.0,0.0,0.0,0.0,0.0,0.0,0.0,0.0,-1.4861,-1.4946,-1.5254,-1.5817,-1.5028,-1.5027,-1.6173,-1.588,-1.54,-1.4994,0.0,0.0,0.0,0.0,0.0,0.0,0.0,0.0,0.0,0.0,0.0,0.0,0.0,0.0,0.0,0.0,0.0,0.0,0.0,0.0,0.0,0.0,0.0,0.0,0.0,0.0,0.0,0.0,0.0,0.0,0.0,0.0,0.0,0.0,0.0,0.0,0.0,0.0,0.0,0.0,0.0,0.0,0.0,0.0,0.0,0.0,0.0,0.0,0.0,0.0,0.0,0.0,0.0,0.0,0.0,0.0,0.0,0.0,0.0,0.0,0.0,0.0,0.0,0.0,0.0,0.0,0.0,0.0,0.0,0.0,0.0,0.0,0.0,0.0,0.0,0.0,0.0,0.0,0.0,0.0,0.0,0.0,0.0,0.0,0.0,0.0,0.0,0.0,0.0,0.0,0.0,0.0,0.0,0.0,0.0,0.0,0.0,0.0,0.0,0.0,0.0,0.0,-1.4974,-1.5032,-1.5264,-1.58,-1.5119,-1.4964,-1.5732,-1.5566,-1.5127,-1.4572,0.0,0.0,0.0,0.0,0.0,0.0,0.0,0.0,0.0,0.0,0.0,0.0,0.0,0.0,0.0,0.0,0.0,0.0,0.0,0.0,0.0,0.0,0.0,0.0,0.0,0.0,0.0,0.0,0.0,0.0,0.0,0.0,0.0,0.0,0.0,0.0,0.0,0.0,0.0,0.0,0.0,0.0,0.0,0.0,0.0,0.0,0.0,0.0,0.0,0.0,0.0,0.0,0.0,0.0,0.0,0.0,0.0,0.0,0.0,0.0,0.0,0.0,0.0,0.0,0.0,0.0,0.0,0.0,0.0,0.0,0.0,0.0,0.0,0.0,0.0,0.0,0.0,0.0,0.0,0.0,0.0,0.0,0.0,0.0,0.0,0.0,0.0,0.0,0.0,0.0,0.0,0.0,0.0,0.0,0.0,0.0,0.0,0.0,0.0,0.0,0.0,0.0,-1.5003,-1.5226,-1.541,-1.541,-1.541,-1.541,-1.541,-1.541,-1.5049,-1.4136,0.0,0.0,0.0,0.0,0.0,0.0,0.0,0.0,0.0,0.0,0.0,0.0,0.0,0.0,0.0,0.0,0.0,0.0,0.0,0.0,0.0,0.0,0.0,0.0,0.0,0.0,0.0,0.0,0.0,0.0,0.0,0.0,0.0,0.0,0.0,0.0,0.0,0.0,0.0,0.0,0.0,0.0,0.0,0.0,0.0,0.0,0.0,0.0,0.0,0.0,0.0,0.0,0.0,0.0,0.0,0.0,0.0,0.0,0.0,0.0,-0.8979,0.0,0.0,0.0,0.0,0.0,0.0,0.0,0.0,0.0,0.0,0.0,0.0,0.0,0.0,0.0,0.0,0.0,0.0,0.0,0.0,0.0,0.0,0.0,0.0,0.0,0.0,0.0,0.0,0.0,0.0,0.0,0.0,0.0,0.0,0.0,0.0,0.0,0.0,0.0,0.0,0.0,-1.4395,-1.4974,-1.541,-1.541,-1.541,-1.541,-1.541,-1.541,-1.5049,-1.4136,-1.4092,0.0,0.0,0.0,0.0,0.0,0.0,0.0,0.0,0.0,0.0,0.0,0.0,0.0,0.0,0.0,0.0,0.0,0.0,0.0,0.0,0.0,0.0,0.0,0.0,0.0,0.0,0.0,0.0,0.0,0.0,0.0,0.0,0.0,0.0,0.0,0.0,0.0,0.0,0.0,0.0,0.0,0.0,0.0,0.0,0.0,0.0,0.0,0.0,0.0,0.0,0.0,0.0,0.0,0.0,0.0,0.0,0.0,0.0,0.0,0.0,-0.8933,0.0,0.0,0.0,0.0,0.0,0.0,0.0,0.0,0.0,0.0,0.0,0.0,0.0,0.0,0.0,0.0,0.0,0.0,0.0,0.0,0.0,0.0,0.0,0.0,0.0,0.0,0.0,0.0,0.0,0.0,0.0,0.0,0.0,0.0,0.0,0.0,0.0,0.0,0.0,0.0,-1.4473,-1.4982,-1.541,-1.541,-1.541,-1.541,-1.541,-1.541,-1.5049,-1.4136,-1.4077,0.0,0.0,0.0,0.0,0.0,0.0,0.0,0.0,0.0,0.0,0.0,0.0,0.0,0.0,0.0,0.0,0.0,0.0,0.0,0.0,0.0,0.0,0.0,0.0,0.0,0.0,0.0,0.0,0.0,0.0,0.0,0.0,0.0,0.0,0.0,0.0,0.0,0.0,0.0,0.0,0.0,0.0,0.0,0.0,0.0,0.0,0.0,0.0,0.0,0.0,0.0,0.0,0.0,-1.1436,-1.1577,-1.1577,-1.1577,-1.1577,-1.155,-1.1069,-1.0484,-0.9697,0.0,0.0,0.0,0.0,0.0,0.0,0.0,0.0,0.0,0.0,0.0,0.0,0.0,0.0,0.0,0.0,0.0,0.0,0.0,0.0,0.0,0.0,0.0,0.0,0.0,-1.0013,-1.0509,0.0,0.0,0.0,0.0,0.0,0.0,0.0,0.0,0.0,0.0,0.0,0.0,-1.4617,-1.4949,-1.5215,-1.5293,-1.5303,-1.5332,-1.54,-1.5342,-1.4961,-1.4136,-1.4009,-1.3682,0.0,0.0,0.0,0.0,0.0,0.0,0.0,0.0,0.0,0.0,0.0,0.0,0.0,0.0,0.0,0.0,0.0,0.0,0.0,0.0,0.0,0.0,0.0,0.0,0.0,0.0,0.0,0.0,0.0,0.0,0.0,0.0,-0.5031,-0.6421,0.0,0.0,0.0,0.0,0.0,0.0,0.0,0.0,0.0,0.0,0.0,0.0,0.0,0.0,-1.1114,-1.1583,-1.175,-1.1757,-1.2051,-1.2184,-1.2184,-1.2184,-1.2184,-1.2184,-1.2104,0.0,-1.0731,-0.9709,0.0,0.0,0.0,0.0,0.0,0.0,0.0,0.0,0.0,0.0,0.0,0.0,0.0,0.0,0.0,0.0,0.0,0.0,0.0,0.0,0.0,0.0,-1.0982,-1.2727,-1.3309,-1.3393,0.0,-1.2546,-1.2182,-1.3251,0.0,0.0,0.0,0.0,0.0,0.0,0.0,0.0,-1.4165,-1.4257,-1.4453,-1.4834,-1.4873,-1.501,-1.5381,-1.5078,-1.4658,-1.4107,-1.3789,-1.3379,-1.29,-1.2881,0.0,0.0,0.0,0.0,0.0,0.0,0.0,0.0,0.0,0.0,0.0,0.0,0.0,0.0,0.0,0.0,0.0,0.0,0.0,0.0,0.0,0.0,0.0,0.0,0.0,0.0,0.0,0.0,0.0,-0.4681,-0.5039,-0.6202,-0.689,-0.7527,0.0,0.0,0.0,0.0,0.0,0.0,0.0,0.0,0.0,-1.0795,-1.1249,-1.155,-1.167,-1.1964,-1.2111,-1.2118,-1.2238,-1.2218,-1.2058,-1.2058,-1.1971,-1.181,-1.181,-1.1617,-1.1208,-1.0743,-0.9799,-0.8651,0.0,0.0,0.0,0.0,-0.8491,-0.9285,-1.0606,-1.1525,0.0,0.0,0.0,0.0,0.0,0.0,0.0,0.0,0.0,0.0,0.0,0.0,0.0,-1.3413,-1.3777,-1.4055,-1.4567,-1.4244,-1.3933,0.0,-1.4501,-1.4578,-1.4415,0.0,0.0,0.0,0.0,0.0,-1.4438,-1.4265,-1.4188,-1.4385,-1.4639,-1.4863,-1.5039,-1.4893,-1.46,-1.4107,-1.374,-1.332,-1.29,-1.2881,-1.2881,0.0,0.0,0.0,0.0,0.0,0.0,0.0,0.0,0.0,0.0,0.0,0.0,0.0,0.0,0.0,0.0,0.0,0.0,0.0,0.0,0.0,0.0,0.0,0.0,0.0,0.0,0.0,0.0,-0.4986,-0.562,-0.6662,-0.7527,-0.834,0.0,0.0,0.0,0.0,0.0,0.0,-1.0448,-1.0935,-1.1216,-1.1216,-1.1717,-1.1984,-1.1984,-1.2191,-1.2305,-1.2305,-1.2305,-1.2151,-1.1864,-1.1898,-1.1783,-1.1536,-1.1456,-1.147,-1.153,-1.1376,-1.0702,-0.9848,-0.9713,-0.9303,-0.882,-0.942,-0.9649,-0.9906,-1.1336,-1.1812,-1.1824,-1.1574,0.0,-1.1194,-1.0219,0.0,0.0,0.0,0.0,-1.1494,-1.2948,-1.3462,-1.3647,-1.3834,-1.411,-1.4507,-1.5151,-1.5359,-1.533,0.0,-1.5713,-1.5888,-1.5255,0.0,0.0,0.0,0.0,-1.4228,-1.4567,-1.4133,-1.3807,-1.3942,-1.4247,-1.4562,-1.4756,-1.4687,-1.4473,-1.4097,-1.374,-1.332,-1.29,-1.2988,-1.3037,-1.3037,0.0,0.0,0.0,0.0,0.0,0.0,0.0,0.0,0.0,0.0,0.0,0.0,0.0,0.0,0.0,0.0,0.0,0.0,0.0,0.0,0.0,0.0,0.0,0.0,0.0,0.0,0.0,0.0,0.0,-0.8644,-0.9297,0.0,0.0,0.0,0.0,-1.0929,-1.1196,-1.1356,-1.1356,-1.1657,-1.1824,-1.1824,-1.2124,-1.2278,-1.2278,-1.2291,-1.2305,-1.2305,-1.2305,-1.2151,-1.1928,-1.1929,-1.1888,-1.183,-1.155,-1.1583,-1.1804,-1.1243,-1.1162,-1.1261,-1.071,-1.0664,-1.0804,-1.0597,-1.0717,-1.091,-1.0722,-1.085,-1.1013,-1.0754,-1.0458,-1.0254,-1.0477,-1.0831,0.0,0.0,-1.2298,-1.3078,-1.3907,-1.4148,-1.4359,-1.5137,-1.5342,-1.5352,-1.5352,-1.5381,-1.5624,0.0,-1.6325,-1.6113,-1.6045,0.0,-1.5391,-1.5361,-1.4657,-1.4091,-1.4109,-1.3429,-1.3115,-1.3469,-1.3549,-1.3881,-1.4743,-1.4404,-1.4107,-1.4077,-1.374,-1.332,-1.29,-1.3262,-1.3477,-1.3477,-1.3477,0.0,0.0,0.0,0.0,0.0,0.0,0.0,0.0,0.0,0.0,0.0,0.0,0.0,0.0,0.0,0.0,0.0,0.0,0.0,0.0,0.0,0.0,0.0,0.0,0.0,0.0,0.0,0.0,-0.9432,-0.9888,0.0,-1.1076,-1.1209,-1.1269,-1.1269,-1.1543,-1.171,-1.171,-1.2171,-1.2506,-1.2506,-1.2732,-1.2792,-1.2592,-1.2585,-1.2492,-1.2305,-1.2305,-1.2164,-1.1886,-1.1925,-1.1703,-1.1334,-1.1384,-1.1483,-1.155,-1.1156,-1.1162,-1.1383,-1.0995,-1.0902,-1.0955,-1.0668,-1.0641,-1.0748,-1.0819,-1.0955,-1.0949,-1.0876,-1.1014,-1.1224,-1.1374,-1.1847,-1.2544,-1.3174,-1.357,-1.3959,-1.4784,-1.4942,-1.505,-1.5352,-1.541,-1.541,-1.541,-1.541,-1.5508,-1.582,-1.5723,-1.5654,-1.5654,-1.5498,-1.541,-1.541,-1.4655,-1.4203,-1.4521,-1.3803,-1.3421,-1.3861,-1.4185,-1.4437,-1.4772,-1.4648,-1.4434,-1.4097,-1.374,-1.332,-1.29,-1.3027,-1.3105,-1.3105,-1.3105,-1.3105,0.0,0.0,0.0,0.0,0.0,0.0,0.0,0.0,0.0,0.0,0.0,0.0,0.0,0.0,0.0,0.0,0.0,0.0,0.0,0.0,0.0,0.0,0.0,0.0,0.0,0.0,-0.9429,-1.0312,-1.079,-1.1162,-1.1534,-1.1663,-1.1724,-1.1724,-1.1904,-1.2011,-1.2011,-1.2385,-1.2599,-1.2599,-1.2799,-1.2789,-1.2626,-1.2659,-1.2498,-1.2305,-1.2305,-1.2137,-1.1877,-1.1886,-1.1654,-1.1331,-1.1263,-1.139,-1.1543,-1.1156,-1.1162,-1.1383,-1.1002,-1.0909,-1.0955,-1.0668,-1.0624,-1.0624,-1.0771,-1.0848,-1.0839,-1.0857,-1.1314,-1.1818,-1.1826,-1.256,-1.3515,-1.4022,-1.4427,-1.4734,-1.5245,-1.541,-1.541,-1.541,-1.541,-1.541,-1.541,-1.541,-1.5342,-1.5196,-1.5332,-1.541,-1.541,-1.541,-1.541,-1.541,-1.48,-1.4428,-1.4733,-1.4134,-1.3805,-1.4057,-1.438,-1.4646,-1.4821,-1.4785,-1.4658,-1.4375,-1.4092,-1.3682,-1.3115,-1.3232,-1.3242,-1.3096,-1.3232,-1.3301,-1.3301,0.0,0.0,0.0,0.0,0.0,0.0,0.0,0.0,0.0,0.0,0.0,0.0,0.0,0.0,0.0,0.0,0.0,0.0,0.0,0.0,0.0,0.0,0.0,-0.9542,-1.0062,-1.0673,-1.1381,-1.1951,-1.2184,-1.1911,-1.2131,-1.2291,-1.2305,-1.2305,-1.2305,-1.2305,-1.2311,-1.2318,-1.2318,-1.2325,-1.2348,-1.2305,-1.2348,-1.2318,-1.2305,-1.2305,-1.2137,-1.1877,-1.1911,-1.1891,-1.1844,-1.1296,-1.1329,-1.1797,-1.1229,-1.1156,-1.1356,-1.0795,-1.0742,-1.0955,-1.0668,-1.0624,-1.0624,-1.0624,-1.0624,-1.0631,-1.0631,-1.1192,-1.1869,-1.1874,-1.2956,-1.4218,-1.4237,-1.4818,-1.541,-1.541,-1.541,-1.541,-1.541,-1.5391,-1.5381,-1.5381,-1.5381,-1.5226,-1.4868,-1.509,-1.5381,-1.54,-1.541,-1.541,-1.541,-1.5032,0.0,-1.4807,-1.4394,-1.4127,-1.4127,-1.4127,-1.4333,-1.4768,-1.4805,-1.4795,-1.4785,-1.4775,-1.4394,-1.3555,-1.3906,-1.3873,-1.3535,-1.3873,-1.4077,-1.4077,0.0,0.0,0.0,0.0,0.0,0.0,0.0,0.0,0.0,0.0,0.0,0.0,0.0,0.0,0.0,0.0,0.0,0.0,0.0,0.0,0.0,0.0,-0.9868,-1.0135,-1.0943,-1.1611,-1.2037,-1.2017,-1.2037,-1.2171,-1.2064,-1.2078,-1.2285,-1.2305,-1.2305,-1.2305,-1.2503,-1.2662,-1.2662,-1.2886,-1.2862,-1.266,-1.2639,-1.2516,-1.2305,-1.2305,-1.2224,-1.2211,-1.2191,-1.1982,-1.1516,-1.1597,-1.1476,-1.1223,-1.1062,-1.1042,-1.1096,-1.0935,-1.0922,-1.0955,-1.0668,-1.0624,-1.0624,-1.0624,-1.0989,-1.1495,-1.1495,-1.2421,-1.3518,-1.3529,-1.4271,-1.5061,-1.5098,-1.5205,-1.541,-1.541,-1.541,-1.541,-1.541,-1.517,-1.4979,-1.4962,-1.4704,-1.4443,-1.4313,-1.4393,-1.4553,-1.4888,-1.5187,-1.5332,-1.5022,-1.4877,0.0,-1.4785,-1.4678,-1.4723,-1.5022,-1.5032,-1.5071,-1.5244,-1.5244,-1.5107,-1.4805,-1.4492,-1.4209,-1.3912,-1.3779,-1.3769,-1.3902,-1.4019,-1.4077,0.0,0.0,0.0,0.0,0.0,0.0,0.0,0.0,0.0,0.0,0.0,0.0,0.0,0.0,0.0,0.0,0.0,0.0,0.0,0.0,0.0,0.0,-1.0438,-1.052,-1.0988,-1.1545,-1.1884,-1.1931,-1.1784,-1.175,-1.1917,-1.1784,-1.175,-1.1924,-1.2051,-1.2124,-1.2124,-1.2384,-1.2576,-1.2576,-1.2766,-1.2772,-1.2576,-1.2576,-1.2458,-1.2143,-1.2231,-1.2224,-1.2137,-1.2224,-1.2063,0.0,-1.1686,-1.1423,-1.0982,-1.0862,-1.0815,0.0,0.0,0.0,0.0,0.0,-1.0912,-1.0631,-1.0989,-1.1406,-1.1829,-1.1829,-1.287,-1.4194,-1.4194,-1.4732,-1.541,-1.541,-1.541,-1.541,-1.541,-1.541,-1.5352,-1.5184,-1.4964,-1.4757,-1.4557,-1.4268,-1.4048,-1.3904,0.0,0.0,-1.4251,-1.4573,-1.48,-1.4569,-1.4506,-1.453,-1.4533,-1.4518,-1.4694,-1.5115,-1.5135,-1.5223,-1.5391,-1.541,0.0,0.0,0.0,-1.459,-1.4414,-1.3994,0.0,0.0,0.0,0.0,0.0,0.0,0.0,0.0,-1.3593,-1.3352,0.0,0.0,0.0,0.0,0.0,0.0,0.0,0.0,0.0,0.0,0.0,0.0,0.0,0.0,0.0,0.0,-1.0903,-1.1176,-1.1627,-1.177,-1.1683,-1.145,-1.1396,-1.139,-1.1423,-1.1396,-1.1321,-1.1286,-1.16,-1.1837,-1.1793,0.0,0.0,0.0,0.0,-1.2305,-1.2305,-1.2305,-1.2184,-1.1884,-1.2118,-1.2098,-1.1872,-1.2065,-1.2067,-1.1798,-1.1458,-1.1223,-1.0922,-1.0732,-1.0624,-1.0624,-1.0624,-1.0624,-1.0681,-1.148,-1.1363,0.0,0.0,0.0,0.0,-1.2091,-1.3098,-1.4347,-1.4347,-1.4809,-1.541,-1.541,-1.541,-1.541,-1.541,-1.5342,-1.5254,-1.4873,-1.4743,-1.4523,-1.4135,-1.397,-1.3863,-1.3488,-1.3744,-1.3857,-1.3484,-1.383,-1.4066,-1.4057,-1.4088,-1.4096,-1.4019,-1.4071,-1.4238,-1.4696,0.0,0.0,-1.5225,-1.5264,-1.5264,-1.5264,-1.5312,-1.5176,-1.4805,-1.4453,-1.4463,-1.4844,-1.4853,-1.5039,-1.541,-1.541,-1.541,-1.5391,-1.4629,-1.4482,0.0,0.0,0.0,0.0,0.0,0.0,0.0,0.0,0.0,0.0,0.0,0.0,0.0,0.0,0.0,-0.9676,-1.0379,-1.083,-1.0196,-1.0754,-1.1229,-1.1403,-1.1223,-1.1169,-1.1403,-1.1209,-1.0901,-1.0366,-1.1063,-1.1331,-1.0844,-1.1608,0.0,-1.2298,-1.2305,-1.2305,-1.2305,-1.2305,-1.2184,-1.1884,0.0,0.0,-1.152,-1.1526,-1.143,-1.1182,-1.1128,-1.091,-1.0641,-1.0645,-1.0624,-1.0624,-1.0624,-1.0624,-1.0681,-1.148,-1.1667,-1.1682,-1.2515,-1.3197,-1.3745,-1.3745,-1.4415,-1.5177,-1.5177,-1.5264,0.0,-1.541,-1.541,-1.541,-1.541,-1.5177,-1.4907,-1.4839,-1.4275,-1.3751,-1.3625,-1.3359,-1.3105,-1.3047,-1.3066,-1.3114,-1.3056,-1.3623,-1.3971,-1.3669,-1.3917,-1.3975,-1.3665,-1.3906,-1.415,-1.4219,-1.4228,-1.4268,-1.4321,-1.433,-1.433,-1.433,-1.4707,-1.4873,-1.4785,-1.5029,-1.5205,-1.5283,-1.5293,-1.5332,-1.541,-1.541,-1.541,-1.541,-1.5244,-1.5205,0.0,0.0,0.0,0.0,0.0,0.0,0.0,0.0,0.0,0.0,0.0,-1.0236,-0.9897,0.0,-0.9308,-0.893,-0.9188,-0.9563,-0.9699,-0.9811,-1.0194,-1.089,-1.0735,-1.0668,-1.0962,-1.0322,-0.982,-0.9699,-0.9846,-0.9977,-1.017,-1.0827,-1.1476,-1.2057,-1.2218,-1.2305,-1.2305,-1.2137,-1.1939,-1.164,-1.1655,-1.1481,-1.1227,-1.137,-1.1256,-1.1009,-1.0969,-1.0843,-1.0624,-1.0624,-1.0624,-1.0624,-1.1045,-1.1226,-1.1344,-1.2533,-1.2744,-1.2509,-1.3289,-1.389,-1.4231,-1.4218,-1.4746,-1.541,-1.541,-1.541,-1.541,-1.541,-1.541,-1.541,-1.541,-1.5109,-1.4716,-1.452,-1.3941,-1.3449,-1.3224,-1.3027,-1.2881,-1.2881,-1.2881,-1.2881,-1.2881,-1.3232,-1.3435,-1.3234,-1.3389,-1.3441,-1.3241,-1.3357,-1.3584,-1.3799,-1.3818,-1.3906,-1.4058,-1.4077,-1.4077,-1.4077,-1.4336,-1.4463,-1.4463,-1.4658,-1.4775,-1.4775,-1.499,-1.5098,-1.5098,-1.5312,-1.541,-1.541,-1.541,-1.541,0.0,0.0,0.0,0.0,0.0,0.0,0.0,0.0,-1.0267,-1.108,-1.084,-1.0328,-0.988,-0.9077,-0.8436,-0.8154,-0.7871,-0.8062,-0.8942,-0.8937,-0.9168,-1.0112,-0.9991,-0.9897,-1.0246,-0.9234,-0.8657,-0.879,-0.848,-0.8606,-0.9187,-0.9974,-1.0773,-1.155,-1.189,-1.2137,-1.2137,-1.1898,-1.1664,-1.1292,-1.1292,-1.1162,-1.0925,-1.1177,-1.1149,-1.0932,-1.0889,-1.0777,-1.0624,-1.0624,-1.0624,-1.0681,-1.1589,-1.1958,-1.2197,-1.3657,-1.3803,-1.3354,-1.4148,-1.4455,-1.4412,-1.4441,-1.4868,-1.541,-1.541,-1.541,-1.541,-1.541,-1.541,-1.5391,-1.5283,-1.4955,-1.4551,-1.4073,-1.3665,-1.3272,-1.2949,-1.2881,-1.2881,-1.2881,-1.2881,-1.2881,-1.2881,-1.2881,-1.2881,-1.2881,-1.2881,-1.2881,-1.2881,-1.2881,-1.3008,-1.335,-1.3389,-1.3525,-1.3857,-1.3887,-1.3926,-1.3951,-1.3961,-1.4,-1.4077,-1.4077,-1.4077,-1.4077,-1.4473,-1.4697,-1.4785,-1.5127,-1.5332,-1.541,-1.541,-1.541,-1.5994,-1.2634,-0.9806,-0.9008,-0.8804,-0.8956,0.0,0.0,-1.0621,-1.0447,-1.084,-1.0754,-0.9234,-0.8214,-0.7486,-0.6972,-0.6841,-0.6767,-0.6781,-0.7964,-0.8786,-0.8842,-0.8794,-0.8813,-0.8997,-0.8315,-0.7583,-0.7028,-0.7632,-0.7876,-0.7382,-0.8948,-0.9952,-1.0307,-1.1064,-1.1476,-1.1476,-1.1475,-1.1348,-1.1048,-1.1028,-1.0883,-1.0631,-1.0672,-1.0665,-1.0631,-1.0672,-1.0601,-1.0624,-1.0624,-1.0624,-1.0724,-1.1887,-1.2549,-1.294,-1.3846,-1.4114,-1.4161,-1.4989,-1.5284,-1.5264,-1.5245,-1.5303,-1.541,-1.541,-1.541,-1.541,-1.541,-1.541,-1.5303,-1.4936,-1.4508,-1.4061,-1.3681,-1.3262,-1.2939,-1.2929,-1.2881,-1.2881,-1.2881,-1.2881,-1.2881,-1.2881,-1.2881,-1.2881,-1.2881,-1.2881,-1.2881,-1.2881,-1.2881,-1.29,-1.2939,-1.2949,-1.2969,-1.3018,-1.3018,-1.3184,-1.3555,-1.3574,-1.375,-1.4068,-1.4077,-1.4077,-1.4077,-1.4126,-1.4394,-1.4785,-1.4834,-1.5049,-1.541,-1.541,-1.541,-1.301,-1.059,0.0,0.0,-0.848,-0.9061,-1.0167,-1.0618,-1.1073,-1.1983,-1.1693,-1.0911,-0.9616,-0.7936,-0.64,0.0,-0.5127,-0.5205,-0.5572,-0.652,-0.729,-0.7659,-0.7281,-0.7474,-0.8694,-0.7507,-0.6715,-0.6698,-0.6584,-0.6622,-0.6843,-0.8204,-0.9228,-0.9841,-1.0831,-1.137,-1.137,-1.1269,-1.1107,-1.1016,-1.0866,-1.0708,-1.0624,-1.0624,-1.0624,-1.0624,-1.0624,-1.0624,-1.0624,-1.0624,-1.0517,-1.0472,-1.183,-1.2373,-1.2563,-1.4011,-1.4713,-1.4968,-1.5254,-1.541,-1.541,-1.541,-1.541,-1.541,-1.541,-1.5253,-1.5064,-1.5064,-1.487,-1.4593,-1.4431,-1.4086,-1.3723,-1.3531,-1.3203,-1.2881,-1.2881,-1.2881,-1.2881,-1.2881,-1.2881,-1.2881,-1.2881,-1.2881,-1.2881,-1.2881,-1.2881,-1.2881,-1.2881,-1.2881,-1.2881,-1.2881,-1.2881,-1.2881,-1.2881,-1.2881,-1.2959,-1.3135,-1.3145,-1.3223,-1.3398,-1.3408,-1.3408,-1.3408,-1.3643,-1.3857,-1.4043,-1.4287,-1.4502,-1.4678,-1.4932,-1.5049,-1.0301,0.0,0.0,-0.7824,-0.8415,-0.9361,-1.0517,-1.0965,-1.1453,-1.278,-1.205,-1.0724,-0.9234,-0.7175,-0.5268,-0.3873,-0.3418,-0.3568,-0.4556,-0.5225,-0.5919,-0.6649,-0.6173,-0.6379,-0.7942,-0.6637,-0.5898,-0.6306,-0.5683,-0.5613,-0.6318,-0.7551,-0.8592,-0.922,-1.0485,-1.1199,-1.1199,-1.0989,-1.0911,-1.0911,-1.0694,-1.0624,-1.0624,-1.0624,-1.0624,-1.0561,-1.0485,-1.0485,-1.0624,-1.0717,-1.0643,-1.0534,-1.1993,-1.2377,-1.2372,-1.3883,-1.4797,-1.5255,-1.5255,-1.5332,-1.541,-1.541,-1.541,-1.541,-1.5264,-1.5037,-1.4755,-1.4653,-1.434,-1.4087,-1.3955,-1.3695,-1.3474,-1.3342,-1.3125,-1.2881,-1.2881,-1.2881,-1.2881,-1.2881,-1.2881,-1.2881,-1.2881,-1.2881,-1.2881,-1.2881,-1.2881,-1.2881,-1.2881,-1.2881,-1.2881,-1.2881,-1.2881,-1.2881,-1.2881,-1.2881,-1.2881,-1.2881,-1.2881,-1.2881,-1.2881,-1.2881,-1.2881,-1.2881,-1.3184,-1.3389,-1.3506,-1.3818,-1.397,-1.4087,-1.4463,-1.4609,0.0,0.0,-0.7723,-0.7723,-0.8771,-0.9961,-1.0669,-1.1316,-1.1774,-1.1832,-1.1283,-1.0014,-0.7389,-0.5583,-0.4089,-0.292,-0.1947,-0.1911,-0.3444,-0.4293,-0.5013,-0.5768,-0.5829,-0.5914,0.0,-0.5489,-0.5106,-0.5404,-0.5223,-0.5223,-0.5428,-0.7087,-0.8032,-0.8048,-0.9705,-1.0624,-1.0624,-1.0624,-1.0624,-1.0624,-1.0624,-1.0624,-1.0624,-1.0624,-1.0624,-1.0561,-1.0268,-1.0275,-1.0618,-1.1064,-1.118,-1.1201,-1.241,-1.2877,-1.2941,-1.3389,-1.4103,-1.4809,-1.4809,-1.51,-1.541,-1.541,-1.541,-1.5332,-1.4945,-1.4824,-1.4702,-1.4242,-1.4124,-1.399,-1.3643,-1.3525,-1.3408,-1.2988,-1.2929,-1.2881,-1.2881,-1.2881,-1.2881,-1.2881,-1.2881,-1.2881,-1.2881,-1.2881,-1.2881,-1.2881,-1.2881,-1.2881,-1.2881,-1.2881,-1.2881,-1.2881,-1.2881,-1.2881,-1.2881,-1.2881,-1.2881,-1.2881,-1.2881,-1.2881,-1.2881,-1.2881,-1.2881,-1.2881,-1.2891,-1.3105,-1.3506,-1.3516,-1.374,-1.4077,-1.4087,-1.4097,0.0,0.0,-0.6555,-0.6555,-0.7839,-0.945,-1.081,-1.1581,-1.2328,-1.3486,-1.2125,-1.0171,-0.8369,-0.5642,-0.3261,-0.1971,-0.1507,-0.1477,-0.1906,-0.3162,-0.4133,-0.4339,-0.4913,0.0,0.0,0.0,0.0,-0.5411,-0.5359,-0.5359,-0.5428,-0.7021,-0.8027,-0.7985,-0.9705,-1.0624,-1.0624,-1.0624,-1.0624,-1.0624,-1.0624,-1.0454,-1.0267,-1.0267,-1.0166,-0.9977,-0.9881,-1.0128,-1.0675,-1.1109,-1.1249,-1.1321,-1.2462,-1.2592,-1.2271,-1.2874,-1.3469,-1.3969,-1.427,-1.4424,-1.4569,-1.4569,-1.4732,-1.4945,-1.4492,-1.435,-1.4264,-1.3816,-1.3491,-1.3271,-1.3125,-1.3096,-1.3057,-1.291,-1.2881,-1.2881,-1.2881,-1.2881,-1.2881,-1.2881,-1.2881,-1.2881,-1.2881,-1.2881,-1.2881,-1.2881,-1.2881,-1.2881,-1.2881,-1.2881,-1.2881,-1.2881,-1.2881,-1.2881,-1.2881,-1.2881,-1.2881,-1.2881,-1.2881,-1.2881,-1.2881,-1.2881,-1.2881,-1.2881,-1.2881,-1.2949,-1.3096,-1.3096,-1.3164,-1.3311,-1.3584,-1.3721,-0.4363,-0.4986,-0.6024,-0.6256,-0.768,-0.9476,-1.0967,-1.207,-1.3006,-1.3887,-1.2196,-0.9923,-0.7887,-0.4736,-0.1925,-0.025,-0.0247,-0.0488,-0.0623,-0.2165,-0.343,-0.3638,-0.4513,-0.5152,0.0,0.0,0.0,-0.5422,-0.5311,-0.5301,-0.5289,-0.6668,-0.7564,-0.7909,-0.9307,-1.0199,-1.0624,-1.0624,-1.0571,-1.0401,-1.0401,-1.0247,-0.996,-0.996,-0.986,-0.9682,-0.9583,-0.9979,-1.0729,-1.1182,-1.1478,-1.1736,-1.2743,-1.2739,-1.2236,-1.2715,-1.3066,-1.3352,-1.3767,-1.3993,-1.4076,-1.4076,-1.4289,-1.447,-1.4029,-1.3873,-1.3803,-1.3399,-1.3076,-1.2881,-1.2881,-1.2881,-1.2881,-1.2881,-1.2881,-1.2881,-1.2881,-1.2881,-1.2881,-1.2881,-1.2881,-1.2881,-1.2881,-1.2881,-1.2881,-1.2881,-1.2881,-1.2881,-1.2881,-1.2881,-1.2881,-1.2881,-1.2881,-1.2881,-1.2881,-1.2881,-1.2881,-1.2881,-1.2881,-1.2881,-1.2881,-1.2881,-1.2881,-1.2881,-1.2881,-1.2881,-1.2881,-1.2881,-1.2881,-1.2891,-1.3164,-1.3281,-0.3908,-0.4819,-0.6064,-0.6641,-0.8233,-0.9964,-1.1122,-1.2668,-1.3781,-1.3239,-1.1573,-0.9176,-0.5859,0.0,-0.0226,0.2187,0.174,0.0902,0.0318,-0.1315,-0.2737,0.0,0.0,0.0,0.0,0.0,0.0,-0.5428,0.0,-0.5138,-0.5147,-0.5943,-0.6837,-0.7678,-0.854,-0.9517,-1.0564,-1.0571,-1.0381,-1.0107,-1.01,-0.994,-0.9659,-0.9659,-0.9653,-0.9639,-0.9311,-0.9764,-1.0732,-1.1265,-1.1817,-1.2436,-1.318,-1.3252,-1.2881,-1.2881,-1.2881,-1.2939,-1.333,-1.3734,-1.4059,-1.4059,-1.4059,-1.3981,-1.3561,-1.3462,-1.3409,-1.3008,-1.2881,-1.2881,-1.2881,-1.2881,-1.2881,-1.2881,-1.2881,-1.2881,-1.2881,-1.2881,-1.2881,-1.2881,-1.2881,-1.2881,-1.2881,-1.2881,-1.2881,-1.2881,-1.2881,-1.2881,-1.2881,-1.2881,-1.2881,-1.2881,-1.2881,-1.2881,-1.2881,-1.2881,-1.2881,-1.2881,-1.2881,-1.2881,-1.2881,-1.2881,-1.2881,-1.2881,-1.2881,-1.2881,-1.2881,-1.2881,-1.2881,-1.2881,-1.2881,-1.2881,-0.339,-0.4201,-0.5313,-0.5975,-0.7662,-0.973,-1.1858,-1.3248,-1.4211,-1.4688,-1.1603,-0.7914,-0.497,0.0,0.0,0.2974,0.2132,0.0,0.1024,-0.0511,0.0,-0.2881,0.0,-0.459,-0.5359,-0.5428,0.0,0.0,-0.5325,-0.5321,-0.5292,-0.614,-0.6922,-0.7527,-0.8404,-0.9172,-0.9952,-0.9899,-0.9874,-0.9807,-0.9794,-0.9639,-0.9352,-0.9352,-0.9239,-0.9031,-0.8964,-0.9617,-1.0793,-1.1314,-1.199,-1.2818,-1.3285,-1.3252,-1.2881,-1.2881,-1.2881,-1.2929,-1.3008,-1.3135,-1.3203,-1.3203,-1.3399,-1.3559,-1.3179,-1.3282,-1.3409,-1.3008,-1.2881,-1.2881,-1.2881,-1.2881,-1.2881,-1.2881,-1.2881,-1.2881,-1.2881,-1.2881,-1.2881,-1.2881,-1.2881,-1.2881,-1.2881,-1.2881,-1.2881,-1.2881,-1.2881,-1.2881,-1.2881,-1.2881,-1.2881,-1.2881,-1.2881,-1.2881,-1.2881,-1.2881,-1.2881,-1.2881,-1.2881,-1.2881,-1.2881,-1.2881,-1.2881,-1.2881,-1.2881,-1.2881,-1.2881,-1.2881,-1.2881,-1.2881,-1.2881,-1.2881,-0.3195,-0.3975,-0.5008,-0.5996,-0.7656,-0.9643,-1.2025,-1.3552,-1.4301,-1.3837,-1.0507,0.0,-0.3373,0.0599,0.0,0.0,0.0,0.0,0.2021,0.0392,-0.1242,0.0,-0.3451,0.0,-0.5296,-0.5428,-0.5428,0.0,-0.5428,-0.5359,-0.5292,-0.601,-0.6697,-0.7408,-0.8165,-0.8902,-0.971,-0.969,-0.9608,-0.9459,-0.9482,-0.9332,-0.9051,-0.9051,-0.8965,-0.8804,0.0,-0.9821,-1.0854,-1.139,-1.2115,-1.29,-1.3145,-1.3086,-1.2881,-1.2881,-1.2881,-1.2881,-1.2881,-1.2881,-1.2881,-1.2881,-1.3066,-1.3203,-1.2949,-1.3066,-1.3203,-1.2949,-1.2881,-1.2881,-1.2881,-1.2881,-1.2881,-1.2881,-1.2881,-1.2881,-1.2881,-1.2881,-1.2881,-1.2881,-1.2881,-1.2881,-1.2881,-1.2881,-1.2881,-1.2881,-1.2881,-1.2881,-1.2881,-1.2881,-1.2881,-1.2881,-1.2881,-1.2881,-1.2881,-1.2881,-1.2881,-1.2881,-1.2881,-1.2881,-1.2881,-1.2881,-1.2881,-1.2881,-1.2881,-1.2881,-1.2881,-1.2881,-1.2881,-1.2881,-1.2881,-1.2881,-0.3092,-0.3895,-0.4904,-0.6402,-0.7961,-0.9751,-1.2072,-1.3766,-1.4241,-1.1996,0.0,-0.5347,-0.1426,0.2974,0.5983,0.6022,0.0,0.4429,0.293,0.127,-0.0467,-0.2275,-0.3284,-0.4159,-0.5093,-0.5269,-0.5321,-0.5321,-0.5311,-0.5242,-0.5117,-0.5575,-0.6288,-0.7235,-0.7897,-0.8695,-0.9566,-0.9566,-0.9439,-0.913,-0.913,-0.9051,-0.8804,-0.8804,-0.8804,-0.8857,0.0,0.0,-1.085,-1.1539,-1.2231,-1.2881,-1.2881,-1.2881,-1.2881,-1.2881,-1.2881,-1.2881,-1.2881,-1.2881,-1.2881,-1.2881,-1.2881,-1.2881,-1.2881,-1.2881,-1.2881,-1.2881,-1.2881,-1.2881,-1.2881,-1.2881,-1.2881,-1.2881,-1.2881,-1.2881,-1.2881,-1.2881,-1.2881,-1.2881,-1.2881,-1.2881,-1.2881,-1.2881,-1.2881,-1.2881,-1.2881,-1.2881,-1.2881,-1.2881,-1.2881,-1.2881,-1.2881,-1.2881,-1.2881,-1.2881,-1.2881,-1.2881,-1.2881,-1.2881,-1.2881,-1.2881,-1.2881,-1.2881,-1.2881,-1.2881,-1.2881,-1.2881,-1.2881,-1.2881,-1.2881,-1.2881,-0.2866,-0.3606,-0.4743,-0.662,-0.8446,-1.0452,-1.3168,-1.4227,0.0,0.0,-0.7618,-0.3404,0.0107,0.3544,0.5852,0.5989,0.0,0.0,0.0,0.0,0.0402,0.0,0.0,0.0,0.0,0.0,0.0,0.0,0.0,-0.503,-0.5108,-0.507,-0.5671,-0.6944,-0.8093,-0.8798,-0.8958,-0.8958,-0.8931,-0.8884,-0.8884,-0.8858,-0.8804,-0.8804,-0.8804,-0.8857,0.0,0.0,-1.083,-1.1541,-1.2231,-1.2881,-1.2881,-1.2881,-1.2881,-1.2881,-1.2881,-1.2881,-1.2881,-1.2881,-1.2881,-1.2881,-1.2881,-1.2881,-1.2881,-1.2881,-1.2881,-1.2881,-1.2881,-1.2881,-1.2881,-1.2881,-1.2881,-1.2881,-1.2881,-1.2881,-1.2881,-1.2881,-1.2881,-1.2881,-1.2881,-1.2881,-1.2881,-1.2881,-1.2881,-1.2881,-1.2881,-1.2881,-1.2881,-1.2881,-1.2881,-1.2881,-1.2881,-1.2881,-1.2881,-1.2881,-1.2881,-1.2881,-1.2881,-1.2881,-1.2881,-1.2881,-1.2881,-1.2881,-1.2881,-1.2881,-1.2881,-1.2881,-1.2881,-1.2881,-1.2881,-1.2881,-0.2281,-0.3271,-0.4666,-0.723,-0.9065,-1.0873,-1.3363,0.0,0.0,0.0,-0.6635,-0.2841,0.0968,0.0,0.0,0.0,0.0,0.0,0.0,0.0,0.0,0.0,0.0,0.0,0.0,0.0,0.0,0.0,0.0,-0.484,-0.4988,-0.5571,-0.6343,-0.7289,-0.8256,-0.8804,-0.8804,-0.8804,-0.8804,-0.8804,-0.8804,-0.8804,-0.8804,-0.8804,-0.9008,-0.9361,-1.0041,0.0,-1.1399,-1.2073,-1.256,-1.2881,-1.2881,-1.2881,-1.2881,-1.2881,-1.2881,-1.2881,-1.2881,-1.2881,-1.2881,-1.2881,-1.2881,-1.2881,-1.2881,-1.2881,-1.2881,-1.2881,-1.2881,-1.2881,-1.2881,-1.2881,-1.2881,-1.2881,-1.2881,-1.2881,-1.2881,-1.2881,-1.2881,-1.2881,-1.2881,-1.2881,-1.2881,-1.2881,-1.2881,-1.2881,-1.2881,-1.2881,-1.2881,-1.2881,-1.2881,-1.2881,-1.2881,-1.2881,-1.2881,-1.2881,-1.2881,-1.2881,-1.2881,-1.2881,-1.2881,-1.2881,-1.2881,-1.2881,-1.2881,-1.2881,-1.2881,-1.2881,-1.2881,-1.2881,-1.2881,-1.2881,-0.1295,-0.2761,-0.4656,-0.7759,-0.9574,-1.1209,-1.3421,-1.4085,0.0,0.0,-0.5647,-0.2364,0.1517,0.0,0.0,0.0,0.0,0.0,0.0,0.0,0.0,0.0,0.0,0.0,0.0,0.0,0.0,0.0,0.0,0.0,-0.5032,-0.6191,-0.7125,-0.7681,-0.8427,-0.8804,-0.8804,-0.8804,-0.8804,-0.8804,-0.8804,-0.8804,-0.8804,-0.8804,-0.9159,-0.9814,-1.0517,0.0,0.0,-1.2578,-1.2881,-1.2881,-1.2881,-1.2881,-1.2881,-1.2881,-1.2881,-1.2881,-1.2881,-1.2881,-1.2881,-1.2881,-1.2881,-1.2881,-1.2881,-1.2881,-1.2881,-1.2881,-1.2881,-1.2881,-1.2881,-1.2881,-1.2881,-1.2881,-1.2881,-1.2881,-1.2881,-1.2881,-1.2881,-1.2881,-1.2881,-1.2881,-1.2881,-1.2881,-1.2881,-1.2881,-1.2881,-1.2881,-1.2881,-1.2881,-1.2881,-1.2881,-1.2881,-1.2881,-1.2881,-1.2881,-1.2881,-1.2881,-1.2881,-1.2881,-1.2881,-1.2881,-1.2881,-1.2881,-1.2881,-1.2881,-1.2881,-1.2881,-1.2881,-1.2881,-1.2881,-1.2881,0.0304,-0.1811,-0.4649,-0.7812,-0.9833,-1.1643,-1.392,0.0,0.0,-0.8097,-0.4439,-0.1069,0.1713,0.4076,0.0,0.0,0.0,0.0,0.0,0.0,0.0,0.0,0.0,0.0,0.0,0.0,0.0,0.0,0.0,0.0,-0.5428,-0.6192,-0.6944,-0.767,-0.8427,-0.8804,-0.8804,-0.8804,-0.8804,-0.8804,-0.8804,-0.8804,-0.8804,-0.8804,-0.9159,-0.9814,0.0,0.0,0.0,-1.2618,-1.2881,-1.2881,-1.2881,-1.2881,-1.2881,-1.2881,-1.2881,-1.2881,-1.2881,-1.2881,-1.2881,-1.2881,-1.2881,-1.2881,-1.2881,-1.2881,-1.2881,-1.2881,-1.2881,-1.2881,-1.2881,-1.2881,-1.2881,-1.2881,-1.2881,-1.2881,-1.2881,-1.2881,-1.2881,-1.2881,-1.2881,-1.2881,-1.2881,-1.2881,-1.2881,-1.2881,-1.2881,-1.2881,-1.2881,-1.2881,-1.2881,-1.2881,-1.2881,-1.2881,-1.2881,-1.2881,-1.2881,-1.2881,-1.2881,-1.2881,-1.2881,-1.2881,-1.2881,-1.2881,-1.2881,-1.2881,-1.2881,-1.2881,-1.2881,-1.2881,-1.2881,-1.2881,0.0837,-0.1507,-0.4422,-0.8396,-1.0449,-1.2084,-1.4446,0.0,-1.1378,-0.7482,-0.3801,-0.0427,0.2323,0.4333,0.5281,0.0,0.4587,0.403,0.2532,0.0,0.0,0.0,0.0,0.0,0.0,0.0,0.0,0.0,0.0,0.0,-0.5462,-0.6211,-0.6956,-0.767,-0.8427,-0.8804,-0.8804,-0.8804,-0.8804,-0.8804,-0.8804,-0.8804,-0.8811,-0.9228,-0.9747,-1.0435,0.0,0.0,0.0,-1.2774,-1.2881,-1.2881,-1.2881,-1.2881,-1.2881,-1.2881,-1.2881,-1.2881,-1.2881,-1.2881,-1.2881,-1.2881,-1.2881,-1.2881,-1.2881,-1.2881,-1.2881,-1.2881,-1.2881,-1.2881,-1.2881,-1.2881,-1.2881,-1.2881,-1.2881,-1.2881,-1.2881,-1.2881,-1.2881,-1.2881,-1.2881,-1.2881,-1.2881,-1.2881,-1.2881,-1.2881,-1.319,-1.342,-1.342,-1.3742,-1.3978,-1.3978,-1.3344,-1.2881,-1.2881,-1.2881,-1.2881,-1.2881,-1.2881,-1.2881,-1.2881,-1.2881,-1.2881,-1.2881,-1.2881,-1.2881,-1.2881,-1.2881,-1.2881,-1.2881,-1.2881,-1.2666,0.17,-0.1171,-0.4576,-0.8959,-1.1088,-1.269,0.0,-1.3481,-1.0673,-0.6824,-0.3121,0.0264,0.3087,0.4652,0.5366,0.0,0.468,0.3984,0.2414,0.0,0.0,0.0,0.0,0.0,0.0,0.0,0.0,0.0,0.0,0.0,0.0,-0.6333,-0.6935,-0.7694,-0.8415,-0.8804,-0.8804,-0.8804,-0.8804,-0.8804,-0.8804,-0.8804,-0.8811,-0.9288,-0.9978,-1.0826,0.0,0.0,0.0,-1.2881,-1.2881,-1.2881,-1.2881,-1.2881,-1.2881,-1.2881,-1.2881,-1.2881,-1.2881,-1.2881,-1.2881,-1.2881,-1.2881,-1.2881,-1.2881,-1.2881,-1.2881,-1.2881,-1.2881,-1.2881,-1.2881,-1.2881,-1.2881,-1.2881,-1.2881,-1.2881,-1.2881,-1.2881,-1.2881,-1.2881,-1.2881,-1.2881,-1.2881,-1.3065,-1.3152,-1.3152,-1.3695,-1.405,-1.405,-1.4422,-1.4698,-1.4698,-1.3931,-1.3382,-1.32,-1.3152,-1.3104,-1.2929,-1.2881,-1.2881,-1.2881,-1.2881,-1.2881,-1.2881,-1.2881,-1.2881,-1.2881,-1.2881,-1.2881,-1.2881,-1.2881,-1.2608,0.3234,-0.0673,-0.5264,-0.9369,-1.1739,-1.348,0.0,-1.3007,-0.9772,-0.616,-0.2311,0.1197,0.389,0.4984,0.5487,0.5487,0.5062,0.4135,0.2425,0.0,0.0,0.0,0.0,0.0,0.0,0.0,0.0,0.0,0.0,0.0,0.0,-0.6579,-0.694,-0.7694,-0.8396,-0.8804,-0.8804,-0.8804,-0.8804,-0.8804,-0.8804,-0.8804,-0.8804,-0.8811,-0.9546,0.0,0.0,0.0,0.0,-1.2881,-1.2881,-1.2881,-1.2881,-1.2881,-1.2881,-1.2881,-1.2881,-1.2881,-1.2881,-1.2881,-1.2881,-1.2881,-1.2881,-1.2881,-1.2881,-1.2881,-1.2881,-1.2881,-1.2881,-1.2881,-1.2881,-1.2881,-1.2881,-1.2881,-1.2881,-1.2881,-1.2881,-1.2881,-1.2881,-1.2881,-1.2881,-1.2881,-1.2881,-1.342,-1.3779,-1.3779,-1.4283,-1.4709,-1.4709,-1.4698,-1.4698,-1.4698,-1.4709,-1.4422,-1.3815,-1.3779,-1.3552,-1.2929,-1.2881,-1.2881,-1.2881,-1.2881,-1.2881,-1.2881,-1.2881,-1.2881,-1.2881,-1.2881,-1.2881,-1.2881,-1.2881,-1.2881,0.4936,0.1152,-0.3385,-0.8062,-1.0856,-1.2877,-1.4392,-1.211,-0.8738,-0.525,-0.1254,0.2218,0.4097,0.505,0.5382,0.5011,0.0,0.0,0.0,0.0,0.0,0.0,0.0,0.0,0.0,0.0,0.0,0.0,0.0,0.0,0.0,-0.6304,-0.7153,-0.8396,-0.8685,-0.8804,-0.8804,-0.8804,-0.8804,-0.8804,-0.8804,-0.8804,-0.8804,-0.9762,0.0,0.0,0.0,0.0,0.0,-1.2881,-1.2881,-1.2881,-1.2881,-1.2881,-1.2881,-1.2881,-1.2881,-1.2881,-1.2881,-1.2881,-1.2881,-1.2881,-1.2881,-1.2881,-1.2881,-1.2881,-1.2881,-1.2881,-1.2881,-1.2881,-1.2881,-1.2881,-1.2881,-1.2881,-1.2881,-1.2881,-1.2881,-1.2881,-1.2881,-1.2881,-1.2881,-1.3017,-1.342,-1.3684,-1.3956,-1.4329,-1.4915,-1.532,-1.532,-1.5688,-1.5932,-1.5932,-1.5932,-1.5332,-1.3909,-1.3815,-1.3552,-1.2929,-1.2881,-1.2881,-1.2881,-1.2881,-1.2881,-1.2881,-1.2881,-1.2881,-1.2881,-1.2881,-1.2657,-1.2138,-1.1683,-1.1233,0.0,0.2153,-0.2361,-0.6892,-0.9799,-1.1901,-1.3054,-1.0813,-0.7521,-0.4032,-0.0375,0.2754,0.457,0.523,0.532,0.4714,0.0,0.0,0.0,0.0,0.0,0.0,0.0,0.0,0.0,0.0,0.0,0.0,0.0,0.0,0.0,-0.6187,-0.7153,-0.8328,-0.8646,-0.8804,-0.8804,-0.8804,-0.8804,-0.8804,-0.8804,-0.8804,-0.8804,-0.9658,0.0,0.0,0.0,0.0,0.0,-1.2881,-1.2881,-1.2881,-1.2881,-1.2881,-1.2881,-1.2881,-1.2881,-1.2881,-1.2881,-1.2881,-1.2881,-1.2881,-1.2881,-1.2881,-1.2881,-1.2881,-1.2881,-1.2881,-1.2881,-1.2881,-1.2881,-1.2881,-1.2881,-1.2881,-1.2881,-1.2881,-1.2881,-1.2881,-1.2978,-1.32,-1.3238,-1.342,-1.4061,-1.4318,-1.4595,-1.496,-1.5555,-1.5952,-1.5952,-1.6281,-1.6522,-1.6522,-1.6522,-1.5964,-1.4584,-1.4272,-1.3873,-1.3286,-1.3017,-1.2881,-1.2881,-1.2881,-1.2881,-1.2881,-1.2881,-1.2881,-1.2881,-1.2715,-1.2503,-1.2178,-1.1177,-1.0736,0.0,0.2594,-0.1955,-0.577,-0.8503,-1.0429,-1.1078,-0.9039,0.0,-0.2672,0.027,0.287,0.5045,0.5423,0.5218,0.4477,0.0,0.0,0.0,0.0,0.0,0.0,0.0,0.0,0.0,0.0,0.0,0.0,0.0,0.0,0.0,-0.6195,-0.694,-0.7693,-0.844,-0.8804,-0.8804,-0.8804,-0.8804,-0.8804,-0.8804,-0.8804,-0.8804,-0.8857,0.0,0.0,0.0,0.0,0.0,-1.2881,-1.2881,-1.2881,-1.2881,-1.2881,-1.2881,-1.2881,-1.2881,-1.2881,-1.2881,-1.2881,-1.2881,-1.2881,-1.2881,-1.2881,-1.2881,-1.2881,-1.2881,-1.2881,-1.2881,-1.2881,-1.2881,-1.2881,-1.2881,-1.2881,-1.2881,-1.2881,-1.2881,-1.2881,-1.3055,-1.3684,-1.3815,-1.4003,-1.4652,-1.5231,-1.5632,-1.5676,-1.6139,-1.6522,-1.6522,-1.6522,-1.6522,-1.6522,-1.6522,-1.6281,-1.572,-1.5096,-1.4468,-1.3815,-1.3286,-1.2929,-1.2881,-1.2881,-1.2881,-1.2881,-1.2881,-1.2881,-1.2881,-1.2441,-1.2385,-1.2754,-1.126,-1.1094,0.6671,0.0,0.0372,-0.3743,-0.6025,-0.7502,0.0,-0.6537,-0.4023,-0.1079,0.0,0.2747,0.4559,0.4869,0.47,0.0,0.0,0.0,0.0,0.0,0.0,0.0,0.0,0.0,0.0,0.0,0.0,0.0,0.0,0.0,0.0,-0.6195,-0.6934,-0.7676,-0.8427,-0.8804,-0.8804,-0.8804,-0.8804,-0.8804,-0.8804,-0.8804,-0.8804,-0.9309,0.0,0.0,0.0,0.0,-1.2881,-1.2881,-1.2881,-1.2881,-1.2881,-1.2881,-1.2881,-1.2881,-1.2881,-1.2881,-1.2881,-1.2881,-1.2881,-1.2881,-1.2881,-1.2881,-1.2881,-1.2881,-1.2881,-1.2881,-1.2881,-1.2881,-1.2881,-1.2881,-1.2881,-1.2881,-1.2881,-1.2881,-1.2881,-1.2881,-1.3055,-1.3684,-1.3815,-1.4143,-1.5186,-1.5499,-1.5776,-1.6238,-1.6423,-1.6522,-1.6522,-1.6522,-1.6522,-1.6522,-1.6522,-1.6423,-1.6281,-1.5732,-1.4903,-1.3862,-1.3684,-1.3372,-1.2929,-1.2881,-1.2881,-1.2881,-1.2881,-1.2881,-1.2881,-1.2441,-1.1977,-1.1563,-1.0931,-1.0435,0.6491,0.4885,0.2347,-0.1289,-0.332,-0.4613,-0.5369,0.0,0.0,0.0,0.0,0.2597,0.3931,0.0,0.0,0.0,0.0,0.0,0.0,0.0,0.0,0.0,0.0,0.0,0.0,0.0,0.0,0.0,0.0,0.0,0.0,-0.5841,-0.6623,-0.7065,-0.808,-0.8671,-0.8804,-0.8804,-0.8804,-0.8804,-0.8804,-0.8804,-0.8804,-0.951,0.0,0.0,0.0,0.0,-1.2881,-1.2881,-1.2881,-1.2881,-1.2881,-1.2881,-1.2881,-1.2881,-1.2881,-1.2881,-1.2881,-1.2881,-1.2881,-1.2881,-1.2881,-1.2881,-1.2881,-1.2881,-1.2881,-1.2881,-1.2881,-1.2881,-1.2881,-1.2881,-1.2881,-1.2881,-1.2881,-1.2968,-1.3238,-1.3334,-1.3552,-1.4457,-1.463,-1.4915,-1.5864,-1.5996,-1.6139,-1.6466,-1.6522,-1.6522,-1.6522,-1.6522,-1.6522,-1.6522,-1.6522,-1.6522,-1.6522,-1.6194,-1.5511,-1.4283,-1.3695,-1.3238,-1.2929,-1.2881,-1.2881,-1.2881,-1.2881,-1.2881,-1.2881,-1.2236,-1.183,-1.1659,-1.0829,-1.0337,0.5901,0.5291,0.3911,0.1205,-0.0497,-0.1725,-0.2603,0.0,0.0,0.0,0.0,0.0,0.0,0.0,0.0,0.0,0.0,0.0,0.0,0.0,0.0,0.0,0.0,0.0,0.0,0.0,0.0,0.0,0.0,0.0,0.0,-0.5444,-0.6248,-0.6355,-0.7678,-0.849,-0.8738,-0.8784,-0.8804,-0.8804,-0.8804,-0.8804,-0.8804,-0.951,-1.0167,0.0,0.0,0.0,-1.2881,-1.2881,-1.2881,-1.2881,-1.2881,-1.2881,-1.2881,-1.2881,-1.2881,-1.2881,-1.2881,-1.2881,-1.2881,-1.2881,-1.2881,-1.2881,-1.2881,-1.2881,-1.2881,-1.2881,-1.2881,-1.2881,-1.2881,-1.2881,-1.2881,-1.2881,-1.2881,-1.3065,-1.3684,-1.3815,-1.4179,-1.5365,-1.5588,-1.5776,-1.638,-1.6522,-1.6522,-1.6522,-1.6522,-1.6522,-1.6522,-1.6522,-1.6522,-1.6522,-1.6522,-1.6522,-1.6522,-1.6423,-1.5932,-1.488,-1.3789,-1.3113,-1.2929,-1.2881,-1.2881,-1.2881,-1.2812,-1.2783,-1.2783,-1.1939,-1.166,-1.1957,-1.083,-1.0469,0.4587,0.4856,0.4782,0.3212,0.2154,0.1169,-0.0223,0.0,0.0,0.0,0.0,0.0,0.0,0.0,0.0,0.0,0.0,0.0,0.0,0.0,0.0,0.0,0.0,0.0,0.0,0.0,0.0,0.0,0.0,0.0,0.0,0.0,-0.6026,-0.6075,-0.7579,-0.8397,-0.8437,-0.8684,-0.8804,-0.8804,-0.8804,-0.8804,-0.8804,-0.951,-1.0167,0.0,0.0,-1.2236,-1.2881,-1.2881,-1.2881,-1.2881,-1.2881,-1.2881,-1.2881,-1.2881,-1.2881,-1.2881,-1.2881,-1.2881,-1.2881,-1.2881,-1.2881,-1.2881,-1.2881,-1.2881,-1.2881,-1.2881,-1.2881,-1.2881,-1.2881,-1.2881,-1.2881,-1.2881,-1.2881,-1.3065,-1.3684,-1.3815,-1.4179,-1.5365,-1.5588,-1.5776,-1.638,-1.6522,-1.6522,-1.6522,-1.6522,-1.6522,-1.6522,-1.6522,-1.6522,-1.6522,-1.6522,-1.6522,-1.6522,-1.6051,-1.5676,-1.5454,-1.4789,-1.3978,-1.2929,-1.2881,-1.2881,-1.2881,-1.252,-1.2334,-1.2334,-1.1436,-1.1045,-1.1103,-1.0537,-1.0312,0.4612,0.4579,0.4558,0.4435,0.361,0.2452,0.0949,0.0,0.0,0.0,0.0,0.0,0.0,0.0,0.0,0.0,0.0,0.0,0.0,0.0,0.0,0.0,0.0,0.0,0.0,0.0,0.0,0.0,0.0,0.0,0.0,0.0,-0.5462,-0.5835,-0.7043,-0.783,-0.8136,-0.8584,-0.8804,-0.8804,-0.8804,-0.8804,-0.8857,-0.9865,-1.049,-1.0879,0.0,-1.2608,-1.2881,-1.2881,-1.2881,-1.2881,-1.2881,-1.2881,-1.2881,-1.2881,-1.2881,-1.2881,-1.2881,-1.2881,-1.2881,-1.2881,-1.2881,-1.2881,-1.2881,-1.2881,-1.2881,-1.2881,-1.2881,-1.2968,-1.3286,-1.3372,-1.3467,-1.38,-1.3884,-1.4014,-1.4641,-1.4767,-1.5039,-1.592,-1.6095,-1.6194,-1.6466,-1.6522,-1.6522,-1.6522,-1.6522,-1.6522,-1.6522,-1.6522,-1.6522,-1.6522,-1.6522,-1.6522,-1.6522,-1.6238,-1.5688,-1.4675,-1.4365,-1.3836,-1.2929,-1.2881,-1.2773,-1.2529,-1.2334,-1.2109,-1.1865,-1.1221,-1.0908,-1.0898,-1.0478,-1.0283,0.4688,0.4388,0.4189,0.4876,0.0,0.3289,0.1953,0.0,0.0,0.0,0.0,0.0,0.0,0.0,0.0,0.0,0.0,0.0,0.0,0.0,0.0,0.0,0.0,0.0,0.0,0.0,0.0,0.0,0.0,0.0,0.0,0.0,-0.4924,-0.5601,-0.6486,-0.7245,-0.7822,-0.8343,-0.8637,-0.8704,-0.8704,-0.8704,-0.8756,-0.9965,-1.059,-1.0764,-1.2143,-1.2783,-1.2881,-1.2881,-1.2881,-1.2881,-1.2881,-1.2881,-1.2881,-1.2881,-1.2881,-1.2881,-1.2881,-1.2881,-1.2881,-1.2881,-1.2881,-1.2881,-1.2881,-1.3008,-1.3125,-1.3125,-1.3212,-1.3375,-1.3563,-1.36,-1.3695,-1.4154,-1.4387,-1.4652,-1.5276,-1.5499,-1.5776,-1.638,-1.6522,-1.6522,-1.6522,-1.6522,-1.6522,-1.6522,-1.6522,-1.6522,-1.6522,-1.6522,-1.6522,-1.6522,-1.6522,-1.6522,-1.6522,-1.6522,-1.5788,-1.4143,-1.4003,-1.3732,-1.3152,-1.2968,-1.2676,-1.219,-1.2129,-1.1855,-1.1449,-1.0977,-1.0762,-1.0752,-1.043,-1.0283,0.4317,0.4138,0.4053,0.4247,0.4371,0.0,0.34,0.0,0.0,0.0,0.0,0.0,0.0,0.0,0.0,0.0,0.0,0.0,0.0,0.0,0.0,0.0,0.0,0.0,0.0,0.0,0.0,0.0,0.0,0.0,0.0,0.0,0.0,-0.5328,-0.618,-0.6908,-0.7502,-0.7829,-0.8136,-0.841,-0.841,-0.841,-0.8447,-0.9368,-1.0034,-1.0494,-1.1724,-1.251,-1.2881,-1.2881,-1.2881,-1.2881,-1.2881,-1.2881,-1.2881,-1.2881,-1.2881,-1.2881,-1.2881,-1.2881,-1.2881,-1.2881,-1.2881,-1.2881,-1.2881,-1.3272,-1.3734,-1.3734,-1.4153,-1.4294,-1.322,-1.2968,-1.2968,-1.3017,-1.3467,-1.405,-1.4652,-1.5186,-1.5776,-1.638,-1.6522,-1.6522,-1.6522,-1.6522,-1.6522,-1.6522,-1.6522,-1.6522,-1.6522,-1.6522,-1.6522,-1.6522,-1.6522,-1.6522,-1.6522,-1.6522,-1.5976,-1.4698,-1.4652,-1.4376,-1.3779,-1.32,-1.2676,-1.219,-1.1816,-1.1387,-1.0957,-1.0537,-1.0332,-1.0332,-1.0293,-1.0283,0.5137,0.5122,0.5157,0.4711,0.0,0.0,0.0,0.0,0.0,0.0,0.0,0.0,0.0,0.0,0.0,0.0,0.0,0.0,0.0,0.0,0.0,0.0,0.0,0.0,0.0,0.0,0.0,0.0,0.0,0.0,0.0,0.0,0.0,-0.5265,-0.5789,-0.6427,-0.7188,-0.7682,-0.7889,-0.7856,-0.8003,-0.8283,-0.8606,-0.9345,-1.0145,-1.0939,-1.1817,-1.248,-1.2881,-1.2881,-1.2881,-1.2881,-1.2881,-1.2881,-1.2881,-1.2881,-1.2881,-1.2881,-1.2881,-1.2881,-1.2881,-1.2881,-1.3152,-1.3372,-1.3017,-1.3566,-1.4287,-1.3899,-1.4247,-1.4671,-1.4602,-1.4576,-1.4687,-1.5062,-1.5287,-1.5555,-1.5788,-1.6008,-1.6238,-1.6479,-1.6522,-1.6522,-1.6522,-1.6522,-1.6522,-1.6522,-1.6522,-1.6522,-1.6522,-1.6522,-1.6522,-1.6522,-1.6522,-1.6522,-1.6522,-1.6522,-1.6151,-1.532,-1.4926,-1.4247,-1.3286,-1.275,-1.2126,-1.1358,-1.0891,-1.0303,-0.9532,-0.971,-0.9804,-0.9795,-1.0118,-1.0283,0.6046,0.6035,0.5982,0.0,0.0,0.0,0.0,0.0,0.0,0.0,0.0,0.0,0.0,0.0,0.0,0.0,0.0,0.0,0.0,0.0,0.0,0.0,0.0,0.0,0.0,0.0,0.0,0.0,0.0,0.0,0.0,0.0,0.0,0.0,-0.5765,-0.6211,-0.6985,-0.739,-0.7535,-0.7328,-0.7542,-0.7873,-0.8364,-0.888,-0.9651,-1.0642,-1.1405,-1.2107,-1.2684,-1.2861,-1.2881,-1.2871,-1.2725,-1.2754,-1.2881,-1.2881,-1.2881,-1.2881,-1.2881,-1.2881,-1.2929,-1.3104,-1.3457,-1.3779,-1.3515,-1.4183,-1.4902,-1.4506,-1.4801,-1.5345,-1.5773,-1.5598,-1.541,-1.5832,-1.6064,-1.6238,-1.6238,-1.638,-1.6522,-1.6522,-1.6522,-1.6522,-1.6522,-1.6522,-1.6522,-1.6522,-1.6522,-1.6522,-1.6522,-1.6522,-1.6522,-1.6522,-1.6522,-1.6522,-1.6522,-1.6522,-1.6151,-1.5365,-1.4926,-1.4247,-1.3248,-1.2473,-1.1668,-1.0803,-1.025,-0.9656,-0.8958,-0.9319,-0.9597,-0.9765,-1.0127,-1.039,0.691,0.6713,0.6452,0.0,0.0,0.0,0.0,0.0,0.0,0.0,0.0,0.0,0.0,0.0,0.0,0.0,0.0,0.0,0.0,0.0,0.0,0.0,0.0,0.0,0.0,0.0,0.0,0.0,0.0,0.0,0.0,0.0,0.0,0.0,-0.6179,0.0,-0.6979,-0.6979,-0.6979,-0.6979,-0.6979,-0.7174,-0.7493,-0.7766,-0.8398,-0.9372,-1.0351,-1.1327,-1.2236,-1.2694,-1.2871,-1.2832,-1.2393,-1.249,-1.2871,-1.2871,-1.2871,-1.2871,-1.292,-1.2881,-1.3017,-1.36,-1.3815,-1.392,-1.4514,-1.5107,-1.5603,-1.5576,-1.6037,-1.6466,-1.6522,-1.5611,-1.4709,-1.4709,-1.5186,-1.5632,-1.5632,-1.6095,-1.6522,-1.6522,-1.6522,-1.6522,-1.6522,-1.6522,-1.6522,-1.6522,-1.6522,-1.6522,-1.6522,-1.6522,-1.6522,-1.6522,-1.6522,-1.6522,-1.6522,-1.6522,-1.5976,-1.4789,-1.4698,-1.4422,-1.3815,-1.2492,-1.1492,-1.0803,-1.0058,-0.9639,-0.9478,-0.9478,-0.9765,-1.0283,-1.0283,-1.0534,0.861,0.8723,0.0,0.0,0.0,0.0,0.0,0.0,0.0,0.0,0.0,0.0,0.0,0.0,0.0,0.0,0.0,0.0,0.0,0.0,0.0,0.0,0.0,0.0,0.0,0.0,0.0,0.0,0.0,0.0,0.0,0.0,0.0,0.0,-0.5964,0.0,-0.6979,-0.6979,-0.6979,-0.6979,-0.6979,-0.7279,-0.7801,-0.7874,-0.8609,-0.9861,-1.0179,-1.0888,-1.1807,-1.193,-1.1998,-1.1988,-1.1807,-1.1881,-1.1998,-1.1998,-1.2148,-1.2469,-1.2894,-1.3284,-1.361,-1.4251,-1.4706,-1.504,-1.4766,-1.5131,-1.5623,-1.5589,-1.573,-1.5952,-1.638,-1.6238,-1.5976,-1.5976,-1.6107,-1.6238,-1.6238,-1.638,-1.6522,-1.6522,-1.6522,-1.6522,-1.6522,-1.6522,-1.6522,-1.6522,-1.6522,-1.6522,-1.6522,-1.6522,-1.6522,-1.6522,-1.6522,-1.6522,-1.6522,-1.6522,-1.5976,-1.4789,-1.4698,-1.4247,-1.319,-1.2464,-1.1472,-1.0202,-0.967,-0.9052,-0.8357,-0.8756,-0.9199,-0.9765,-1.0118,-1.0534,1.0233,0.0,0.0,0.0,0.0,0.0,0.0,0.0,0.0,0.0,0.0,0.0,0.0,0.0,0.0,0.0,0.0,0.0,0.0,0.0,0.0,0.0,0.0,0.0,0.0,0.0,0.0,0.0,0.0,0.0,0.0,0.0,0.0,0.0,-0.6007,0.0,-0.6979,-0.6979,-0.6979,-0.6979,-0.6979,-0.7196,-0.7538,-0.7787,-0.8393,-0.9257,-0.9867,-1.0676,-1.1596,-1.141,-1.1449,-1.1587,-1.1367,-1.1449,-1.1606,-1.1606,-1.1851,-1.2323,-1.2889,-1.3435,-1.3963,-1.4811,-1.5302,-1.5584,-1.5457,-1.5691,-1.5905,-1.57,-1.5776,-1.6003,-1.6148,-1.6358,-1.6522,-1.6522,-1.6522,-1.6522,-1.6522,-1.6522,-1.6522,-1.6522,-1.6522,-1.6522,-1.6522,-1.668,-1.6837,-1.6837,-1.6993,-1.7146,-1.7146,-1.6951,-1.6837,-1.6837,-1.6637,-1.6522,-1.6522,-1.6522,-1.6022,-1.4786,-1.4552,-1.3924,-1.2715,-1.2107,-1.1297,-1.0292,-0.9569,-0.8988,-0.8521,-0.8878,-0.9279,-0.9843,-1.0166,-1.0659,0.0,0.0,0.0,0.0,0.0,0.0,0.0,0.0,0.0,0.0,0.0,0.0,0.0,0.0,0.0,0.0,0.0,0.0,0.0,0.0,0.0,0.0,0.0,0.0,0.0,0.0,0.0,0.0,0.0,0.0,0.0,0.0,0.0,0.0,0.0,0.0,-0.6979,-0.6979,-0.6979,0.0,-0.6979,-0.6979,-0.7021,-0.7572,-0.787,-0.8051,-0.9484,-1.0644,-1.1459,-1.1016,-1.1084,-1.1449,-1.1006,-1.1094,-1.1489,-1.1489,-1.1757,-1.2256,-1.2803,-1.34,-1.4103,-1.5171,-1.5605,-1.5796,-1.6318,-1.6441,-1.6286,-1.586,-1.6001,-1.6186,-1.5869,-1.6107,-1.6459,-1.6509,-1.6522,-1.6522,-1.6522,-1.6522,-1.6522,-1.6522,-1.6552,-1.6552,-1.6552,-1.7034,-1.7394,-1.7394,-1.7787,-1.8106,-1.8106,-1.7666,-1.7353,-1.7312,-1.6879,-1.6552,-1.6522,-1.6522,-1.6015,-1.4886,-1.4382,-1.3617,-1.2404,-1.1624,-1.1095,-1.0739,-0.9726,-0.9283,-0.9518,-0.9518,-0.9755,-1.0283,-1.0283,-1.084,0.0,1.2268,0.0,0.0,0.0,0.0,0.0,0.0,0.0,0.0,0.0,0.0,0.0,0.0,0.0,0.0,0.0,0.0,0.0,0.0,0.0,0.0,0.0,0.0,0.0,0.0,0.0,0.0,0.0,0.0,0.0,0.0,0.0,-0.6184,0.0,-0.6894,-0.6979,-0.6979,-0.6979,0.0,-0.6979,-0.6979,-0.7021,-0.7154,-0.769,-0.8602,-0.9769,-1.039,-1.0587,-1.0459,-1.0469,-1.0587,-1.0459,-1.0469,-1.0596,-1.0596,-1.0843,-1.1304,-1.1881,-1.2944,-1.42,-1.492,-1.5671,-1.6318,-1.6479,-1.5874,-1.5326,-1.6113,-1.5445,-1.4812,-1.6019,-1.6107,-1.5982,-1.6409,-1.6522,-1.6522,-1.6522,-1.6522,-1.6522,-1.6522,-1.6837,-1.7105,-1.7105,-1.7585,-1.7947,-1.7947,-1.8027,-1.8106,-1.8106,-1.7987,-1.7787,-1.7353,-1.7188,-1.6951,-1.6552,-1.6522,-1.6015,-1.4886,-1.4723,-1.4098,-1.2899,-1.2014,-1.1135,-1.0285,-1.0016,-0.9742,-0.9518,-0.9518,-0.9755,-1.0283,-1.0283,-1.084,0.0,0.0,0.0,0.0,0.0,0.0,0.0,0.0,0.0,0.0,0.0,0.0,0.0,0.0,0.0,0.0,0.0,0.0,0.0,0.0,0.0,0.0,0.0,0.0,0.0,0.0,0.0,0.0,0.0,0.0,0.0,-0.423,-0.473,-0.5533,-0.5743,-0.6094,-0.6613,-0.6607,-0.6607,-0.6607,-0.6605,-0.6679,-0.682,-0.7252,-0.8177,-0.9478,-0.9804,-1.004,-1.0283,-1.0283,-1.0283,-1.0283,-1.0283,-1.0283,-1.0283,-1.0283,-1.0723,-1.1407,-1.1984,-1.3037,-1.4213,-1.4778,-1.5318,-1.5723,-1.5721,-1.5323,-1.4906,-1.5272,-1.4912,-1.4587,-1.5174,-1.5517,-1.5768,-1.6057,-1.6321,-1.6552,-1.6837,-1.668,-1.6637,-1.7146,-1.7271,-1.7394,-1.7626,-1.8145,-1.8574,-1.8817,-1.8855,-1.8855,-1.8855,-1.8356,-1.8019,-1.8064,-1.733,-1.6859,-1.6896,-1.6397,-1.5757,-1.4886,-1.4365,-1.3694,-1.2819,-1.1813,-1.1165,-1.0889,-1.0409,-1.0089,-0.9883,-0.9883,-1.004,-1.0283,-1.0283,-1.084,0.0,0.0,0.0,0.0,0.0,0.0,0.0,0.0,0.0,0.0,0.0,0.0,0.0,0.0,0.0,0.0,0.0,0.0,0.0,0.0,0.0,0.0,0.0,0.0,0.0,0.0,0.0,0.0,0.0,0.0,-0.3709,-0.3538,-0.3894,-0.4853,-0.4739,-0.5127,-0.6084,-0.6065,-0.6106,-0.6185,-0.6214,-0.6359,-0.6715,-0.7492,-0.864,-1.0,-0.9637,-0.9804,-1.0283,-1.0283,-1.0283,-1.0283,-1.0283,-1.0283,-1.0322,-1.04,-1.0954,-1.1756,-1.2283,-1.3108,-1.4038,-1.4504,-1.4737,-1.49,-1.4881,-1.4851,-1.4708,-1.4354,-1.4403,-1.4563,-1.4299,-1.4916,-1.558,-1.5668,-1.6191,-1.6752,-1.7188,-1.7034,-1.7034,-1.7947,-1.7827,-1.7747,-1.8302,-1.8727,-1.9207,-1.9639,-1.969,-1.969,-1.969,-1.8825,-1.8346,-1.8677,-1.7383,-1.6639,-1.7073,-1.6184,-1.5354,-1.4941,-1.3961,-1.3203,-1.2639,-1.1752,-1.1388,-1.1704,-1.0763,-1.0244,-1.0157,-1.0244,-1.0244,-1.0157,-1.0244,-1.084,0.0,0.0,0.0,0.0,0.0,0.0,0.0,0.0,0.0,0.0,0.0,0.0,0.0,0.0,0.0,0.0,0.0,0.0,0.0,0.0,0.0,0.0,0.0,0.0,0.0,0.0,0.0,0.0,0.0,0.0,-0.4099,-0.398,-0.4218,-0.4887,-0.4862,-0.5113,-0.5586,-0.5574,-0.5779,-0.6187,-0.6211,-0.6476,-0.6965,-0.7428,-0.8127,-0.8918,-0.9319,-0.9804,-1.0283,-1.0283,-1.0283,-1.0283,-1.0283,-1.0283,-1.0351,-1.0764,-1.0981,-1.1169,-1.173,-1.2585,-1.3406,-1.3486,-1.4136,-1.4891,-1.4901,-1.4588,-1.4305,-1.4695,-1.4141,-1.3659,-1.4576,-1.4916,-1.5103,-1.558,-1.6468,-1.7188,-1.7271,-1.7626,-1.7947,-1.8066,-1.8419,-1.8855,-1.9406,-1.9566,-1.9603,-1.969,-1.969,-1.969,-1.969,-1.9564,-1.9095,-1.8129,-1.7511,-1.697,-1.6481,-1.5555,-1.4991,-1.4916,-1.4312,-1.3725,-1.3141,-1.2579,-1.2136,-1.1801,-1.0794,-1.0079,-0.9597,-1.0079,-1.004,-0.9597,-1.0079,-1.084,0.0,0.0,0.0,0.0,0.0,0.0,0.0,0.0,0.0,0.0,0.0,0.0,0.0,0.0,0.0,0.0,0.0,0.0,0.0,0.0,0.0,0.0,0.0,0.0,0.0,0.0,0.0,0.0,0.0,-0.3308,-0.3573,-0.3441,-0.3633,-0.4142,-0.4049,-0.4201,-0.4646,-0.4654,-0.4869,-0.5311,-0.5722,-0.6047,-0.6286,-0.6894,-0.765,-0.856,-0.9004,-0.9343,-0.957,-0.957,-0.9707,-0.9912,-0.9912,-1.0248,-1.0725,-1.0905,-1.1345,-1.1872,-1.2102,-1.2662,-1.3253,-1.3252,-1.3541,-1.3943,-1.3959,-1.3785,-1.3654,-1.3861,-1.3603,-1.338,-1.413,-1.4818,-1.5475,-1.5951,-1.7147,-1.8224,-1.8224,-1.8145,-1.8185,-1.8496,-1.8968,-1.9406,-1.9639,-1.9375,-1.9256,-1.963,-1.9375,-1.9271,-1.963,-1.9361,-1.8947,-1.839,-1.7653,-1.7081,-1.679,-1.5634,-1.4916,-1.4916,-1.4061,-1.3483,-1.321,-1.2756,-1.2282,-1.1811,-1.0781,-1.0011,-0.9518,-0.9439,-0.9439,-0.9518,-0.9765,-1.0384,0.0,0.0,0.0,0.0,0.0,0.0,0.0,0.0,0.0,0.0,0.0,0.0,0.0,0.0,0.0,0.0,0.0,0.0,0.0,0.0,0.0,0.0,0.0,0.0,0.0,0.0,0.0,0.0,0.0,-0.3034,-0.3052,-0.293,-0.3025,-0.3372,-0.3222,-0.3352,-0.3826,-0.4031,-0.4355,-0.48,-0.5333,-0.5605,-0.5611,-0.6373,-0.716,-0.7941,-0.8555,-0.8875,-0.9004,-0.9008,-0.918,-0.945,-0.957,-1.0036,-1.0675,-1.1052,-1.1689,-1.2354,-1.2615,-1.2908,-1.3198,-1.3198,-1.3198,-1.3198,-1.3198,-1.3198,-1.3232,-1.3331,-1.3365,-1.3501,-1.3934,-1.4956,-1.5951,-1.6225,-1.763,-1.893,-1.908,-1.8779,-1.8612,-1.9043,-1.9442,-1.969,-1.969,-1.9286,-1.9061,-1.939,-1.9256,-1.92,-1.9426,-1.9105,-1.8778,-1.8478,-1.7377,-1.6665,-1.6629,-1.5306,-1.4513,-1.4689,-1.376,-1.3198,-1.3198,-1.2873,-1.2389,-1.1811,-1.0864,-1.0108,-0.9478,-0.9079,-0.9119,-0.9518,-0.9628,-1.021,0.0,0.0,0.0,0.0,0.0,0.0,0.0,0.0,0.0,0.0,0.0,0.0,0.0,0.0,0.0,0.0,0.0,0.0,0.0,0.0,0.0,0.0,0.0,0.0,0.0,0.0,0.0,0.0,0.0,-0.2922,-0.2922,-0.2793,-0.273,-0.276,-0.2753,-0.294,-0.3327,-0.4145,-0.4794,-0.5277,-0.5297,-0.5336,-0.5336,-0.6137,-0.6546,-0.6657,-0.7774,-0.8531,-0.9012,-0.9011,-0.9026,-0.9074,-0.943,-0.9639,-0.9853,-1.1231,-1.1774,-1.1957,-1.2838,-1.3198,-1.3198,-1.3198,-1.3198,-1.3198,-1.3198,-1.3198,-1.3276,-1.3736,-1.3874,-1.3952,-1.436,-1.5365,-1.6261,-1.6297,-1.763,-1.9043,-1.9566,-1.9639,-1.9639,-1.9639,-1.969,-1.969,-1.969,-1.966,-1.9435,-1.8837,-1.9592,-1.9848,-1.8891,-1.9122,-1.8944,-1.7867,-1.6451,-1.5529,-1.5394,-1.4085,-1.3534,-1.4097,-1.3546,-1.3198,-1.3198,-1.3163,-1.272,-1.1811,-1.1191,-1.0397,-0.9518,-0.9478,-0.9478,-0.9518,-0.9953,-1.074,0.0,0.0,0.0,0.0,0.0,0.0,0.0,0.0,0.0,0.0,0.0,0.0,0.0,0.0,0.0,0.0,0.0,0.0,0.0,0.0,0.0,0.0,0.0,0.0,0.0,0.0,0.0,0.0,0.0,0.0,-0.1883,-0.1814,-0.1947,-0.2247,-0.2247,-0.2477,-0.2907,-0.3793,-0.4312,-0.4473,-0.5023,-0.5309,-0.5309,-0.6121,-0.6488,-0.6565,-0.7463,-0.7985,-0.8156,-0.8165,-0.8339,-0.8633,-0.8793,-0.9552,-1.0629,-1.1166,-1.192,-1.2756,-1.3082,-1.3198,-1.3198,-1.3198,-1.3198,-1.3198,-1.3198,-1.3424,-1.3685,-1.3864,-1.4092,-1.4373,-1.4786,-1.5825,-1.7119,-1.8222,-1.8957,-1.9479,-1.9639,-1.969,-1.969,-1.969,-1.969,-1.969,-1.969,-1.9596,-1.94,-1.9089,-1.9248,-1.9139,-1.8466,-1.8531,-1.8222,-1.7161,-1.6427,-1.5813,-1.5339,-1.4367,-1.3871,-1.4072,-1.3534,-1.3198,-1.3198,-1.3198,-1.2908,-1.2246,-1.2043,-1.1127,-0.9478,-0.9159,-0.9159,-0.9518,-1.0001,-1.0735,0.0,0.0,0.0,0.0,0.0,0.0,0.0,0.0,0.0,0.0,0.0,0.0,0.0,0.0,0.0,0.0,0.0,0.0,0.0,0.0,0.0,0.0,0.0,0.0,0.0,0.0,0.0,0.0,0.0,0.0,-0.1307,-0.1306,-0.1455,-0.1742,-0.1868,-0.2148,-0.2586,-0.3269,-0.3766,-0.4011,-0.4587,-0.4924,-0.502,-0.5933,-0.6365,-0.6403,-0.7326,-0.7695,-0.7695,-0.7695,-0.7891,-0.8177,-0.8335,-0.919,-1.041,-1.0911,-1.1767,-1.2731,-1.3101,-1.3198,-1.3198,-1.3198,-1.331,-1.3446,-1.3433,-1.3736,-1.4119,-1.4265,-1.4498,-1.4805,-1.5211,-1.6305,-1.7695,-1.934,-1.969,-1.969,-1.969,-1.969,-1.969,-1.969,-1.9818,-1.9909,-1.9909,-1.9736,-1.9452,-1.9139,-1.9065,-1.8828,-1.8138,-1.8092,-1.7803,-1.6985,-1.6308,-1.5672,-1.507,-1.4237,-1.3699,-1.358,-1.3175,-1.2978,-1.2978,-1.3129,-1.2978,-1.2508,-1.2508,-1.1752,-1.0283,-0.9531,-0.957,-1.0283,-1.0369,-1.0899,0.0,0.0,0.0,0.0,0.0,0.0,0.0,0.0,0.0,0.0,0.0,0.0,0.0,0.0,0.0,0.0,0.0,0.0,0.0,0.0,0.0,0.0,0.0,0.0,0.0,0.0,0.0,0.0,0.0,-0.127,-0.1226,-0.1253,-0.1277,-0.1282,-0.1614,-0.1974,-0.2375,-0.2714,-0.3262,-0.3971,-0.3992,-0.4131,-0.4435,-0.5561,-0.6082,-0.6154,-0.7205,-0.7695,-0.7695,-0.7695,-0.7695,-0.7744,-0.8193,-0.8601,-0.9098,-1.0532,-1.1341,-1.185,-1.2837,-1.3173,-1.3173,-1.322,-1.3542,-1.3881,-1.3916,-1.4206,-1.4606,-1.4989,-1.512,-1.5241,-1.5696,-1.6757,-1.8011,-1.9346,-1.9675,-1.9711,-1.9696,-1.9696,-1.9696,-1.9696,-1.9989,-2.0252,-2.0252,-2.0051,-1.9665,-1.8988,-1.9174,-1.9012,-1.7919,-1.7834,-1.7697,-1.7306,-1.598,-1.4937,-1.4533,-1.3657,-1.2914,-1.2532,-1.2508,-1.2508,-1.2508,-1.2943,-1.2978,-1.2544,-1.2532,-1.2318,-1.1847,-1.0761,-1.0799,-1.1774,-1.1206,-1.1331,-0.3035,0.0,0.0,0.0,0.0,0.0,0.0,0.0,0.0,0.0,0.0,0.0,0.0,0.0,0.0,0.0,0.0,0.0,0.0,0.0,0.0,0.0,0.0,0.0,0.0,0.0,0.0,0.0,-0.0502,-0.0275,0.0259,-0.02,-0.0511,-0.0502,-0.1337,-0.1866,-0.1974,-0.2582,-0.3104,-0.351,-0.3832,-0.4131,-0.4435,-0.5229,-0.5581,-0.564,-0.6783,-0.7269,-0.7279,-0.7579,-0.7695,-0.7715,-0.7832,-0.853,-0.9459,-0.9858,-1.0696,-1.1721,-1.2398,-1.2612,-1.2758,-1.3454,-1.3782,-1.3934,-1.4239,-1.461,-1.4953,-1.5075,-1.5341,-1.5727,-1.6308,-1.7055,-1.7939,-1.8777,-1.9346,-1.9611,-1.939,-1.9351,-1.9351,-1.9351,-1.9037,-1.8874,-1.9169,-1.9399,-1.93,-1.8556,-1.8783,-1.8643,-1.7592,-1.7242,-1.6971,-1.6608,-1.5698,-1.4937,-1.4533,-1.3657,-1.2914,-1.2532,-1.2174,-1.2138,-1.2508,-1.2615,-1.2791,-1.3012,-1.3331,-1.3285,-1.2803,-1.1825,-1.1494,-1.1799,-1.1872,-1.195,0.0,0.0,0.0,0.0,0.0,0.0,0.0,0.0561,0.0,0.0,0.0,0.0,0.0,0.0,0.0,0.0,0.0,0.0,0.0,0.0,0.0,0.0,0.0,0.0,0.0,0.0,0.0,0.0665,0.0771,0.088,0.1047,0.0416,0.0051,0.0051,-0.0765,-0.1278,-0.1431,-0.1963,-0.2441,-0.2844,-0.3266,-0.359,-0.3889,-0.4804,-0.5232,-0.529,-0.6339,-0.6924,-0.713,-0.7516,-0.7673,-0.7725,-0.7899,-0.8495,-0.9322,-0.9712,-1.0508,-1.1519,-1.2049,-1.2493,-1.2968,-1.3533,-1.4042,-1.4453,-1.4693,-1.5046,-1.5383,-1.5383,-1.558,-1.5948,-1.6547,-1.6995,-1.7443,-1.81,-1.8703,-1.9022,-1.8822,-1.8703,-1.8687,-1.8968,-1.8869,-1.8792,-1.901,-1.9126,-1.9059,-1.8618,-1.8497,-1.8215,-1.7599,-1.7224,-1.6876,-1.6554,-1.5966,-1.5285,-1.4564,-1.3598,-1.282,-1.2246,-1.1726,-1.1689,-1.2174,-1.2389,-1.272,-1.3198,-1.3459,-1.3581,-1.348,-1.2904,-1.2543,-1.2366,-1.2502,-1.2319,0.0,0.0,0.0,0.0,0.0,0.0,-0.2136,-0.0985,0.0,0.0,0.0,0.0,0.0,0.0,0.0,0.0,0.0,0.0,0.0,0.0,0.0,0.0,0.0,0.0,0.0,0.033,0.1281,0.2193,0.2282,0.2066,0.1482,0.0837,0.049,0.0468,-0.0067,-0.0535,-0.0892,-0.1163,-0.1604,-0.2193,-0.2546,-0.2832,-0.3138,-0.4334,-0.488,-0.4972,-0.5885,-0.6547,-0.6979,-0.7323,-0.7576,-0.7812,-0.8205,-0.8551,-0.8983,-0.9824,-1.0553,-1.1189,-1.1785,-1.2549,-1.3351,-1.3512,-1.4212,-1.5008,-1.515,-1.5477,-1.5799,-1.5799,-1.5799,-1.5933,-1.6458,-1.6652,-1.6861,-1.7507,-1.7912,-1.8161,-1.8191,-1.7987,-1.7976,-1.8575,-1.8952,-1.917,-1.9223,-1.8977,-1.8775,-1.8775,-1.8217,-1.7811,-1.7811,-1.7502,-1.7199,-1.6892,-1.6528,-1.5838,-1.4645,-1.3592,-1.2667,-1.1836,-1.1319,-1.1244,-1.1774,-1.2246,-1.272,-1.3198,-1.3267,-1.3514,-1.4019,-1.3933,-1.3644,-1.3183,-1.2985,-1.2464,-0.539,-0.5247,-0.5114,0.0,0.0,0.0,0.0,-0.2343,0.0,0.0,0.0,0.0,0.0,0.0,0.0,0.0,0.0,0.0,0.0,0.0,0.0,0.0,0.0,0.0,0.0,0.1503,0.2694,0.3763,0.3366,0.2894,0.2445,0.1605,0.1027,0.0803,0.0222,-0.0334,-0.0892,-0.1163,-0.1604,-0.2193,-0.2546,-0.2832,-0.3111,-0.3801,-0.4232,-0.4478,-0.5267,-0.5767,-0.6087,-0.6469,-0.7239,-0.8233,-0.8578,-0.8926,-0.9316,-0.9721,-1.0161,-1.0683,-1.1476,-1.1885,-1.2266,-1.3565,-1.4108,-1.4471,-1.5389,-1.5712,-1.5799,-1.5799,-1.5799,-1.5829,-1.5963,-1.6353,-1.6803,-1.7272,-1.7593,-1.7883,-1.8198,-1.8017,-1.7835,-1.797,-1.7846,-1.7798,-1.8071,-1.8047,-1.8014,-1.8014,-1.7896,-1.7811,-1.7811,-1.7502,-1.7256,-1.7224,-1.667,-1.5922,-1.4988,-1.3716,-1.2667,-1.1836,-1.1319,-1.1244,-1.1774,-1.2246,-1.272,-1.3198,-1.3581,-1.4117,-1.4876,-1.4519,-1.4154,-1.3716,-1.2786,-1.2203,0.0,0.0,-0.5825,-0.6149,0.0,0.0,0.0,0.0,-0.3382,0.0,0.0,0.0,0.0,0.0,0.0,0.0,0.0,0.0,0.0,0.0,0.0,0.0,0.0,0.0,0.0,0.3542,0.5001,0.5434,0.4643,0.3859,0.3243,0.2279,0.1487,0.0916,0.0446,-0.0156,-0.0892,-0.1027,-0.1405,-0.2,-0.2481,-0.2762,-0.2918,-0.3591,-0.4048,-0.4321,-0.4838,-0.5343,-0.5835,-0.6333,-0.7228,-0.8257,-0.8432,-0.8963,-0.9649,-0.9982,-1.0424,-1.0916,-1.1338,-1.1842,-1.2394,-1.3198,-1.3905,-1.4547,-1.5128,-1.5544,-1.5799,-1.5799,-1.5799,-1.5827,-1.6011,-1.6283,-1.6585,-1.6964,-1.727,-1.7579,-1.7755,-1.779,-1.779,-1.7811,-1.7658,-1.7595,-1.7766,-1.7811,-1.7811,-1.7811,-1.7811,-1.7811,-1.7811,-1.7658,-1.7415,-1.7076,-1.6763,-1.6047,-1.485,-1.3899,-1.3048,-1.221,-1.17,-1.1616,-1.2138,-1.2401,-1.2814,-1.3547,-1.4181,-1.469,-1.5104,-1.4788,-1.4438,-1.3973,-1.3149,-1.243,0.0,0.0,0.0,0.0,0.0,-0.622,0.0,0.0,0.0,-0.4808,0.0,0.0,0.0,0.0,0.0,0.0,0.0,0.0,0.0,0.0,0.0,0.0,0.0,0.0,0.0,0.633,0.7783,0.7352,0.6068,0.4972,0.4132,0.2959,0.194,0.1165,0.0718,0.0067,-0.0803,-0.087,-0.1203,-0.1803,-0.2415,-0.2697,-0.2719,-0.3528,-0.4048,-0.4313,-0.4646,-0.514,-0.5782,-0.6374,-0.7175,-0.8073,-0.8367,-0.9057,-0.997,-1.0416,-1.0883,-1.131,-1.1368,-1.193,-1.2636,-1.2762,-1.376,-1.4905,-1.4966,-1.5464,-1.5994,-1.5996,-1.5983,-1.6052,-1.6328,-1.6409,-1.6474,-1.6815,-1.7052,-1.7248,-1.7368,-1.7549,-1.7726,-1.7789,-1.7811,-1.7811,-1.7811,-1.7811,-1.7811,-1.7811,-1.7811,-1.7811,-1.7811,-1.7726,-1.7519,-1.6952,-1.6789,-1.613,-1.4724,-1.4114,-1.3424,-1.2567,-1.2138,-1.2102,-1.2461,-1.2673,-1.3113,-1.3901,-1.4626,-1.4992,-1.4992,-1.4832,-1.4537,-1.4084,-1.3431,-1.2656,0.0,0.0,0.0,0.0,-0.7641,0.0,0.0,0.0,-0.6486,-0.5718,0.0,0.0,0.0,0.0,0.0,0.0,0.0,0.0,0.0,0.0,0.0,0.0,0.0,0.0,0.0,0.0,1.0756,0.9942,0.7779,0.6192,0.5516,0.3659,0.2457,0.2072,0.1272,0.0423,-0.0446,-0.0758,-0.1203,-0.1803,-0.2415,-0.2697,-0.2719,-0.3528,-0.4048,-0.4325,-0.4845,-0.5233,-0.5565,-0.6059,-0.6741,-0.7623,-0.8934,-0.9812,-1.0396,-1.0986,-1.1253,-1.1341,-1.1637,-1.1828,-1.1992,-1.2594,-1.3915,-1.5284,-1.5515,-1.6109,-1.669,-1.668,-1.6686,-1.6686,-1.6738,-1.6738,-1.6841,-1.7175,-1.7052,-1.7018,-1.7612,-1.7549,-1.7439,-1.7726,-1.7811,-1.7811,-1.7811,-1.7811,-1.7811,-1.7811,-1.7811,-1.7811,-1.7811,-1.7549,-1.7344,-1.7248,-1.6722,-1.5978,-1.5003,-1.4247,-1.3424,-1.2567,-1.2437,-1.2425,-1.2508,-1.3285,-1.3789,-1.3901,-1.434,-1.4564,-1.4564,-1.46,-1.4445,-1.4084,-1.2943,-1.2449,0.0,0.0,0.0,0.0,0.0,0.0,0.0,0.0,-0.7549,0.0,0.0,0.0,0.0,0.0,0.0,0.0,0.0,0.0,0.0,0.0,0.0,0.0,0.0,0.0,0.0,0.0,0.0,0.0,0.0,0.7377,0.6487,0.4696,0.3235,0.2227,0.1434,0.0561,-0.0401,-0.0736,-0.1292,-0.2044,-0.2481,-0.2869,-0.3184,-0.3675,-0.413,-0.4547,-0.4943,-0.5317,-0.572,-0.6224,-0.688,-0.7662,-0.8596,-0.9557,-1.0426,-1.0685,-1.1211,-1.1843,-1.1984,-1.2143,-1.236,-1.3063,-1.375,-1.449,-1.5429,-1.5903,-1.6256,-1.6687,-1.6789,-1.6841,-1.7027,-1.7076,-1.7175,-1.7502,-1.7479,-1.7408,-1.7502,-1.7549,-1.7572,-1.7526,-1.7658,-1.7811,-1.7811,-1.7811,-1.7811,-1.7811,-1.7811,-1.7811,-1.7811,-1.7502,-1.7224,-1.7027,-1.6331,-1.5564,-1.4772,-1.4173,-1.3576,-1.2943,-1.2908,-1.3035,-1.3285,-1.3921,-1.4165,-1.4009,-1.4608,-1.476,-1.4507,-1.4279,-1.4165,-1.4081,-1.3388,-1.2904,-0.7704,0.0,0.0,0.0,0.0,0.0,0.0,0.0,0.0,0.0,0.0,0.0,0.0,0.0,0.0,0.0,0.0,0.0,0.0,0.0,0.0,0.0,0.0,0.0,0.0,0.0,0.0,0.0,0.0,0.0,0.7458,0.5725,0.4092,0.26,0.162,0.0653,-0.0289,-0.069,-0.1333,-0.2193,-0.2606,-0.3056,-0.3515,-0.3937,-0.4333,-0.4726,-0.5136,-0.5531,-0.5958,-0.6524,-0.7122,-0.7716,-0.8172,-0.9014,-1.0025,-1.0241,-1.1002,-1.1931,-1.1894,-1.216,-1.257,-1.3154,-1.3515,-1.3941,-1.5037,-1.5648,-1.6093,-1.6613,-1.6905,-1.7142,-1.7368,-1.7455,-1.7479,-1.7635,-1.7658,-1.7612,-1.7344,-1.7432,-1.7502,-1.7455,-1.7549,-1.7726,-1.7883,-1.7856,-1.7811,-1.7811,-1.7811,-1.7766,-1.7681,-1.7368,-1.7027,-1.6686,-1.5933,-1.5212,-1.455,-1.4117,-1.3637,-1.3019,-1.2922,-1.3006,-1.338,-1.4032,-1.425,-1.3937,-1.4709,-1.4885,-1.4428,-1.412,-1.4007,-1.4092,-1.3677,-1.3257,0.0,0.0,0.0,-0.8299,0.0,0.0,0.0,0.0,-0.8784,0.0,0.0,0.0,0.0,0.0,0.0,0.0,0.0,0.0,0.0,0.0,0.0,0.0,0.0,0.0,0.0,0.0,0.0,0.0,0.0,0.0,0.8507,0.6672,0.4971,0.3499,0.1918,0.0748,0.0,-0.06,-0.1333,-0.2215,-0.281,-0.3235,-0.3536,-0.4317,-0.4686,-0.4745,-0.5537,-0.5998,-0.6242,-0.6907,-0.7346,-0.7633,-0.7842,-0.8347,-0.9034,-0.9819,-1.0583,-1.1222,-1.1173,-1.1612,-1.2256,-1.2542,-1.3305,-1.4141,-1.4439,-1.5542,-1.6657,-1.6712,-1.7214,-1.7766,-1.7789,-1.7789,-1.7704,-1.7392,-1.732,-1.732,-1.7296,-1.7052,-1.7018,-1.7658,-1.7526,-1.7492,-1.8103,-1.7971,-1.7811,-1.7811,-1.7811,-1.7681,-1.7368,-1.7027,-1.6686,-1.6355,-1.5594,-1.4937,-1.4533,-1.4117,-1.3467,-1.2499,-1.2165,-1.205,-1.2079,-1.3387,-1.3922,-1.3532,-1.4357,-1.4611,-1.4214,-1.4123,-1.4085,-1.4085,-1.3499,-1.3309,0.0,0.0,-0.8018,-0.8264,0.0,0.0,0.0,0.0,0.0,0.0,0.0,0.0,0.0,0.0,0.0,0.0,0.0,0.0,0.0,0.0,0.0,0.0,0.0,0.0,0.0,0.0,0.0,0.0,0.0,0.0,0.0,0.7843,0.5899,0.4156,0.2539,0.1295,0.0479,-0.0434,-0.1331,-0.2202,-0.2805,-0.3424,-0.404,-0.4486,-0.4893,-0.5262,-0.5841,-0.6312,-0.6693,-0.7254,-0.7605,-0.7797,-0.787,-0.8047,-0.8332,-0.9042,-1.0113,-1.1277,-1.1886,-1.2496,-1.2981,-1.2883,-1.3274,-1.3854,-1.4345,-1.4944,-1.5514,-1.5855,-1.6492,-1.7024,-1.6786,-1.709,-1.7368,-1.7052,-1.6952,-1.6901,-1.6696,-1.6901,-1.7126,-1.7142,-1.7408,-1.7704,-1.7905,-1.7878,-1.7878,-1.8035,-1.7905,-1.7681,-1.7344,-1.7002,-1.6549,-1.5905,-1.5181,-1.4533,-1.4149,-1.3363,-1.2602,-1.1902,-1.1938,-1.2129,-1.2455,-1.3122,-1.3443,-1.3305,-1.3898,-1.4091,-1.3872,-1.4162,-1.4405,-1.4622,-1.4419,-1.4174,-0.6673,-0.717,0.0,-0.7834,-0.7932,0.0,-0.8363,0.0,0.0,0.0,0.0,0.0,0.0,0.0,0.0,0.0,0.0,0.0,0.0,0.0,0.0,0.0,0.0,0.0,0.0,0.0,0.8677,1.2202,0.0,0.0,0.0,0.0,0.7111,0.493,0.3143,0.1734,0.0698,-0.037,-0.1331,-0.2216,-0.29,-0.3605,-0.4313,-0.4765,-0.5214,-0.563,-0.6118,-0.6604,-0.705,-0.7439,-0.7724,-0.7914,-0.7955,-0.797,-0.8032,-0.8546,-0.9719,-1.1177,-1.2053,-1.2758,-1.3237,-1.3141,-1.3327,-1.3672,-1.4059,-1.447,-1.4865,-1.5127,-1.5731,-1.6294,-1.6221,-1.6548,-1.6864,-1.6674,-1.6607,-1.6554,-1.6355,-1.6644,-1.6952,-1.6977,-1.7337,-1.7704,-1.7905,-1.7861,-1.7878,-1.8035,-1.78,-1.7502,-1.7175,-1.6825,-1.6378,-1.5751,-1.5091,-1.4405,-1.3648,-1.2592,-1.1771,-1.1299,-1.1486,-1.175,-1.2057,-1.271,-1.3043,-1.2983,-1.3625,-1.3904,-1.3772,-1.4318,-1.4699,-1.4904,-1.4928,-1.4766]}]]